[[{"header":{"parameterUnit":"m.s-1","parameterCategory":1,"la1":30.6,"la2":28.766,"lo1":-90.7593,"lo2":-88.6598,"dy":0.0162,"dx":0.0183,"nx":116,"ny":114,"refTime":"2023-03-18T18:00:00:Z","depth":0,"parameterNumber":2,"parameterNumberName":"U-component_of_WINDS"},"data":[0.0,0.0,0.0,0.0,0.0,0.0,0.0,0.0,0.0,0.0,0.0,0.0,0.0,0.0,0.0,0.0,0.0,0.0,0.0,0.0,0.0,0.0,0.0,0.0,0.0,0.0,0.0,0.0,0.0,0.0,0.0,0.0,0.0,0.0,0.0,0.0,0.0,0.0,0.0,0.0,0.0,0.0,0.0,0.0,0.0,0.0,0.0,0.0,0.0,0.0,0.0,0.0,0.0,0.0,0.0,0.0,0.0,0.0,0.0,0.0,0.0,0.0,0.0,0.0,0.0,0.0,0.0,0.0,0.0,0.0,0.0,0.0,0.0,0.0,0.0,0.0,0.0,0.0,0.0,0.0,0.0,0.0,0.0,0.0,0.0,0.0,0.0,0.0,0.0,0.0,0.0,0.0,0.0,0.0,0.0,0.0,0.0,0.0,0.0,0.0,0.0,0.0,0.0,0.0,0.0,0.0,0.0,0.0,0.0,0.0,0.0,0.0,0.0,0.0,0.0,0.0,0.0,0.0,0.0,0.0,0.0,0.0,0.0,0.0,0.0,0.0,0.0,0.0,0.0,0.0,0.0,0.0,0.0,0.0,0.0,0.0,0.0,0.0,0.0,0.0,0.0,0.0,0.0,0.0,0.0,0.0,0.0,0.0,0.0,0.0,0.0,0.0,0.0,0.0,0.0,0.0,0.0,0.0,0.0,0.0,0.0,0.0,0.0,0.0,0.0,0.0,0.0,0.0,0.0,0.0,0.0,0.0,0.0,0.0,0.0,0.0,0.0,0.0,0.0,0.0,0.0,0.0,0.0,0.0,0.0,0.0,0.0,0.0,0.0,0.0,0.0,0.0,0.0,0.0,0.0,0.0,0.0,0.0,0.0,0.0,0.0,0.0,0.0,0.0,0.0,0.0,0.0,0.0,0.0,0.0,0.0,0.0,0.0,0.0,0.0,0.0,0.0,0.0,0.0,0.0,0.0,0.0,0.0,0.0,0.0,0.0,0.0,0.0,0.0,0.0,0.0,0.0,0.0,0.0,0.0,0.0,0.0,0.0,0.0,0.0,0.0,0.0,0.0,0.0,0.0,0.0,0.0,0.0,0.0,0.0,0.0,0.0,0.0,0.0,0.0,0.0,0.0,0.0,0.0,0.0,0.0,0.0,0.0,0.0,0.0,0.0,0.0,0.0,0.0,0.0,0.0,0.0,0.0,0.0,0.0,0.0,0.0,0.0,0.0,0.0,0.0,0.0,0.0,0.0,0.0,0.0,0.0,0.0,0.0,0.0,0.0,0.0,0.0,0.0,0.0,0.0,0.0,0.0,0.0,0.0,0.0,0.0,0.0,0.0,0.0,0.0,0.0,0.0,0.0,0.0,0.0,0.0,0.0,0.0,0.0,0.0,0.0,0.0,0.0,0.0,0.0,0.0,0.0,0.0,0.0,0.0,0.0,0.0,0.0,0.0,0.0,0.0,0.0,0.0,0.0,0.0,0.0,0.0,0.0,0.0,0.0,0.0,0.0,0.0,0.0,0.0,0.0,0.0,0.0,0.0,0.0,0.0,0.0,0.0,0.0,0.0,0.0,0.0,0.0,0.0,0.0,0.0,0.0,0.0,0.0,0.0,0.0,0.0,0.0,0.0,0.0,0.0,0.0,0.0,0.0,0.0,0.0,0.0,0.0,0.0,0.0,0.0,0.0,0.0,0.0,0.0,0.0,0.0,0.0,0.0,0.0,0.0,0.0,0.0,0.0,0.0,0.0,0.0,0.0,0.0,0.0,0.0,0.0,0.0,0.0,0.0,0.0,0.0,0.0,0.0,0.0,0.0,0.0,0.0,0.0,0.0,0.0,0.0,0.0,0.0,0.0,0.0,0.0,0.0,0.0,0.0,0.0,0.0,0.0,0.0,0.0,0.0,0.0,0.0,0.0,0.0,0.0,0.0,0.0,0.0,0.0,0.0,0.0,0.0,0.0,0.0,0.0,0.0,0.0,0.0,0.0,0.0,0.0,0.0,0.0,0.0,0.0,0.0,0.0,0.0,0.0,0.0,0.0,0.0,0.0,0.0,0.0,0.0,0.0,0.0,0.0,0.0,0.0,0.0,0.0,0.0,0.0,0.0,0.0,0.0,0.0,0.0,0.0,0.0,0.0,0.0,0.0,0.0,0.0,0.0,0.0,0.0,0.0,0.0,0.0,0.0,0.0,0.0,0.0,0.0,0.0,0.0,0.0,0.0,0.0,0.0,0.0,0.0,0.0,0.0,0.0,0.0,0.0,0.0,0.0,0.0,0.0,0.0,0.0,0.0,0.0,0.0,0.0,0.0,0.0,0.0,0.0,0.0,0.0,0.0,0.0,0.0,0.0,0.0,0.0,0.0,0.0,0.0,0.0,0.0,0.0,0.0,0.0,0.0,0.0,0.0,0.0,0.0,0.0,0.0,0.0,0.0,0.0,0.0,0.0,0.0,0.0,0.0,0.0,0.0,0.0,0.0,0.0,0.0,0.0,0.0,0.0,0.0,0.0,0.0,0.0,0.0,0.0,0.0,0.0,0.0,0.0,0.0,0.0,0.0,0.0,0.0,0.0,0.0,0.0,0.0,0.0,0.0,0.0,0.0,0.0,0.0,0.0,0.0,0.0,0.0,0.0,0.0,0.0,0.0,0.0,0.0,0.0,0.0,0.0,0.0,0.0,0.0,0.0,0.0,0.0,0.0,0.0,0.0,0.0,0.0,0.0,0.0,0.0,0.0,0.0,0.0,0.0,0.0,0.0,0.0,0.0,0.0,0.0,0.0,0.0,0.0,0.0,0.0,0.0,0.0,0.0,0.0,0.0,0.0,0.0,0.0,0.0,0.0,0.0,0.0,0.0,0.0,0.0,0.0,0.0,0.0,0.0,0.0,0.0,0.0,0.0,0.0,0.0,0.0,0.0,0.0,0.0,0.0,0.0,0.0,0.0,0.0,0.0,0.0,0.0,0.0,0.0,0.0,0.0,0.0,0.0,0.0,0.0,0.0,0.0,0.0,0.0,0.0,0.0,0.0,0.0,0.0,0.0,0.0,0.0,0.0,0.0,0.0,0.0,0.0,0.0,0.0,0.0,0.0,0.0,0.0,0.0,0.0,0.0,0.0,0.0,0.0,0.0,0.0,0.0,0.0,0.0,0.0,0.0,0.0,0.0,0.0,0.0,0.0,0.0,0.0,0.0,0.0,0.0,0.0,0.0,0.0,0.0,0.0,0.0,0.0,0.0,0.0,0.0,0.0,0.0,0.0,0.0,0.0,0.0,0.0,0.0,0.0,0.0,0.0,0.0,0.0,0.0,0.0,0.0,0.0,0.0,0.0,0.0,0.0,0.0,0.0,0.0,0.0,0.0,0.0,0.0,0.0,0.0,0.0,0.0,0.0,0.0,0.0,0.0,0.0,0.0,0.0,0.0,0.0,0.0,0.0,0.0,0.0,0.0,0.0,0.0,0.0,0.0,0.0,0.0,0.0,0.0,0.0,0.0,0.0,0.0,0.0,0.0,0.0,0.0,0.0,0.0,0.0,0.0,0.0,0.0,0.0,0.0,0.0,0.0,0.0,0.0,0.0,0.0,0.0,0.0,0.0,0.0,0.0,0.0,0.0,0.0,0.0,0.0,0.0,0.0,0.0,0.0,0.0,0.0,0.0,0.0,0.0,0.0,0.0,0.0,0.0,0.0,0.0,0.0,0.0,0.0,0.0,0.0,0.0,0.0,0.0,0.0,0.0,0.0,0.0,0.0,0.0,0.0,0.0,0.0,0.0,0.0,0.0,0.0,0.0,0.0,0.0,0.0,0.0,0.0,0.0,0.0,0.0,0.0,0.0,0.0,0.0,0.0,0.0,0.0,0.0,0.0,0.0,0.0,0.0,0.0,0.0,0.0,0.0,0.0,0.0,0.0,0.0,0.0,0.0,0.0,0.0,0.0,0.0,0.0,0.0,0.0,0.0,0.0,0.0,0.0,0.0,0.0,0.0,0.0,0.0,0.0,0.0,0.0,0.0,0.0,0.0,0.0,0.0,0.0,0.0,0.0,0.0,0.0,0.0,0.0,0.0,0.0,0.0,0.0,0.0,0.0,0.0,0.0,0.0,0.0,0.0,0.0,0.0,0.0,0.0,0.0,0.0,0.0,0.0,0.0,0.0,0.0,0.0,0.0,0.0,0.0,0.0,0.0,0.0,0.0,0.0,0.0,0.0,0.0,0.0,0.0,0.0,0.0,0.0,0.0,0.0,0.0,0.0,0.0,0.0,0.0,0.0,0.0,0.0,0.0,0.0,0.0,0.0,0.0,0.0,0.0,0.0,0.0,0.0,0.0,0.0,0.0,0.0,0.0,0.0,0.0,0.0,0.0,0.0,0.0,0.0,0.0,0.0,0.0,0.0,0.0,0.0,0.0,0.0,0.0,0.0,0.0,0.0,0.0,0.0,0.0,0.0,0.0,0.0,0.0,0.0,0.0,0.0,0.0,0.0,0.0,0.0,0.0,0.0,0.0,0.0,0.0,0.0,0.0,0.0,0.0,0.0,0.0,0.0,0.0,0.0,0.0,0.0,0.0,0.0,0.0,0.0,0.0,0.0,0.0,0.0,0.0,0.0,0.0,0.0,0.0,0.0,0.0,0.0,0.0,0.0,0.0,0.0,0.0,0.0,0.0,0.0,0.0,0.0,0.0,0.0,0.0,0.0,0.0,0.0,0.0,0.0,0.0,0.0,0.0,0.0,0.0,0.0,0.0,0.0,0.0,0.0,0.0,0.0,0.0,0.0,0.0,0.0,0.0,0.0,0.0,0.0,0.0,0.0,0.0,0.0,0.0,0.0,0.0,0.0,0.0,0.0,0.0,0.0,0.0,0.0,0.0,0.0,0.0,0.0,0.0,0.0,0.0,0.0,0.0,0.0,0.0,0.0,0.0,0.0,0.0,0.0,0.0,0.0,0.0,0.0,0.0,0.0,0.0,0.0,0.0,0.0,0.0,0.0,0.0,0.0,0.0,0.0,0.0,0.0,0.0,0.0,0.0,0.0,0.0,0.0,0.0,0.0,0.0,0.0,0.0,0.0,0.0,0.0,0.0,0.0,0.0,0.0,0.0,0.0,0.0,0.0,0.0,0.0,0.0,0.0,0.0,0.0,0.0,0.0,0.0,0.0,0.0,0.0,0.0,0.0,0.0,0.0,0.0,0.0,0.0,0.0,0.0,0.0,0.0,0.0,0.0,0.0,0.0,0.0,0.0,0.0,0.0,0.0,0.0,0.0,0.0,0.0,0.0,0.0,0.0,0.0,0.0,0.0,0.0,0.0,0.0,0.0,0.0,0.0,0.0,0.0,0.0,0.0,0.0,0.0,0.0,0.0,0.0,0.0,0.0,0.0,0.0,0.0,0.0,0.0,0.0,0.0,0.0,0.0,0.0,0.0,0.0,0.0,0.0,0.0,0.0,0.0,0.0,0.0,0.0,0.0,0.0,0.0,0.0,0.0,0.0,0.0,0.0,0.0,0.0,0.0,0.0,0.0,0.0,0.0,0.0,0.0,0.0,0.0,0.0,0.0,0.0,0.0,0.0,0.0,0.0,0.0,0.0,0.0,0.0,0.0,0.0,0.0,0.0,0.0,0.0,0.0,0.0,0.0,0.0,0.0,0.0,0.0,0.0,0.0,0.0,0.0,0.0,0.0,0.0,0.0,0.0,0.0,0.0,0.0,0.0,0.0,0.0,0.0,0.0,0.0,0.0,0.0,0.0,0.0,0.0,0.0,0.0,0.0,0.0,0.0,0.0,0.0,0.0,0.0,0.0,0.0,0.0,0.0,0.0,0.0,0.0,0.0,0.0,0.0,0.0,0.0,0.0,0.0,0.0,0.0,0.0,0.0,0.0,0.0,0.0,0.0,0.0,0.0,0.0,0.0,0.0,0.0,0.0,0.0,0.0,0.0,0.0,0.0,0.0,0.0,0.0,0.0,0.0,0.0,0.0,0.0,0.0,0.0,0.0,0.0,0.0,0.0,0.0,0.0,0.0,0.0,0.0,0.0,0.0,0.0,0.0,0.0,0.0,0.0,0.0,0.0,0.0,0.0,0.0,0.0,0.0,0.0,0.0,0.0,-3.6952,0.0,0.0,0.0,0.0,0.0,0.0,0.0,0.0,0.0,0.0,0.0,0.0,0.0,0.0,0.0,0.0,0.0,0.0,0.0,0.0,0.0,0.0,0.0,0.0,0.0,0.0,0.0,0.0,0.0,0.0,0.0,0.0,0.0,0.0,0.0,0.0,0.0,0.0,0.0,0.0,0.0,0.0,0.0,0.0,0.0,0.0,0.0,0.0,0.0,0.0,0.0,0.0,0.0,0.0,0.0,0.0,0.0,0.0,0.0,0.0,0.0,0.0,0.0,0.0,0.0,0.0,0.0,0.0,0.0,0.0,0.0,0.0,0.0,0.0,0.0,0.0,0.0,0.0,0.0,0.0,0.0,0.0,0.0,0.0,0.0,0.0,0.0,0.0,0.0,0.0,0.0,0.0,0.0,0.0,0.0,0.0,0.0,0.0,0.0,0.0,0.0,0.0,0.0,0.0,0.0,0.0,0.0,0.0,0.0,0.0,0.0,0.0,0.0,0.0,0.0,0.0,-3.6708,0.0,0.0,0.0,0.0,0.0,0.0,0.0,0.0,0.0,0.0,0.0,0.0,0.0,0.0,0.0,0.0,0.0,0.0,0.0,0.0,0.0,0.0,0.0,0.0,0.0,0.0,0.0,0.0,0.0,0.0,0.0,0.0,0.0,0.0,0.0,0.0,0.0,0.0,0.0,0.0,0.0,0.0,0.0,0.0,0.0,0.0,0.0,0.0,0.0,0.0,0.0,0.0,0.0,0.0,0.0,0.0,0.0,0.0,0.0,0.0,0.0,0.0,0.0,0.0,0.0,0.0,0.0,0.0,0.0,0.0,0.0,0.0,0.0,0.0,0.0,0.0,0.0,0.0,0.0,0.0,0.0,0.0,0.0,0.0,0.0,0.0,0.0,0.0,0.0,0.0,0.0,0.0,0.0,0.0,0.0,0.0,0.0,0.0,0.0,0.0,0.0,0.0,0.0,0.0,0.0,0.0,0.0,0.0,-3.6179,-3.6179,-3.6148,-3.6053,-3.6005,-3.6005,-3.6289,-3.6429,-3.6429,0.0,0.0,0.0,0.0,0.0,0.0,0.0,0.0,0.0,0.0,0.0,0.0,0.0,0.0,0.0,0.0,0.0,0.0,0.0,0.0,0.0,0.0,0.0,0.0,0.0,0.0,0.0,0.0,0.0,0.0,0.0,0.0,0.0,0.0,0.0,0.0,0.0,0.0,0.0,-3.4564,-3.4564,-3.4564,-3.4605,-3.5345,0.0,0.0,0.0,0.0,0.0,0.0,0.0,0.0,0.0,0.0,0.0,0.0,0.0,0.0,0.0,0.0,0.0,0.0,0.0,0.0,0.0,0.0,0.0,0.0,0.0,0.0,0.0,0.0,0.0,0.0,0.0,0.0,0.0,0.0,0.0,0.0,0.0,0.0,0.0,0.0,0.0,0.0,0.0,-3.6037,-3.6037,0.0,0.0,0.0,0.0,0.0,0.0,0.0,0.0,0.0,0.0,0.0,0.0,0.0,0.0,-3.6037,-3.6037,-3.6037,-3.6037,-3.6037,-3.6037,-3.6037,-3.6005,-3.6005,-3.6005,-3.6037,0.0,-3.6068,-3.6179,0.0,0.0,0.0,0.0,0.0,0.0,0.0,0.0,0.0,0.0,0.0,0.0,0.0,0.0,0.0,0.0,0.0,0.0,0.0,0.0,0.0,0.0,0.0,0.0,0.0,0.0,0.0,0.0,0.0,0.0,0.0,0.0,0.0,0.0,0.0,0.0,-3.4021,-3.4021,-3.4021,-3.4021,-3.4105,-3.4243,-3.4605,-3.5018,-3.5358,-3.5358,0.0,0.0,0.0,0.0,0.0,0.0,0.0,0.0,0.0,0.0,0.0,0.0,0.0,0.0,0.0,0.0,0.0,0.0,0.0,0.0,0.0,0.0,0.0,0.0,0.0,0.0,0.0,0.0,0.0,0.0,0.0,0.0,0.0,0.0,0.0,0.0,0.0,0.0,0.0,-3.5941,-3.5973,-3.5831,-3.5941,-3.6005,0.0,0.0,0.0,0.0,0.0,0.0,0.0,0.0,0.0,-3.6005,-3.5894,-3.5831,-3.5831,-3.5831,-3.5831,-3.5831,-3.5831,-3.5831,-3.5831,-3.5765,-3.5716,-3.5716,-3.5716,-3.5716,-3.5748,-3.6005,-3.6085,-3.6024,0.0,0.0,0.0,0.0,0.0,-3.2178,0.0,0.0,0.0,0.0,0.0,0.0,0.0,0.0,0.0,0.0,0.0,0.0,0.0,0.0,0.0,-3.5638,0.0,0.0,0.0,0.0,0.0,0.0,0.0,0.0,0.0,0.0,0.0,-3.3713,-3.3713,-3.3713,-3.3713,-3.3713,-3.381,-3.3992,-3.3992,-3.4327,-3.4908,-3.4908,-3.51,0.0,0.0,0.0,0.0,0.0,0.0,0.0,0.0,0.0,0.0,0.0,0.0,0.0,0.0,0.0,0.0,0.0,0.0,0.0,0.0,0.0,0.0,0.0,0.0,0.0,0.0,0.0,0.0,0.0,0.0,0.0,0.0,0.0,0.0,0.0,0.0,0.0,0.0,-3.5782,-3.5814,-3.5671,-3.5782,-3.5861,0.0,0.0,0.0,0.0,0.0,0.0,-3.5861,-3.5861,-3.5861,-3.5861,-3.5883,-3.5894,-3.5894,-3.6045,-3.612,-3.612,-3.612,-3.6045,-3.5894,-3.5794,-3.5669,-3.5504,-3.5504,-3.5504,-3.5537,-3.5829,-3.5926,-3.5866,-3.523,-3.4714,-3.4152,-3.3469,-3.2907,-3.2497,0.0,0.0,0.0,0.0,0.0,0.0,0.0,0.0,0.0,0.0,0.0,0.0,0.0,0.0,-3.5638,-3.5537,-3.4791,-3.4041,0.0,0.0,0.0,0.0,0.0,0.0,0.0,0.0,0.0,-3.3713,-3.3713,-3.3713,-3.3713,-3.3713,-3.3713,-3.3713,-3.3713,-3.3979,-3.4439,-3.4439,-3.4439,-3.4481,0.0,0.0,0.0,0.0,0.0,0.0,0.0,0.0,0.0,0.0,0.0,0.0,0.0,0.0,0.0,0.0,0.0,0.0,0.0,0.0,0.0,0.0,0.0,0.0,0.0,0.0,0.0,0.0,0.0,0.0,0.0,0.0,0.0,0.0,0.0,0.0,0.0,0.0,0.0,-3.5504,-3.5537,0.0,0.0,0.0,0.0,-3.5537,-3.5537,-3.5537,-3.5537,-3.5537,-3.5537,-3.5537,-3.6136,-3.6465,-3.6465,-3.7015,-3.73,-3.73,-3.73,-3.7,-3.6465,-3.6465,-3.6088,-3.5504,-3.5504,-3.5504,-3.5504,-3.5653,-3.572,-3.5659,-3.5198,-3.4987,-3.4866,-3.4137,-3.3818,-3.3788,0.0,0.0,0.0,0.0,0.0,0.0,0.0,0.0,0.0,0.0,0.0,0.0,0.0,-3.5621,-3.5554,-3.5504,-3.5246,-3.4476,-3.308,0.0,0.0,0.0,0.0,0.0,0.0,0.0,-3.3441,-3.3313,-3.3313,-3.3313,-3.3313,-3.3313,-3.3398,-3.3513,-3.3513,-3.3683,-3.3979,-3.4147,-3.4202,-3.4243,-3.4356,-3.4481,0.0,0.0,0.0,0.0,0.0,0.0,0.0,0.0,0.0,0.0,0.0,0.0,0.0,0.0,0.0,0.0,0.0,0.0,0.0,0.0,0.0,0.0,0.0,0.0,0.0,0.0,0.0,0.0,0.0,0.0,0.0,0.0,0.0,0.0,0.0,0.0,0.0,-3.5504,-3.5504,0.0,-3.5504,-3.5504,-3.5439,-3.5307,-3.5837,-3.6097,-3.5972,-3.6446,-3.648,-3.5952,-3.6172,-3.6029,-3.5468,-3.5683,-3.6086,-3.6611,-3.6611,-3.6788,-3.7075,-3.7075,-3.6731,-3.6133,-3.6133,-3.5893,-3.5504,-3.5554,-3.5572,-3.5512,-3.49,-3.466,-3.4585,-3.3908,-3.3622,-3.3622,0.0,0.0,0.0,0.0,0.0,0.0,0.0,0.0,0.0,0.0,0.0,-3.5688,-3.5653,-3.5539,-3.5504,-3.5504,-3.5439,-3.4706,-3.3031,0.0,0.0,0.0,0.0,0.0,0.0,-3.3182,-3.324,-3.3124,-3.3124,-3.3124,-3.3124,-3.3124,-3.3255,-3.3561,-3.3561,-3.3736,-3.403,-3.4097,-3.4075,-3.3979,-3.4189,-3.4314,-3.4314,0.0,0.0,0.0,0.0,0.0,0.0,0.0,0.0,0.0,0.0,0.0,0.0,0.0,0.0,0.0,0.0,0.0,0.0,0.0,0.0,0.0,0.0,0.0,0.0,0.0,0.0,0.0,0.0,0.0,0.0,0.0,0.0,0.0,0.0,0.0,-3.4894,-3.5396,-3.5177,-3.5198,-3.567,-3.5467,-3.5355,-3.552,-3.5808,-3.6032,-3.6193,-3.642,-3.6299,-3.5762,-3.5963,-3.5821,-3.5237,-3.5447,-3.6023,-3.6874,-3.6874,-3.7046,-3.7336,-3.7336,-3.6724,-3.5707,-3.5927,-3.5558,-3.4754,-3.4986,-3.4953,-3.471,-3.4499,-3.4594,-3.4771,-3.404,-3.3767,-3.3735,0.0,0.0,0.0,0.0,0.0,0.0,0.0,0.0,0.0,0.0,-3.5831,-3.5638,-3.5504,-3.5504,-3.5504,-3.5504,-3.5326,-3.4524,-3.2996,-3.2804,0.0,0.0,0.0,0.0,-3.2215,-3.278,-3.3124,-3.3124,-3.3124,-3.3124,-3.3124,-3.3124,-3.337,-3.3872,-3.3872,-3.4173,-3.4638,-3.4319,-3.3979,-3.3725,-3.3992,-3.4076,-3.4118,0.0,0.0,0.0,0.0,0.0,0.0,0.0,0.0,0.0,0.0,0.0,0.0,0.0,0.0,0.0,0.0,0.0,0.0,0.0,0.0,0.0,0.0,0.0,0.0,0.0,0.0,0.0,0.0,0.0,0.0,0.0,0.0,0.0,-3.3101,-3.3171,-3.3712,-3.5108,-3.4583,-3.466,-3.6006,-3.5384,-3.5252,-3.6122,-3.5419,-3.5323,-3.6194,-3.5447,-3.499,-3.4952,-3.5535,-3.5881,-3.5843,-3.6469,-3.7256,-3.8089,-3.8089,-3.7779,-3.7193,-3.7157,-3.6063,-3.4197,-3.4874,-3.4431,-3.3276,-3.3973,-3.3837,-3.3283,-3.3993,-3.4758,-3.5326,-3.4576,-3.4279,-3.4177,0.0,0.0,0.0,0.0,0.0,0.0,0.0,0.0,0.0,0.0,-3.5733,-3.5554,-3.5504,-3.5504,-3.5504,-3.5504,-3.5326,-3.4491,-3.2784,0.0,0.0,0.0,0.0,0.0,-3.2215,-3.278,-3.3124,-3.3124,-3.3124,-3.3124,-3.3124,-3.3124,-3.3156,-3.3307,-3.3307,-3.3382,-3.3545,-3.3872,-3.3701,-3.3313,-3.3641,-3.3937,-3.4118,0.0,0.0,0.0,0.0,0.0,0.0,0.0,0.0,0.0,0.0,0.0,0.0,0.0,0.0,0.0,0.0,0.0,0.0,0.0,0.0,0.0,0.0,0.0,0.0,0.0,0.0,0.0,0.0,0.0,0.0,0.0,0.0,-3.1802,-3.2465,-3.2992,-3.3637,-3.4482,-3.4492,-3.4599,-3.5003,-3.4831,-3.4968,-3.565,-3.59,-3.6341,-3.7041,-3.7014,-3.6645,-3.5885,-3.5614,-3.5103,-3.4316,-3.4474,-3.5033,-3.5869,-3.5869,-3.621,-3.6757,-3.6561,-3.6063,-3.5358,-3.4983,-3.445,-3.3845,-3.3606,-3.3388,-3.3283,-3.3993,-3.4109,-3.3851,-3.4177,-3.3973,-3.3388,0.0,0.0,0.0,0.0,0.0,0.0,0.0,0.0,0.0,0.0,-3.5765,-3.5554,-3.5504,-3.5504,-3.5504,-3.5504,-3.5261,-3.4491,-3.3199,0.0,0.0,0.0,0.0,-3.2222,-3.1863,-3.2667,-3.3124,-3.3124,-3.3124,-3.3124,-3.3124,-3.3124,-3.3206,-3.342,-3.342,-3.3545,-3.3784,-3.411,-3.406,-3.3815,-3.4009,-3.3977,-3.3823,-3.3907,-3.4063,-3.4285,-3.4285,-3.4314,-3.4397,-3.4397,0.0,0.0,0.0,0.0,0.0,0.0,0.0,0.0,0.0,0.0,0.0,0.0,0.0,0.0,0.0,0.0,0.0,0.0,0.0,0.0,0.0,0.0,0.0,0.0,-3.0992,-3.1594,-3.2497,-3.2737,-3.3265,-3.4463,-3.4362,-3.4551,-3.5355,-3.5143,-3.5196,-3.5893,-3.5988,-3.6352,-3.7037,-3.6911,-3.6404,-3.5545,-3.5189,-3.4607,-3.3725,-3.3713,-3.415,-3.4979,-3.4979,-3.5346,-3.5935,-3.5762,-3.5329,0.0,-3.4315,-3.3714,-3.2878,-3.2681,-3.2448,0.0,0.0,0.0,0.0,0.0,-3.3094,-3.2613,0.0,0.0,0.0,0.0,0.0,0.0,0.0,0.0,0.0,0.0,0.0,-3.5638,-3.5522,-3.5504,-3.5504,-3.5504,-3.5148,-3.4639,0.0,0.0,0.0,-3.1286,-3.2136,-3.2287,-3.1637,-3.2613,-3.3124,-3.3124,-3.3124,-3.3124,-3.3124,-3.3124,-3.3332,-3.3809,-3.3809,-3.411,-3.4625,-3.4655,-3.468,-3.4726,-3.4788,-3.4281,-3.353,-3.3688,-3.3861,-3.4034,-3.4034,-3.416,-3.4314,-3.4314,0.0,0.0,0.0,0.0,0.0,0.0,0.0,0.0,0.0,0.0,0.0,0.0,0.0,0.0,0.0,0.0,0.0,0.0,0.0,0.0,0.0,0.0,0.0,0.0,-3.1307,-3.1926,-3.2973,-3.2663,-3.2954,-3.4741,-3.4328,-3.4547,-3.6256,-3.5802,-3.5696,-3.6528,-3.5893,-3.5799,-3.6634,0.0,0.0,0.0,0.0,-3.4297,-3.3743,-3.3666,-3.4037,-3.4787,-3.4787,-3.4787,-3.4828,-3.4787,-3.4125,-3.3024,-3.3251,-3.2594,-3.1331,-3.16,-3.1299,-3.0761,-3.1589,-3.2412,-3.2967,-3.2232,-3.1942,0.0,0.0,0.0,0.0,0.0,0.0,0.0,0.0,0.0,0.0,-3.6981,-3.6196,-3.5688,-3.5671,-3.5572,-3.5504,-3.5504,-3.5294,-3.4983,0.0,0.0,-3.2559,-3.3526,-3.2926,-3.2736,-3.3083,-3.3098,-3.3124,-3.3124,-3.3124,-3.3124,-3.3124,-3.3124,-3.3174,-3.3232,-3.3232,-3.3545,-3.4085,-3.4537,-3.468,-3.4718,-3.5157,-3.4803,-3.4071,-3.4101,-3.3951,-3.3768,-3.3768,-3.381,-3.3839,-3.3839,-3.3839,-3.3839,-3.381,0.0,0.0,0.0,0.0,0.0,0.0,0.0,0.0,0.0,0.0,0.0,0.0,0.0,0.0,0.0,0.0,0.0,0.0,0.0,0.0,-3.1254,-3.2131,-3.2872,-3.3086,-3.3746,-3.4325,-3.4717,-3.48,-3.4978,-3.536,-3.5264,-3.55,-3.6283,-3.5993,-3.6151,-3.6967,-3.6443,0.0,-3.5658,-3.4749,-3.4141,-3.3865,-3.3411,-3.3313,-3.3471,0.0,0.0,-3.3713,-3.3556,-3.3505,-3.3533,-3.2928,-3.2418,-3.1907,-3.1461,-3.0958,-3.0482,-3.0823,-3.1529,-3.2182,-3.1283,-3.1086,-3.1185,0.0,0.0,0.0,0.0,0.0,0.0,0.0,0.0,0.0,0.0,-3.6859,-3.6352,-3.6181,-3.5816,-3.5572,-3.5504,-3.5326,0.0,0.0,-3.3928,-3.3677,-3.4298,-3.3991,-3.3709,-3.3483,-3.3682,-3.3539,-3.3124,-3.3124,-3.3124,-3.3124,-3.3124,-3.3124,-3.3124,-3.337,-3.3646,-3.396,-3.4776,-3.5094,-3.5144,-3.573,-3.5336,-3.4407,-3.4174,-3.3837,-3.3556,-3.3556,-3.3598,-3.3713,-3.3713,-3.3713,-3.367,-3.3598,-3.3471,-3.3398,0.0,0.0,0.0,0.0,0.0,0.0,0.0,0.0,0.0,0.0,0.0,0.0,0.0,0.0,-3.067,0.0,0.0,-3.1599,-3.2152,-3.293,-3.3684,-3.4236,-3.4743,-3.5094,-3.5094,-3.5231,-3.5436,-3.5713,-3.5739,-3.5932,-3.6303,-3.6223,-3.6337,-3.6722,-3.6515,-3.6143,-3.5726,-3.4873,-3.4262,-3.3897,-3.3357,-3.3124,-3.3124,-3.3124,-3.3154,-3.324,-3.3154,-3.3197,-3.3373,-3.2773,-3.2367,-3.2092,-3.1361,-3.0726,-3.0254,-3.0343,-3.0735,-3.1182,-3.0697,-3.0685,-3.0849,0.0,0.0,0.0,0.0,0.0,0.0,0.0,0.0,0.0,0.0,-3.7674,-3.71,-3.6707,-3.6181,-3.5784,0.0,0.0,0.0,0.0,-3.4817,-3.4758,-3.4775,-3.4963,-3.4734,-3.402,-3.429,-3.4076,-3.3368,-3.3197,-3.3124,-3.3124,-3.3124,-3.3174,-3.3257,-3.3709,-3.4022,-3.4274,-3.5119,-3.5558,-3.5683,-3.6069,-3.5604,-3.4618,-3.411,-3.3676,-3.3356,-3.3356,-3.3441,-3.3598,-3.3598,-3.3598,-3.3556,-3.3398,-3.3356,-3.3313,-3.3154,-3.3124,0.0,0.0,0.0,0.0,0.0,0.0,0.0,0.0,0.0,-3.2215,-3.2215,-3.1775,-3.1424,-3.1537,-3.2001,-3.2566,-3.3144,-3.3796,-3.4525,-3.537,-3.5596,-3.5658,-3.5658,-3.5658,-3.5881,-3.6367,-3.6405,-3.6405,-3.6405,-3.6405,-3.6405,-3.6405,-3.6405,-3.6157,-3.5671,-3.5019,-3.4512,-3.406,-3.3407,-3.3124,-3.3124,-3.3124,-3.3124,-3.3124,-3.3124,-3.3124,-3.3086,-3.2647,-3.2353,-3.2127,-3.1208,-3.0567,-3.0201,-3.0087,-3.0152,-3.0292,-3.033,-3.0457,-3.0609,0.0,0.0,0.0,0.0,0.0,0.0,0.0,0.0,0.0,0.0,0.0,0.0,0.0,0.0,0.0,0.0,0.0,0.0,-3.518,-3.4983,-3.5148,-3.5727,-3.5432,-3.5446,-3.5877,-3.4915,-3.4356,-3.4272,-3.3496,-3.3124,-3.3124,-3.3124,-3.3332,-3.3809,-3.3872,-3.4449,-3.532,-3.5445,-3.583,-3.6279,-3.5805,-3.5219,-3.4618,-3.411,-3.3602,-3.3111,-3.3111,-3.3154,-3.3154,-3.3154,-3.3154,-3.3154,-3.3154,-3.3111,-3.3111,-3.3124,0.0,-3.3124,-3.3124,-3.3124,-3.3124,-3.3124,-3.3124,-3.3124,0.0,0.0,-3.2215,-3.2215,-3.1775,-3.1537,-3.2026,-3.2591,-3.3169,-3.3721,-3.4675,-3.5357,-3.5483,-3.5968,-3.6317,-3.6317,-3.6317,-3.6342,-3.6405,-3.6405,-3.6405,-3.6405,-3.6405,-3.6405,-3.6405,-3.6405,-3.638,-3.6317,-3.5265,-3.4688,-3.4625,-3.3596,-3.3124,-3.3124,-3.3124,-3.3124,-3.3124,-3.3124,-3.3124,-3.3086,-3.2466,-3.2215,-3.2127,-3.106,-3.0622,-3.0522,-3.0019,-2.9869,-2.9908,-3.0075,-3.0254,-3.0444,0.0,0.0,0.0,0.0,0.0,0.0,0.0,0.0,0.0,0.0,0.0,0.0,0.0,0.0,0.0,0.0,0.0,0.0,-3.5359,-3.518,-3.5363,-3.6048,-3.5784,-3.587,-3.6367,-3.5773,-3.5369,-3.5278,-3.4787,-3.4317,-3.3865,-3.3865,-3.3875,-3.3909,-3.4236,-3.4625,-3.5044,-3.5357,-3.5445,-3.5391,-3.5165,-3.4693,-3.4223,-3.3985,-3.3558,-3.3124,-3.3124,-3.3124,0.0,0.0,-3.3124,-3.3124,-3.3124,-3.3124,-3.3124,-3.3124,-3.3124,0.0,-3.3124,-3.3124,-3.3124,-3.3124,-3.3124,-3.3124,-3.3124,-3.288,-3.2717,-3.2717,-3.2528,-3.2441,-3.2667,-3.3181,-3.3734,0.0,-3.4994,-3.5608,-3.5968,-3.6267,-3.6405,-3.6405,-3.6405,-3.6405,-3.6405,-3.6405,-3.6405,-3.6405,-3.6405,-3.6405,-3.6405,-3.6405,-3.6405,-3.6405,-3.529,-3.468,-3.468,-3.3633,-3.3124,-3.3124,-3.3124,-3.3124,-3.3124,-3.3124,-3.3124,-3.3111,-3.2817,-3.2516,-3.2177,-3.1738,-3.1173,-3.0595,-3.0357,-3.0068,-2.9792,-2.9908,-3.0049,-3.0228,0.0,0.0,0.0,0.0,0.0,0.0,0.0,0.0,0.0,0.0,0.0,0.0,0.0,0.0,0.0,0.0,0.0,0.0,0.0,-3.5409,-3.5553,-3.5978,-3.5988,-3.6113,-3.6396,-3.6165,-3.6047,-3.6083,-3.5689,-3.5305,-3.4883,-3.4855,-3.4798,-3.4818,-3.5156,-3.525,-3.5251,-3.5659,-3.5473,-3.4893,-3.4729,-3.4439,-3.4048,-3.3732,-3.3455,-3.324,-3.3154,-3.3124,0.0,0.0,-3.3124,-3.3124,-3.3124,-3.3124,-3.3124,-3.3124,-3.3124,-3.3124,-3.3124,-3.3124,-3.3124,-3.3124,-3.3124,-3.3124,-3.3124,-3.3124,-3.3124,-3.3124,-3.3124,-3.3124,-3.3124,-3.3658,-3.4261,-3.4663,-3.5316,-3.5906,-3.6355,-3.6405,-3.6405,-3.6405,-3.6405,-3.6405,-3.6405,-3.6405,-3.6405,-3.6405,-3.6405,-3.6405,-3.6405,-3.6405,-3.6405,-3.6405,-3.5441,-3.4831,-3.468,-3.3771,-3.3275,-3.3124,-3.3124,-3.3124,-3.3124,-3.3124,-3.3124,-3.3124,-3.3124,-3.283,-3.2441,-3.2277,-3.1763,-3.1022,-3.0733,-3.0369,-2.9993,-2.9842,-2.9908,-3.0011,0.0,0.0,0.0,0.0,0.0,0.0,0.0,0.0,0.0,0.0,0.0,0.0,0.0,0.0,0.0,0.0,0.0,0.0,0.0,-3.5688,-3.5653,-3.5534,-3.5952,-3.6208,-3.6219,-3.5811,-3.5909,-3.6499,-3.569,-3.5581,-3.6132,-3.5961,-3.625,-3.6988,-3.6839,-3.6668,-3.6552,-3.6578,-3.6127,-3.5347,-3.4796,-3.4566,-3.4481,-3.335,-3.3248,-3.3641,-3.324,0.0,0.0,0.0,-3.3124,-3.3124,-3.3124,-3.3124,0.0,-3.3124,-3.3124,0.0,0.0,0.0,-3.3124,-3.3124,-3.3124,-3.3124,-3.3124,-3.3124,-3.3124,-3.3124,-3.3124,-3.3124,-3.3124,-3.396,-3.4655,-3.468,-3.5629,-3.6392,-3.6405,-3.6405,-3.6405,-3.6405,-3.6405,-3.6405,0.0,-3.6405,-3.6405,-3.6405,-3.6405,-3.6405,-3.6405,-3.6405,-3.6405,-3.6405,-3.5818,-3.5219,-3.4726,-3.4161,-3.3608,-3.3124,-3.3124,-3.3124,-3.3124,-3.3124,-3.3124,-3.3124,-3.3124,-3.3111,-3.3048,-3.2441,-3.219,-3.2064,-3.1022,-3.0608,-3.052,-2.9993,-2.9792,-2.9792,0.0,0.0,0.0,0.0,0.0,0.0,0.0,0.0,0.0,0.0,0.0,0.0,0.0,0.0,0.0,0.0,0.0,0.0,0.0,-3.6133,-3.5878,-3.5829,-3.5961,-3.6195,-3.6514,-3.6255,-3.6358,-3.6913,-3.649,-3.6141,-3.5808,-3.6155,-3.6367,-3.6451,-3.6823,-3.6989,-3.692,-3.692,-3.6306,-3.5305,-3.5157,-3.4794,-3.4285,-3.337,-3.3145,-3.3275,0.0,0.0,0.0,0.0,0.0,0.0,-3.3124,0.0,0.0,-3.3124,0.0,0.0,0.0,0.0,-3.3212,-3.3533,-3.3345,-3.3169,-3.3533,-3.3345,-3.3124,-3.3124,-3.3124,-3.3124,-3.3124,-3.3684,-3.4299,-3.4618,-3.5341,-3.5943,-3.6355,-3.6405,-3.6405,-3.6405,-3.6405,0.0,0.0,0.0,0.0,-3.6405,-3.6405,-3.6405,-3.6405,-3.6405,-3.6405,-3.6405,-3.583,-3.5408,-3.5219,-3.468,-3.4173,-3.3621,-3.3257,-3.3124,-3.3124,-3.3124,-3.3124,-3.3124,-3.3124,-3.3124,-3.3056,-3.2867,-3.2554,-3.2177,-3.1813,-3.1235,-3.0595,-3.0407,-3.0105,-2.9792,0.0,0.0,0.0,0.0,0.0,0.0,0.0,0.0,0.0,0.0,0.0,0.0,0.0,0.0,0.0,0.0,0.0,0.0,0.0,0.0,-3.6677,-3.6646,-3.6445,-3.6457,-3.6774,-3.6433,-3.6484,-3.6939,-3.6837,-3.658,-3.6243,-3.6555,-3.6653,-3.6576,-3.6949,-3.6979,-3.6771,-3.6771,-3.6168,-3.5138,-3.5138,-3.4903,-3.443,-3.3745,-3.3596,0.0,0.0,0.0,0.0,0.0,0.0,0.0,0.0,0.0,0.0,0.0,0.0,0.0,0.0,-3.337,-3.3508,-3.406,-3.3922,-3.3709,-3.3872,-3.3621,-3.3319,-3.3162,-3.3124,-3.3124,-3.3124,-3.3533,-3.401,-3.4374,-3.5019,-3.5621,-3.6019,-3.6279,-3.6405,-3.6405,-3.6405,-3.6405,0.0,0.0,0.0,-3.6405,-3.6405,-3.6405,-3.6405,-3.6405,-3.6405,-3.6405,-3.6019,-3.5696,-3.5495,-3.5144,-3.4638,-3.3897,-3.3533,-3.3269,-3.3124,-3.3124,-3.3124,-3.3124,-3.3124,-3.3124,-3.3124,-3.3124,-3.2855,-3.2503,-3.229,-3.1675,-3.0871,-3.0683,-3.0269,-2.9792,0.0,0.0,0.0,0.0,0.0,0.0,0.0,0.0,0.0,0.0,0.0,0.0,0.0,0.0,0.0,0.0,0.0,0.0,0.0,0.0,0.0,-3.7835,-3.728,-3.6981,-3.6951,-3.6383,-3.6277,-3.67,-3.6667,-3.6884,-3.7315,-3.7188,-3.7203,-3.736,-3.7198,-3.6816,-3.6257,-3.6257,-3.5784,-3.4975,-3.4975,-3.4947,-3.4862,-3.4309,0.0,0.0,0.0,0.0,0.0,0.0,0.0,0.0,0.0,0.0,0.0,0.0,0.0,-3.3232,-3.3759,-3.3922,-3.4073,-3.4625,-3.4705,-3.4587,-3.406,-3.3922,-3.3746,-3.3194,-3.3124,-3.3124,0.0,0.0,-3.3872,-3.3897,-3.4731,-3.5433,-3.5495,-3.5994,-3.638,0.0,0.0,0.0,0.0,0.0,0.0,-3.6405,0.0,-3.6405,-3.6405,-3.6405,-3.6405,-3.6405,-3.6405,-3.6119,-3.5545,-3.552,-3.4969,-3.3985,-3.3922,-3.3621,-3.3162,-3.3093,-3.3124,-3.3124,-3.3124,-3.3124,-3.3124,-3.3124,-3.3124,-3.3018,-3.2466,-3.1913,-3.1373,-3.0846,-3.0306,-2.9829,0.0,0.0,0.0,0.0,0.0,0.0,0.0,0.0,0.0,0.0,0.0,0.0,0.0,0.0,0.0,0.0,0.0,0.0,0.0,0.0,0.0,0.0,0.0,0.0,0.0,0.0,0.0,0.0,-3.6407,-3.6258,-3.636,-3.6824,-3.6984,-3.6884,-3.7346,-3.7385,-3.708,-3.708,-3.6709,-3.6109,0.0,-3.5781,-3.5257,0.0,0.0,0.0,0.0,0.0,0.0,0.0,0.0,0.0,0.0,-3.3283,-3.3124,0.0,0.0,-3.3721,-3.3859,-3.4198,-3.4605,-3.5157,-3.4981,-3.4643,-3.455,-3.4198,-3.3746,-3.3194,-3.3124,-3.3124,0.0,0.0,0.0,-3.3834,-3.4135,0.0,-3.5382,-3.5621,0.0,-3.6367,0.0,-3.6405,-3.6405,-3.6405,0.0,0.0,-3.6405,-3.6405,-3.6405,-3.6405,-3.6405,-3.6405,-3.6405,-3.6342,-3.6157,-3.5696,-3.5357,-3.5069,-3.4299,-3.3822,-3.3671,-3.3269,-3.3124,-3.3124,-3.3124,-3.3124,-3.3124,-3.3124,-3.3124,-3.3056,-3.2918,-3.2503,-3.1938,-3.1386,-3.0859,-3.0344,0.0,0.0,0.0,0.0,0.0,0.0,0.0,0.0,0.0,0.0,0.0,0.0,0.0,0.0,0.0,0.0,0.0,0.0,0.0,0.0,0.0,0.0,0.0,0.0,0.0,0.0,0.0,0.0,0.0,0.0,-3.6383,-3.6783,-3.6744,-3.6403,-3.6799,-3.6899,-3.6785,-3.6785,0.0,0.0,0.0,0.0,0.0,0.0,0.0,0.0,0.0,0.0,0.0,0.0,0.0,-3.4955,-3.4184,-3.3869,-3.3764,-3.353,0.0,-3.401,-3.4487,-3.4806,-3.5169,-3.5768,-3.5667,-3.5316,-3.4826,-3.4487,-3.4035,-3.3244,-3.3124,0.0,-3.3124,-3.3124,0.0,0.0,0.0,0.0,-3.5019,-3.5345,-3.5696,0.0,-3.6405,0.0,-3.6405,-3.6405,-3.6405,0.0,-3.6405,-3.6405,-3.6405,-3.6405,-3.6405,-3.6405,-3.6405,-3.6405,-3.6405,-3.6056,-3.578,-3.5495,-3.4675,-3.4135,-3.3884,-3.3332,-3.3124,-3.3124,0.0,-3.3124,-3.3124,-3.3124,-3.3124,-3.3124,-3.3124,-3.2717,-3.2177,-3.1863,-3.1411,-3.0871,0.0,0.0,0.0,0.0,0.0,0.0,0.0,0.0,0.0,0.0,0.0,0.0,0.0,0.0,0.0,0.0,0.0,0.0,0.0,0.0,0.0,0.0,0.0,0.0,0.0,0.0,0.0,0.0,0.0,0.0,0.0,0.0,0.0,0.0,0.0,0.0,0.0,0.0,0.0,0.0,0.0,0.0,0.0,0.0,0.0,0.0,0.0,0.0,0.0,0.0,-3.6033,-3.5669,-3.5023,-3.4762,-3.4616,-3.4232,-3.4079,-3.4236,-3.5219,-3.5558,-3.5768,-3.6292,-3.6355,-3.5981,-3.4951,-3.4618,-3.4324,-3.3294,0.0,-3.3124,-3.3124,-3.3124,-3.3124,-3.3124,0.0,-3.3985,-3.4537,-3.5044,-3.5583,-3.6194,-3.6367,-3.6405,-3.6405,-3.6405,-3.6405,-3.6405,-3.6405,-3.6405,-3.6405,-3.6405,-3.6405,-3.6405,-3.6405,-3.6405,-3.6405,-3.6405,-3.6094,-3.5495,-3.4944,-3.4437,-3.3884,-3.3332,-3.3124,-3.3124,0.0,0.0,-3.3124,-3.3124,-3.3124,-3.3124,-3.3124,-3.2767,-3.2315,-3.224,-3.1913,-3.1424,0.0,0.0,0.0,0.0,0.0,0.0,0.0,0.0,0.0,0.0,-4.0769,0.0,0.0,0.0,0.0,0.0,0.0,0.0,0.0,0.0,0.0,0.0,0.0,0.0,0.0,0.0,0.0,0.0,0.0,0.0,0.0,0.0,0.0,0.0,0.0,0.0,0.0,0.0,0.0,0.0,0.0,0.0,0.0,0.0,0.0,0.0,0.0,0.0,0.0,0.0,-3.6526,-3.6456,-3.5697,-3.5102,-3.4782,-3.5123,-3.4922,-3.468,-3.532,-3.5868,-3.6292,-3.638,-3.6031,-3.547,-3.4831,-3.4374,0.0,0.0,-3.3124,-3.3124,-3.3124,-3.3124,-3.3124,-3.3124,-3.3156,-3.342,-3.396,0.0,-3.5019,0.0,0.0,0.0,0.0,0.0,0.0,0.0,0.0,-3.6405,-3.6405,-3.6405,-3.6405,-3.6405,-3.6405,-3.6405,-3.6405,-3.6405,-3.6094,-3.5495,-3.4944,-3.4437,-3.3884,-3.3332,-3.3124,-3.3124,0.0,0.0,-3.3124,-3.3124,-3.3124,-3.3124,-3.3124,-3.3061,-3.2867,-3.239,-3.2152,-3.1989,0.0,0.0,0.0,0.0,0.0,0.0,0.0,0.0,0.0,-4.0912,-4.084,-4.0769,0.0,0.0,0.0,0.0,0.0,0.0,0.0,0.0,0.0,0.0,0.0,0.0,0.0,0.0,0.0,0.0,0.0,0.0,0.0,0.0,0.0,0.0,0.0,0.0,0.0,0.0,0.0,0.0,0.0,0.0,0.0,0.0,0.0,0.0,0.0,0.0,0.0,0.0,-3.6278,-3.6599,-3.6316,-3.6259,-3.6273,-3.6142,-3.5848,-3.5615,-3.5995,-3.6251,-3.6405,-3.6405,-3.5956,-3.5357,-3.4806,0.0,0.0,0.0,-3.3124,-3.3124,-3.3124,-3.3124,0.0,-3.3124,-3.3124,-3.3269,-3.3822,0.0,0.0,0.0,0.0,0.0,0.0,0.0,0.0,0.0,0.0,-3.6405,-3.6405,-3.6405,-3.6405,-3.6405,-3.6405,-3.6405,-3.6405,-3.6405,-3.6094,-3.5495,-3.4944,-3.4437,-3.3884,-3.3332,-3.3124,-3.3124,-3.3124,0.0,-3.3124,-3.3124,-3.3124,-3.3124,-3.3124,-3.3124,-3.3043,-3.2767,-3.2667,-3.2579,0.0,0.0,0.0,0.0,0.0,0.0,0.0,-4.1163,-4.0912,-4.0912,-4.0912,-4.0864,-4.0745,-4.0607,-4.0534,0.0,0.0,0.0,0.0,0.0,0.0,0.0,0.0,0.0,0.0,0.0,0.0,0.0,0.0,0.0,0.0,0.0,0.0,0.0,0.0,0.0,0.0,0.0,0.0,0.0,0.0,0.0,0.0,0.0,0.0,0.0,0.0,0.0,0.0,0.0,-3.5953,-3.6541,-3.6675,-3.7141,-3.7477,-3.7001,-3.6644,-3.6424,-3.6496,-3.6505,-3.6427,-3.6267,-3.5768,-3.5182,-3.4675,-3.4123,0.0,-3.3212,-3.3124,-3.3124,-3.3124,-3.3124,-3.3124,0.0,-3.3124,-3.3275,-3.3658,0.0,0.0,0.0,0.0,0.0,0.0,0.0,0.0,0.0,0.0,0.0,-3.6405,-3.6405,-3.6405,-3.6405,-3.6405,-3.6405,-3.6405,-3.6405,-3.6031,-3.532,-3.4881,-3.4374,-3.3709,-3.3269,-3.3124,-3.3124,-3.3124,0.0,0.0,-3.3124,-3.3124,-3.3124,-3.3124,-3.3124,-3.3124,-3.3124,-3.3124,-3.3048,0.0,0.0,0.0,0.0,0.0,0.0,0.0,-4.1163,-4.0912,-4.0912,-4.0912,-4.0912,-4.0871,-4.0769,-4.0673,0.0,0.0,0.0,0.0,0.0,0.0,0.0,0.0,0.0,0.0,0.0,0.0,0.0,0.0,0.0,0.0,0.0,0.0,0.0,0.0,0.0,0.0,0.0,0.0,0.0,0.0,0.0,0.0,0.0,0.0,0.0,0.0,0.0,0.0,0.0,0.0,-3.6507,-3.6511,-3.6705,-3.6957,-3.7235,0.0,0.0,-3.6095,-3.6307,-3.6501,-3.5789,-3.5157,-3.4605,-3.4098,0.0,-3.3174,-3.3124,-3.3124,-3.3124,-3.3124,-3.3124,-3.3124,-3.3124,0.0,-3.3136,0.0,0.0,0.0,0.0,0.0,0.0,0.0,0.0,0.0,0.0,0.0,0.0,-3.6405,-3.6405,-3.6405,-3.6405,-3.6405,-3.6405,-3.6405,-3.6405,-3.583,-3.4756,-3.4705,-3.4173,-3.3156,-3.3106,-3.3124,-3.3124,0.0,0.0,0.0,-3.3124,-3.3124,-3.3124,-3.3124,-3.3124,-3.3124,-3.3124,-3.3124,-3.3111,0.0,0.0,0.0,0.0,0.0,0.0,0.0,-4.1163,-4.0912,-4.0912,-4.0912,-4.0912,-4.0912,-4.0864,-4.0817,0.0,0.0,0.0,0.0,0.0,0.0,0.0,0.0,0.0,0.0,0.0,0.0,0.0,0.0,0.0,0.0,0.0,0.0,0.0,0.0,0.0,0.0,0.0,0.0,0.0,0.0,0.0,0.0,0.0,0.0,0.0,0.0,0.0,0.0,0.0,0.0,0.0,-3.6357,-3.6535,0.0,0.0,-3.7456,-3.7054,-3.666,-3.6173,-3.5649,-3.5342,-3.4728,-3.4173,-3.3947,0.0,-3.3124,-3.3124,-3.3124,-3.3124,-3.3124,-3.3124,-3.3124,-3.3124,0.0,0.0,-3.3124,0.0,0.0,0.0,0.0,0.0,0.0,0.0,0.0,0.0,0.0,0.0,-3.6405,-3.6405,-3.6405,-3.6405,-3.6405,-3.6405,-3.6405,-3.6405,-3.5805,-3.468,-3.468,-3.4148,-3.3124,-3.3124,-3.3124,-3.3124,0.0,0.0,0.0,-3.3124,-3.3124,-3.3124,-3.3124,-3.3124,-3.3124,-3.3124,-3.3124,-3.3124,0.0,0.0,0.0,0.0,0.0,0.0,-4.1561,-4.1163,-4.0912,-4.0912,-4.0912,-4.0912,-4.0912,-4.0912,-4.0912,-4.0912,0.0,0.0,0.0,0.0,0.0,0.0,0.0,0.0,0.0,0.0,0.0,-4.0769,0.0,0.0,0.0,0.0,0.0,0.0,0.0,0.0,0.0,0.0,0.0,0.0,0.0,0.0,0.0,0.0,0.0,0.0,0.0,0.0,0.0,0.0,0.0,0.0,0.0,0.0,0.0,0.0,-3.7296,-3.7121,-3.655,-3.5804,-3.5149,-3.4882,-3.4363,-3.3859,0.0,0.0,-3.3124,-3.3124,-3.3124,-3.3124,-3.3124,-3.3124,-3.3124,0.0,0.0,-3.3124,-3.3124,0.0,0.0,0.0,0.0,0.0,0.0,0.0,0.0,0.0,0.0,0.0,0.0,-3.6405,-3.6405,-3.6405,-3.6405,-3.6405,-3.6405,-3.6194,-3.5642,-3.468,-3.4562,-3.3985,-3.3124,-3.3124,-3.3124,-3.3124,0.0,0.0,0.0,-3.3124,-3.3124,-3.3124,-3.3124,-3.3124,-3.3124,-3.3124,-3.3124,-3.3124,0.0,0.0,0.0,0.0,0.0,0.0,0.0,-4.1163,-4.0912,-4.0912,-4.0912,-4.0912,-4.0912,-4.0912,-4.0912,-4.0912,0.0,0.0,0.0,0.0,0.0,0.0,0.0,0.0,0.0,0.0,-4.0912,-4.0912,-4.0912,-4.084,0.0,0.0,0.0,0.0,0.0,0.0,0.0,0.0,0.0,0.0,0.0,0.0,0.0,0.0,0.0,0.0,0.0,0.0,0.0,0.0,0.0,0.0,0.0,0.0,0.0,0.0,-3.6354,-3.6526,-3.5273,-3.5138,-3.5213,-3.4419,-3.4073,-3.3759,0.0,0.0,-3.3124,-3.3124,-3.3124,-3.3124,-3.3124,-3.3124,-3.3124,-3.3124,0.0,0.0,-3.3124,0.0,0.0,0.0,0.0,0.0,0.0,0.0,0.0,0.0,0.0,0.0,0.0,-3.6405,-3.6405,-3.6405,-3.6405,-3.6405,-3.6405,-3.583,-3.5232,-3.4668,-3.4173,-3.3621,-3.3124,-3.3124,-3.3124,0.0,0.0,0.0,0.0,-3.3124,-3.3124,-3.3124,-3.3124,-3.3124,-3.3124,-3.3124,-3.3124,-3.3124,0.0,0.0,0.0,0.0,0.0,0.0,0.0,-4.0989,-4.0912,-4.0912,-4.0912,-4.0912,-4.0912,-4.0912,-4.0912,-4.0912,0.0,0.0,0.0,0.0,0.0,0.0,0.0,0.0,0.0,0.0,-4.0912,-4.0912,-4.0912,-4.084,-4.0697,-4.0558,0.0,0.0,0.0,0.0,0.0,0.0,0.0,0.0,0.0,0.0,0.0,0.0,0.0,0.0,0.0,0.0,0.0,0.0,0.0,0.0,0.0,0.0,0.0,0.0,0.0,0.0,-3.5089,-3.4531,-3.4182,-3.3905,-3.3622,-3.3294,-3.3162,-3.3124,-3.3124,-3.3124,-3.3124,-3.3124,-3.3124,-3.3124,-3.3124,-3.3124,-3.3124,0.0,0.0,0.0,0.0,0.0,0.0,0.0,0.0,0.0,0.0,0.0,0.0,0.0,0.0,-3.6405,-3.6405,-3.6405,-3.6405,-3.6405,-3.6405,-3.5818,-3.5219,-3.4668,-3.4161,-3.3608,-3.3124,-3.3124,0.0,0.0,0.0,0.0,0.0,-3.3124,-3.3124,-3.3124,-3.3124,-3.3124,-3.3124,-3.3124,-3.3124,-3.3124,0.0,0.0,0.0,0.0,0.0,0.0,0.0,-4.0912,-4.0912,-4.0912,-4.0912,-4.0912,-4.0912,-4.0912,-4.0912,-4.0912,0.0,0.0,0.0,0.0,0.0,0.0,0.0,0.0,0.0,-4.0912,-4.0912,-4.0912,-4.0769,-4.0624,-4.0478,-4.0104,-3.9679,-3.9162,-3.8728,0.0,0.0,0.0,0.0,0.0,0.0,0.0,-3.6492,0.0,0.0,0.0,0.0,0.0,0.0,0.0,0.0,0.0,0.0,0.0,0.0,0.0,0.0,0.0,0.0,-3.3708,-3.3418,-3.3418,-3.3246,0.0,0.0,-3.3124,-3.3124,-3.3124,-3.3124,-3.3124,-3.3124,-3.3124,-3.3124,-3.3124,-3.3124,0.0,0.0,0.0,0.0,0.0,0.0,0.0,0.0,0.0,0.0,0.0,0.0,0.0,0.0,-3.6405,-3.6405,-3.6405,-3.6405,-3.6304,-3.6056,-3.5516,-3.4919,-3.4399,-3.3847,-3.3407,-3.3124,-3.3124,0.0,0.0,0.0,0.0,0.0,-3.3124,-3.3124,-3.3124,-3.3124,-3.3124,-3.3124,-3.3124,-3.3124,-3.3124,0.0,0.0,0.0,0.0,0.0,0.0,0.0,0.0,0.0,0.0,-4.0912,-4.0912,-4.0912,-4.0912,-4.0912,0.0,0.0,0.0,0.0,0.0,0.0,0.0,0.0,0.0,-4.0912,-4.0912,-4.0888,-4.0864,-4.0485,-4.0213,-4.002,-3.9339,-3.8909,-3.8694,-3.7783,-3.7387,-3.7298,-3.6723,-3.6492,-3.6492,-3.6492,-3.6492,0.0,0.0,0.0,0.0,0.0,0.0,0.0,0.0,0.0,0.0,0.0,0.0,0.0,0.0,0.0,0.0,0.0,-3.2717,-3.2826,-3.2826,-3.2942,0.0,-3.3061,-3.3056,0.0,-3.3124,-3.3124,-3.3124,-3.3124,-3.3124,-3.3124,-3.3124,-3.3124,0.0,0.0,-3.3124,0.0,0.0,0.0,0.0,0.0,0.0,0.0,0.0,0.0,0.0,0.0,-3.6405,-3.6392,-3.6355,-3.6355,-3.6056,-3.5508,-3.4919,-3.4412,-3.3884,-3.3345,-3.3124,-3.3124,-3.3124,0.0,0.0,0.0,0.0,0.0,-3.3124,-3.3124,-3.3124,-3.3124,-3.3124,-3.3124,-3.3124,-3.3124,-3.3124,0.0,0.0,0.0,0.0,0.0,0.0,0.0,0.0,0.0,0.0,-4.0912,-4.0912,-4.0912,-4.0912,-4.0912,0.0,0.0,0.0,0.0,0.0,0.0,0.0,0.0,0.0,-4.0912,-4.0912,-4.0769,-4.0436,-4.0355,-4.0062,-3.9566,-3.9179,-3.8673,-3.8087,-3.7608,-3.7148,-3.6693,-3.6554,-3.6492,-3.6492,-3.6492,-3.6492,0.0,0.0,0.0,0.0,-3.6492,-3.6289,0.0,0.0,0.0,0.0,0.0,0.0,0.0,0.0,-3.2795,0.0,-3.1566,0.0,-3.229,-3.229,-3.2358,-3.2416,0.0,-3.2754,-3.3124,-3.3124,-3.3124,-3.3124,-3.3124,-3.3124,-3.3124,-3.3124,-3.3124,-3.3124,-3.3124,0.0,0.0,0.0,0.0,0.0,0.0,0.0,0.0,0.0,0.0,0.0,0.0,-3.6405,-3.6169,-3.5708,-3.5683,-3.5621,-3.5495,-3.4575,-3.4022,-3.3884,-3.3345,-3.3124,-3.3124,-3.3124,0.0,0.0,0.0,0.0,-3.3124,-3.3124,-3.3124,-3.3124,-3.3124,-3.3124,-3.3124,-3.3124,-3.3124,-3.3124,0.0,0.0,0.0,0.0,0.0,0.0,0.0,0.0,0.0,0.0,0.0,0.0,0.0,0.0,0.0,0.0,0.0,0.0,0.0,0.0,0.0,0.0,0.0,-4.0912,-4.0912,-4.0912,-4.0704,-4.0305,-4.0096,-3.9722,-3.9195,-3.8562,-3.8055,-3.7653,-3.7178,-3.6816,-3.6492,-3.6492,-3.6492,-3.6492,-3.6492,0.0,0.0,0.0,0.0,0.0,-3.6492,-3.6289,0.0,-3.6005,-3.5765,-3.5504,0.0,0.0,0.0,0.0,-3.2684,-3.1905,-3.1086,-3.1255,-3.1688,-3.1688,-3.1762,-3.1838,-3.1838,0.0,-3.2303,-3.2303,-3.2303,-3.2378,-3.2629,-3.2679,-3.2767,0.0,-3.3124,0.0,0.0,0.0,0.0,0.0,0.0,0.0,0.0,0.0,0.0,0.0,0.0,0.0,0.0,-3.5604,-3.5479,-3.5132,-3.4868,-3.4788,-3.4788,-3.4198,-3.3771,-3.352,-3.3262,-3.3124,-3.3124,-3.3124,0.0,0.0,0.0,0.0,-3.3124,-3.3124,-3.3124,-3.3124,-3.3124,-3.3124,-3.3124,-3.3124,-3.3124,-3.3124,0.0,0.0,0.0,0.0,0.0,0.0,0.0,0.0,0.0,0.0,0.0,0.0,0.0,0.0,0.0,0.0,0.0,0.0,0.0,0.0,0.0,0.0,0.0,-4.0912,-4.0912,-4.084,-4.0607,-4.0188,-3.9731,-3.9286,-3.8816,-3.7841,-3.7358,-3.7238,-3.6723,-3.6492,-3.6492,-3.6492,-3.6492,-3.6492,-3.6492,0.0,0.0,0.0,0.0,0.0,0.0,0.0,0.0,-3.6005,-3.5797,-3.5537,-3.5504,0.0,0.0,0.0,0.0,0.0,-3.0898,-3.0881,-3.1073,-3.1047,-3.1139,-3.1273,-3.1273,0.0,0.0,-3.1386,-3.1461,-3.1662,0.0,-3.229,0.0,0.0,0.0,0.0,0.0,0.0,0.0,0.0,0.0,0.0,0.0,0.0,0.0,0.0,0.0,0.0,0.0,-3.468,-3.4675,-3.46,-3.4148,-3.3859,-3.3771,-3.3771,-3.3533,-3.3124,-3.3124,-3.3124,-3.3124,-3.3124,-3.3124,0.0,0.0,0.0,-3.2943,-3.2943,-3.2943,-3.2943,-3.2943,-3.3006,-3.3124,-3.3124,-3.3124,-3.3124,0.0,0.0,0.0,0.0,0.0,0.0,0.0,0.0,0.0,0.0,0.0,0.0,0.0,0.0,0.0,0.0,0.0,0.0,0.0,0.0,0.0,0.0,-4.0912,-4.0912,-4.0912,-4.0576,-4.0171,-3.9714,-3.9286,-3.8733,-3.8059,-3.7608,-3.7118,-3.6631,-3.6554,-3.6492,-3.6492,-3.6492,-3.6492,-3.6492,-3.6492,0.0,0.0,0.0,0.0,0.0,0.0,0.0,0.0,-3.6037,-3.5831,-3.5638,-3.5522,0.0,0.0,0.0,0.0,0.0,-3.0811,-3.0598,-3.0496,-3.0317,-3.0516,-3.0733,-3.0733,0.0,0.0,0.0,0.0,0.0,0.0,-3.2616,-3.2968,0.0,0.0,0.0,0.0,0.0,0.0,0.0,0.0,0.0,0.0,0.0,0.0,0.0,0.0,0.0,0.0,0.0,-3.4512,-3.4035,-3.3935,-3.3671,-3.3206,-3.3206,-3.3156,-3.3124,-3.3124,-3.3124,-3.3124,-3.3124,-3.3124,0.0,0.0,-3.2805,-3.234,-3.234,-3.234,-3.234,-3.234,-3.2641,-3.3124,-3.3124,-3.3124,-3.3124,0.0,0.0,0.0,0.0,0.0,0.0,0.0,0.0,0.0,0.0,0.0,0.0,0.0,0.0,0.0,0.0,0.0,0.0,0.0,0.0,0.0,-4.0912,-4.0912,-4.0912,-4.0912,-4.0527,-4.007,-3.961,-3.9195,-3.8623,-3.7886,-3.7403,-3.6938,-3.6492,-3.6492,-3.6492,-3.6492,-3.6492,-3.6492,-3.6492,0.0,0.0,0.0,0.0,0.0,0.0,0.0,0.0,0.0,0.0,-3.5863,-3.5671,-3.5554,0.0,0.0,0.0,0.0,0.0,-3.071,-3.0482,-3.033,-3.0011,-3.0058,-3.0168,-3.0168,0.0,0.0,0.0,0.0,0.0,0.0,0.0,-3.2662,-3.2846,0.0,0.0,0.0,0.0,0.0,0.0,0.0,0.0,0.0,0.0,0.0,0.0,0.0,0.0,0.0,0.0,-3.3721,-3.347,-3.3458,-3.3332,-3.3124,-3.3124,-3.3124,-3.3124,-3.3124,-3.3124,-3.3124,-3.3124,-3.3124,-3.3056,0.0,-3.2453,-3.219,-3.1888,-3.1763,-3.1763,-3.1763,-3.2114,-3.2641,-3.2968,-3.3124,-3.3124,0.0,0.0,0.0,0.0,0.0,0.0,0.0,0.0,0.0,0.0,0.0,0.0,0.0,0.0,0.0,0.0,0.0,0.0,0.0,0.0,-4.0912,-4.0912,-4.0817,-4.0799,-4.0912,-4.0412,-3.9952,-3.961,-3.9017,-3.8371,-3.7669,-3.7135,-3.6754,-3.6492,-3.6492,-3.6492,-3.6492,-3.6492,-3.6492,-3.6492,0.0,0.0,0.0,0.0,0.0,0.0,0.0,0.0,0.0,0.0,0.0,0.0,0.0,0.0,0.0,-3.3353,-3.2506,-3.1553,-3.0659,-3.0368,-3.0228,-2.9908,0.0,0.0,0.0,0.0,0.0,0.0,0.0,0.0,0.0,-3.2159,0.0,-3.2605,0.0,0.0,0.0,0.0,0.0,0.0,0.0,0.0,0.0,0.0,0.0,0.0,0.0,0.0,0.0,0.0,-3.3038,-3.3124,-3.3124,-3.3124,-3.3124,-3.3124,-3.3124,-3.3124,-3.3124,-3.3124,-3.3124,-3.3124,-3.3006,-3.2855,-3.2403,-3.2077,-3.1813,-3.1386,-3.121,-3.121,-3.121,-3.1537,-3.2089,-3.2667,-3.288,-3.288,0.0,0.0,0.0,0.0,0.0,0.0,0.0,0.0,0.0,0.0,0.0,0.0,0.0,0.0,0.0,0.0,0.0,0.0,0.0,0.0,-4.0912,-4.0912,-4.0534,-4.0527,-4.0894,-4.0087,-3.9636,-3.961,-3.8507,-3.7669,-3.706,-3.6708,-3.6523,-3.6492,-3.6492,-3.6492,-3.6492,-3.6492,-3.6492,-3.6492,-3.6492,0.0,0.0,0.0,0.0,0.0,0.0,0.0,0.0,0.0,0.0,0.0,0.0,0.0,-3.3262,-3.3213,-3.2064,-3.0723,-3.0482,-3.0254,-3.0075,-2.9869,-2.9792,0.0,-2.9792,-3.0193,0.0,-3.0278,0.0,0.0,0.0,-3.2025,-3.2394,-3.2431,0.0,0.0,0.0,0.0,0.0,0.0,0.0,0.0,0.0,0.0,0.0,0.0,0.0,0.0,0.0,0.0,0.0,-3.3081,-3.3124,-3.3124,-3.3124,-3.3124,-3.3124,-3.3124,-3.3124,-3.3124,-3.3124,-3.3124,-3.278,-3.2277,-3.2227,-3.165,-3.0721,-3.0683,-3.067,-3.067,-3.067,-3.0997,-3.1512,-3.2064,-3.2277,-3.2139,0.0,0.0,0.0,0.0,0.0,0.0,0.0,0.0,0.0,0.0,0.0,0.0,0.0,0.0,0.0,0.0,0.0,0.0,0.0,0.0,-4.0776,-4.0534,-4.0362,-4.0221,-4.0095,-3.9523,-3.9249,-3.9249,-3.8128,-3.7476,-3.724,-3.6723,-3.6492,-3.6492,-3.6492,-3.6492,-3.6492,-3.6492,-3.6492,-3.6492,-3.6492,-3.6492,0.0,0.0,0.0,0.0,0.0,0.0,0.0,0.0,-3.6005,-3.5941,-3.5587,-3.4438,-3.3178,-3.3178,-3.1992,-3.066,-3.0444,-3.0254,-3.0049,-2.9869,-3.0043,0.0,0.0,-3.0326,-3.053,-3.1133,-3.1479,0.0,0.0,0.0,-3.2356,0.0,0.0,0.0,0.0,0.0,0.0,0.0,0.0,0.0,0.0,0.0,0.0,0.0,0.0,0.0,0.0,0.0,0.0,-3.2853,-3.2853,-3.2939,-3.3124,-3.3124,-3.3124,-3.3124,-3.3124,-3.3124,-3.3111,-3.2704,-3.2416,-3.2177,-3.1512,-3.0944,-3.0583,-3.0244,-3.0105,-3.0143,-3.0482,-3.0733,-3.0972,-3.1499,-3.17,-3.1576,0.0,0.0,0.0,0.0,0.0,0.0,0.0,0.0,0.0,0.0,0.0,0.0,0.0,0.0,0.0,0.0,0.0,0.0,-4.0912,-4.0912,-4.0793,-4.0485,-4.0379,-4.0096,-3.961,-3.9222,-3.8996,-3.8996,-3.7927,-3.7298,-3.7104,-3.6693,-3.6492,-3.6492,-3.6492,-3.6492,-3.6492,-3.6492,-3.6492,-3.6492,-3.6492,-3.6492,0.0,0.0,0.0,0.0,0.0,0.0,0.0,0.0,-3.5973,-3.5846,0.0,0.0,-3.3492,-3.3262,-3.2137,-3.0861,-3.052,-3.0228,-2.9972,-2.983,0.0,0.0,-3.0821,-3.077,-3.093,-3.1616,-3.1644,0.0,0.0,0.0,0.0,0.0,0.0,0.0,0.0,0.0,0.0,0.0,0.0,0.0,0.0,0.0,0.0,0.0,0.0,0.0,0.0,0.0,0.0,0.0,-3.268,-3.281,-3.2982,-3.3081,-3.3124,-3.3124,-3.2893,-3.2805,-3.2792,-3.239,-3.2026,-3.1662,-3.0934,-3.052,-3.0331,-2.9942,-2.9792,-2.9829,-3.0206,-3.0357,-3.0419,-3.0947,-3.0973,-3.0622,0.0,0.0,0.0,0.0,0.0,0.0,0.0,0.0,0.0,0.0,0.0,0.0,0.0,0.0,0.0,0.0,0.0,0.0,-4.0912,-4.0912,-4.0912,-4.0894,-4.051,-4.007,-3.961,-3.9195,-3.8996,-3.8996,-3.7927,-3.7104,-3.6492,-3.6492,-3.6492,-3.6492,-3.6492,-3.6492,-3.6492,-3.6492,-3.6492,-3.6492,-3.6492,-3.6492,-3.6492,0.0,0.0,0.0,0.0,0.0,0.0,0.0,-3.5863,-3.5671,0.0,0.0,0.0,-3.3422,-3.2398,-3.1331,-3.0621,-3.0113,-2.9792,-2.9792,0.0,0.0,-3.1273,-3.1672,-3.1819,-3.1564,0.0,-3.1705,-3.1705,0.0,0.0,0.0,0.0,0.0,0.0,0.0,0.0,0.0,0.0,0.0,0.0,0.0,0.0,0.0,0.0,0.0,0.0,0.0,0.0,0.0,-3.2593,-3.2711,-3.2711,-3.2982,-3.3124,-3.3056,-3.2491,-3.2215,-3.2215,-3.2202,-3.1612,-3.062,-3.0608,-3.0294,-2.9792,-2.9792,-2.9792,-2.9792,-2.9792,-2.9792,-2.9854,-3.0407,-3.005,-2.9162,0.0,0.0,0.0,0.0,0.0,0.0,0.0,0.0,0.0,0.0,0.0,0.0,0.0,0.0,0.0,0.0,0.0,0.0,-4.0912,-4.0912,-4.0776,-4.0485,-4.0362,-3.9944,-3.9195,-3.8551,-3.823,-3.823,-3.7462,-3.7014,-3.6847,-3.6616,-3.6492,-3.6492,-3.6492,-3.6492,-3.6492,-3.6492,-3.6492,-3.6492,-3.6492,-3.6492,-3.6492,0.0,0.0,0.0,0.0,0.0,0.0,0.0,0.0,0.0,0.0,0.0,-3.4177,-3.3422,-3.2398,-3.1331,-3.0621,-3.0113,0.0,-2.9792,0.0,0.0,0.0,-3.1535,0.0,0.0,-3.1685,-3.1705,0.0,0.0,0.0,0.0,0.0,0.0,0.0,0.0,0.0,0.0,0.0,0.0,0.0,0.0,0.0,0.0,0.0,0.0,0.0,0.0,0.0,0.0,-3.2344,-3.255,-3.2711,-3.2982,-3.2867,-3.2466,-3.2303,-3.2215,-3.219,-3.1436,-3.0922,-3.0595,-3.0206,-2.9942,-2.9792,-2.9792,-2.9792,-2.9792,-2.9792,-2.9792,-2.9817,-2.998,-2.9495,-2.8611,0.0,0.0,0.0,0.0,0.0,0.0,0.0,0.0,0.0,0.0,0.0,0.0,0.0,0.0,0.0,0.0,0.0,0.0,0.0,0.0,-4.0776,-4.0534,-4.0404,-3.9841,-3.8827,-3.8071,-3.7653,-3.7522,-3.7165,-3.6938,-3.6816,-3.6585,-3.6492,-3.6492,-3.6492,-3.6492,-3.6492,-3.6492,-3.6492,-3.6492,-3.6492,-3.6492,-3.6492,0.0,0.0,0.0,0.0,0.0,0.0,0.0,0.0,0.0,-3.5537,0.0,-3.4543,-3.3408,-3.2528,-3.1709,-3.057,-3.0049,0.0,-2.9792,-3.0595,-3.1471,-3.1755,0.0,0.0,0.0,0.0,0.0,0.0,0.0,0.0,0.0,0.0,0.0,0.0,0.0,0.0,0.0,0.0,0.0,0.0,0.0,0.0,0.0,0.0,0.0,0.0,0.0,0.0,0.0,-3.2125,-3.2344,-3.2593,-3.2512,-3.2397,-3.2202,-3.1693,-3.1492,-3.1562,-3.0909,-3.0495,-3.0269,-2.9942,-2.9792,-2.9792,-2.9792,-2.9792,-2.9792,-2.9792,-2.9792,-2.9753,-2.9417,-2.8712,-2.7799,0.0,0.0,0.0,0.0,0.0,0.0,0.0,0.0,0.0,0.0,-4.0912,0.0,0.0,0.0,0.0,0.0,0.0,0.0,0.0,0.0,-4.0752,-4.0799,-4.0345,-3.9575,-3.849,-3.7738,-3.7224,-3.7015,-3.6984,-3.6816,-3.6492,-3.6492,-3.6492,-3.6492,-3.6492,-3.6492,-3.6492,-3.6492,-3.6492,-3.6492,-3.6492,-3.6492,-3.6492,-3.6492,0.0,0.0,0.0,0.0,0.0,0.0,0.0,0.0,-3.5392,-3.5392,-3.5067,-3.3325,-3.2678,-3.2141,-3.057,-2.9972,0.0,-2.9792,-3.0595,0.0,-3.2272,-3.24,-3.2257,-3.1805,0.0,0.0,0.0,0.0,0.0,0.0,0.0,0.0,0.0,0.0,0.0,0.0,0.0,0.0,0.0,0.0,0.0,0.0,0.0,0.0,0.0,0.0,0.0,0.0,-3.1893,-3.2101,-3.2271,-3.1835,-3.1739,0.0,-3.0857,-3.0371,-3.0545,-3.0545,-3.0229,-2.9675,-2.9753,-2.9753,-2.9675,-2.9753,-2.9792,-2.9792,-2.9792,-2.9792,-2.9702,-2.8831,-2.7931,-2.6987,0.0,0.0,0.0,0.0,0.0,0.0,0.0,0.0,0.0,0.0,0.0,0.0,0.0,0.0,0.0,0.0,0.0,0.0,0.0,0.0,-3.9714,-4.0028,-3.9092,-3.8451,-3.8185,-3.7462,-3.706,-3.7015,-3.6754,-3.6554,-3.6492,-3.6492,-3.6492,-3.6492,-3.6492,-3.6492,-3.6492,-3.6492,-3.6492,-3.6492,-3.6492,-3.6492,-3.6492,-3.6492,-3.6492,0.0,0.0,0.0,0.0,0.0,0.0,0.0,-3.4758,-3.4562,-3.4259,-3.2706,-3.2037,-3.1539,-3.0583,-3.0075,0.0,0.0,-3.0595,-3.1564,-3.2272,-3.24,-3.2257,0.0,0.0,0.0,0.0,0.0,0.0,0.0,0.0,0.0,0.0,0.0,0.0,0.0,0.0,0.0,0.0,0.0,0.0,0.0,0.0,0.0,0.0,0.0,0.0,-3.1705,-3.1893,-3.1819,-3.1467,-3.154,-3.1314,0.0,-3.0428,-3.0171,-2.9967,-2.9967,-2.9528,-2.8831,-2.9507,-2.9417,-2.8831,-2.9507,-2.9792,-2.9792,-2.9792,-2.9792,-2.9702,-2.8831,-2.7931,-2.6987,0.0,0.0,0.0,0.0,0.0,0.0,0.0,0.0,0.0,0.0,0.0,0.0,0.0,0.0,0.0,0.0,0.0,0.0,0.0,0.0,0.0,-3.8995,-3.8423,-3.7943,-3.7581,-3.7211,-3.6908,-3.6754,-3.6585,-3.6492,-3.6492,-3.6492,-3.6492,-3.6492,-3.6492,-3.6492,-3.6492,-3.6492,-3.6492,-3.6492,-3.6492,-3.6492,-3.6492,-3.6383,-3.6352,-3.6352,-3.6148,0.0,0.0,0.0,0.0,0.0,0.0,0.0,-3.4061,-3.2834,-3.2037,-3.1331,-3.047,0.0,0.0,-3.0118,0.0,-3.1377,-3.1841,-3.2104,0.0,0.0,0.0,0.0,0.0,0.0,0.0,0.0,0.0,0.0,0.0,0.0,0.0,0.0,0.0,0.0,0.0,0.0,0.0,0.0,0.0,0.0,0.0,-3.0489,-3.0858,-3.1288,-3.1419,-3.124,-3.081,-3.062,-3.0396,-3.0155,-2.9843,-2.9742,-2.9792,-2.9792,-2.9326,-2.8542,-2.9417,-2.93,-2.8581,-2.9456,-2.9546,-2.9209,-2.9624,-2.9248,-2.8462,-2.8011,-2.7273,-2.6359,0.0,0.0,0.0,0.0,0.0,0.0,0.0,0.0,0.0,0.0,0.0,0.0,0.0,0.0,0.0,0.0,0.0,0.0,0.0,0.0,0.0,0.0,-3.7841,-3.7551,-3.6938,-3.6908,-3.6785,-3.6492,-3.6492,-3.6492,-3.6492,-3.6492,-3.6492,-3.6492,-3.6492,-3.6492,-3.6492,-3.6492,-3.6492,-3.6492,-3.6492,-3.6492,-3.6492,-3.6274,-3.6196,-3.6179,-3.6005,0.0,-3.5688,-3.5655,0.0,0.0,0.0,0.0,-3.3925,-3.2869,-3.2001,-3.1196,-3.0368,0.0,-2.993,-3.0482,-3.0826,0.0,-3.1489,-3.1736,0.0,0.0,0.0,0.0,0.0,0.0,0.0,0.0,0.0,0.0,0.0,0.0,0.0,0.0,0.0,0.0,0.0,0.0,0.0,0.0,0.0,0.0,-2.9928,-2.9737,-2.991,-3.0508,-3.0508,-3.0331,-3.0001,-2.9373,-2.9244,-2.9565,-2.9141,-2.917,-2.9585,-2.9534,-2.904,-2.8303,-2.8961,-2.8882,-2.8291,-2.904,-2.9,-2.8542,-2.9131,-2.8422,-2.7069,-2.6946,-2.64,-2.5663,0.0,0.0,0.0,0.0,0.0,0.0,0.0,0.0,0.0,0.0,0.0,0.0,0.0,0.0,0.0,0.0,0.0,0.0,0.0,0.0,0.0,0.0,-3.6862,-3.6662,-3.6554,-3.6554,-3.6554,-3.6492,-3.6492,-3.6492,-3.6492,-3.6492,-3.6492,-3.6492,-3.6492,-3.6492,-3.6492,-3.6492,-3.6492,-3.6492,-3.6492,-3.6492,-3.6492,-3.6274,-3.6196,-3.6164,-3.5847,0.0,-3.5688,-3.5587,-3.5504,0.0,0.0,0.0,0.0,-3.1676,-3.1048,-3.0761,0.0,0.0,-2.993,0.0,-3.0631,-3.0863,0.0,0.0,0.0,0.0,0.0,0.0,0.0,0.0,0.0,0.0,0.0,0.0,0.0,0.0,0.0,0.0,0.0,0.0,0.0,0.0,0.0,0.0,0.0,0.0,-2.8861,-2.96,-2.9692,-2.9016,-2.8973,-2.8785,-2.8328,-2.8217,-2.8045,-2.7824,-2.8103,-2.8398,-2.8673,-2.8438,-2.7947,-2.7273,-2.7232,-2.7232,-2.7313,-2.7395,-2.7891,-2.8422,-2.7718,-2.7313,-2.7028,-2.6235,-2.5902,-2.5663,0.0,0.0,0.0,0.0,0.0,0.0,0.0,0.0,0.0,0.0,0.0,0.0,0.0,0.0,0.0,0.0,0.0,0.0,0.0,0.0,0.0,0.0,-3.6585,-3.6492,-3.6492,-3.6492,-3.6492,-3.6492,-3.6492,-3.6492,-3.6492,-3.6492,-3.6492,-3.6492,-3.6492,-3.6492,-3.6492,-3.6383,-3.6352,-3.632,-3.6258,-3.6241,-3.6195,-3.599,-3.5911,-3.5879,0.0,0.0,0.0,0.0,-3.4839,-3.4658,-3.3526,0.0,0.0,0.0,-3.1185,-3.0622,-3.0305,-3.0011,-2.9854,0.0,-3.0382,-3.0653,-3.09,0.0,0.0,0.0,0.0,0.0,0.0,0.0,0.0,0.0,0.0,0.0,0.0,0.0,0.0,0.0,0.0,0.0,0.0,0.0,0.0,0.0,0.0,-2.8815,-2.8611,-2.8808,-2.8951,-2.9022,-2.8549,-2.8317,-2.828,-2.7288,-2.6998,-2.7504,-2.729,-2.7533,-2.8051,-2.6953,-2.6408,-2.64,-2.7209,-2.7383,-2.7151,-2.7678,-2.781,-2.7678,-2.7273,-2.6494,-2.5642,-2.5746,-2.5505,-2.502,0.0,0.0,0.0,0.0,0.0,0.0,0.0,0.0,0.0,0.0,0.0,0.0,0.0,0.0,0.0,0.0,0.0,0.0,0.0,0.0,0.0,0.0,0.0,-3.6492,-3.6492,-3.6492,-3.6492,-3.6492,-3.6492,-3.6492,-3.6492,-3.6492,-3.646,-3.6414,-3.6492,-3.646,-3.6414,-3.6274,-3.6179,-3.6148,-3.6037,-3.6005,-3.5973,-3.5784,-3.5688,-3.5688,-3.5554,0.0,0.0,0.0,0.0,0.0,0.0,0.0,0.0,0.0,0.0,0.0,0.0,0.0,-2.9869,-2.9792,-3.0105,-3.0392,0.0,0.0,0.0,0.0,0.0,0.0,0.0,0.0,0.0,0.0,0.0,0.0,0.0,0.0,0.0,0.0,0.0,0.0,0.0,0.0,0.0,0.0,0.0,-2.8242,-2.8572,-2.8068,-2.7997,-2.841,-2.7569,-2.722,-2.747,-2.6121,-2.6276,-2.7799,-2.6637,-2.6554,-2.7395,-2.5786,-2.5136,-2.5463,-2.6543,-2.6924,-2.6812,-2.7273,-2.7191,-2.6741,-2.6535,-2.5642,-2.4583,-2.5221,-2.5062,-2.4497,0.0,0.0,0.0,0.0,0.0,0.0,0.0,0.0,0.0,0.0,0.0,0.0,0.0,0.0,-3.6677,-3.6999,0.0,0.0,0.0,0.0,0.0,0.0,0.0,0.0,-3.6492,-3.6492,-3.6492,-3.6492,-3.6492,-3.6492,-3.6492,-3.6492,-3.6383,-3.6211,-3.6414,-3.6383,-3.6211,0.0,0.0,-3.6005,-3.6005,-3.6005,-3.5973,0.0,0.0,0.0,0.0,0.0,0.0,0.0,0.0,0.0,0.0,0.0,0.0,0.0,0.0,0.0,0.0,-3.0228,0.0,-2.9869,0.0,0.0,0.0,0.0,0.0,0.0,0.0,0.0,0.0,0.0,0.0,0.0,0.0,0.0,0.0,0.0,0.0,0.0,0.0,0.0,0.0,0.0,0.0,0.0,0.0,-2.8479,-2.8503,-2.769,-2.6839,-2.603,-2.5158,-2.469,-2.4701,-2.4616,-2.5986,-2.8712,-2.6119,-2.5462,-2.6524,-2.5336,-2.4606,-2.4282,-2.41,-2.4754,-2.583,-2.502,-2.5189,-2.5788,-2.4946,-2.4583,-2.4497,-2.454,-2.454,-2.4497,0.0,0.0,0.0,0.0,0.0,0.0,0.0,0.0,0.0,0.0,0.0,0.0,0.0,-3.6492,-3.6554,-3.6662,-3.6693,0.0,0.0,0.0,0.0,0.0,0.0,0.0,0.0,-3.6492,-3.6492,-3.6492,-3.6492,-3.6492,-3.6492,-3.6492,-3.6383,-3.6196,-3.6274,-3.6211,-3.6053,-3.5911,0.0,0.0,0.0,0.0,0.0,0.0,0.0,0.0,0.0,0.0,0.0,0.0,0.0,0.0,0.0,0.0,0.0,0.0,0.0,0.0,0.0,0.0,0.0,-3.0011,-2.9895,0.0,0.0,0.0,0.0,0.0,0.0,0.0,0.0,0.0,0.0,0.0,0.0,0.0,0.0,0.0,0.0,0.0,0.0,0.0,0.0,0.0,0.0,0.0,0.0,0.0,-2.7684,-2.6794,-2.6163,-2.5819,-2.4956,-2.4198,-2.3604,-2.4198,-2.5284,-2.6853,-2.5031,-2.4819,-2.6027,-2.4744,-2.4079,-2.3937,-2.3721,-2.4456,-2.5788,-2.5337,-2.5411,-2.5704,-2.4818,-2.4411,-2.4335,-2.4454,-2.4411,-2.4335,0.0,0.0,0.0,0.0,0.0,0.0,0.0,0.0,0.0,0.0,0.0,0.0,0.0,0.0,-3.6492,-3.6492,-3.6492,-3.6492,-3.6492,-3.6492,0.0,0.0,0.0,0.0,0.0,-3.6492,-3.6492,-3.6492,-3.6492,-3.6492,-3.6492,-3.6414,-3.632,-3.6148,-3.607,-3.599,0.0,0.0,0.0,-3.5621,0.0,0.0,-3.5504,0.0,0.0,0.0,0.0,0.0,0.0,0.0,0.0,0.0,0.0,0.0,0.0,0.0,0.0,0.0,-3.0736,0.0,0.0,0.0,0.0,0.0,0.0,0.0,0.0,0.0,0.0,0.0,0.0,0.0,0.0,0.0,0.0,0.0,0.0,0.0,0.0,0.0,0.0,0.0,0.0,0.0,0.0,0.0,0.0,0.0,-2.7226,-2.6287,-2.5537,-2.4904,-2.4317,-2.3864,-2.356,-2.3864,-2.4616,-2.5777,-2.4284,-2.4198,-2.5326,-2.4122,-2.3624,-2.3667,-2.345,-2.4122,-2.5348,-2.5137,-2.5179,-2.5295,-2.4658,-2.4335,-2.4206,-2.4325,-2.4325,-2.4206,0.0,0.0,0.0,0.0,0.0,0.0,0.0,0.0,0.0,0.0,0.0,0.0,0.0,0.0,0.0,-3.6492,-3.6492,-3.6492,-3.6492,-3.6492,0.0,0.0,0.0,0.0,0.0,-3.6492,-3.6492,-3.6492,-3.6492,-3.6492,-3.6492,-3.6274,-3.6116,-3.5973,-3.5799,-3.5688,-3.5688,0.0,-3.5621,-3.5504,0.0,-3.5504,-3.5472,0.0,0.0,0.0,-3.4543,-3.3802,0.0,-3.3178,0.0,0.0,0.0,0.0,0.0,0.0,0.0,0.0,0.0,0.0,0.0,0.0,0.0,0.0,0.0,0.0,0.0,0.0,0.0,0.0,0.0,0.0,0.0,0.0,0.0,0.0,0.0,0.0,0.0,0.0,0.0,0.0,0.0,0.0,0.0,0.0,0.0,-2.8099,-2.7267,-2.6287,-2.4946,-2.3178,-2.3091,-2.3517,-2.4456,-2.356,-2.4016,-2.5735,-2.3983,-2.3604,-2.4456,-2.3517,-2.3232,-2.3503,-2.3232,-2.3624,-2.4454,-2.4282,-2.4292,-2.4454,-2.4292,-2.4206,-2.4163,-2.4206,-2.4206,-2.4163,0.0,0.0,0.0,0.0,0.0,0.0,0.0,0.0,0.0,0.0,0.0,0.0,-3.6492,-3.6492,-3.6492,-3.6492,-3.6492,-3.6492,-3.6492,-3.6492,-3.6492,-3.6492,-3.6492,-3.6492,-3.6492,-3.6492,-3.6492,-3.6492,-3.6492,0.0,0.0,0.0,0.0,0.0,-3.572,-3.5638,-3.5554,-3.5554,0.0,-3.5504,-3.5504,-3.5166,0.0,0.0,0.0,0.0,0.0,-3.3353,-3.3108,0.0,-3.2123,-3.1736,0.0,0.0,0.0,0.0,0.0,0.0,-3.0911,0.0,0.0,0.0,0.0,0.0,0.0,0.0,0.0,0.0,0.0,0.0,0.0,0.0,0.0,0.0,0.0,0.0,0.0,0.0,0.0,0.0,0.0,0.0,0.0,0.0,0.0,0.0,-2.7926,-2.747,-2.7226,-2.5715,-2.4317,-2.3144,-2.3091,-2.3222,-2.3474,-2.3222,-2.3681,-2.4829,-2.3864,-2.3787,-2.4456,-2.3744,-2.3416,-2.3503,-2.3232,-2.3537,-2.4249,-2.4024,-2.4067,-2.4292,-2.4206,-2.398,-2.3721,-2.4067,-2.398,-2.3721,0.0,0.0,0.0,0.0,0.0,0.0,0.0,0.0,0.0,0.0,0.0,0.0,-3.6492,-3.6492,-3.6492,-3.6492,-3.6492,-3.6492,-3.6492,-3.6492,-3.6492,-3.6492,-3.6492,-3.6492,-3.6492,-3.6492,-3.646,-3.6383,-3.6383,0.0,0.0,0.0,0.0,0.0,0.0,0.0,0.0,0.0,0.0,0.0,-3.4787,0.0,0.0,-3.3973,-3.3561,0.0,0.0,0.0,-3.2613,-3.1882,-3.164,0.0,0.0,0.0,0.0,0.0,0.0,0.0,0.0,0.0,0.0,0.0,0.0,0.0,-2.983,-2.9792,0.0,0.0,0.0,0.0,0.0,0.0,0.0,0.0,0.0,0.0,0.0,0.0,0.0,0.0,0.0,0.0,0.0,0.0,0.0,-2.851,-2.8018,-2.7592,-2.7226,-2.5505,-2.4241,-2.3691,-2.3309,-2.3091,-2.3091,-2.3091,-2.3387,-2.3907,-2.3527,-2.3527,-2.3897,-2.3527,-2.3319,-2.3319,-2.3188,-2.345,-2.4024,-2.3754,-2.3894,-2.4163,-2.398,-2.3721,-2.3547,-2.3807,-2.3721,-2.3547,0.0,0.0,0.0,0.0,0.0,0.0,0.0,0.0,0.0,0.0,0.0,-3.632,0.0,0.0,0.0,0.0,-3.6429,-3.6429,-3.6429,-3.6429,-3.6429,-3.6429,-3.646,-3.646,-3.6429,-3.646,-3.6383,-3.6179,-3.6179,-3.6116,-3.5973,-3.5688,0.0,0.0,0.0,0.0,0.0,0.0,0.0,-3.5115,-3.3748,-3.3561,0.0,0.0,-3.3114,-3.2973,-3.2359,-3.2127,-3.1963,-3.1248,-3.0986,0.0,0.0,0.0,0.0,0.0,-3.0986,0.0,0.0,0.0,0.0,0.0,0.0,0.0,-2.9869,-2.983,-2.9792,0.0,0.0,0.0,0.0,0.0,0.0,0.0,0.0,0.0,0.0,0.0,0.0,0.0,0.0,0.0,0.0,-2.851,-2.851,-2.851,-2.8431,-2.7966,-2.7092,-2.5421,-2.4456,-2.437,-2.3517,-2.3091,-2.3091,-2.3091,-2.3091,-2.3091,-2.3091,-2.3091,-2.3091,-2.3091,-2.3091,-2.3091,-2.3091,-2.3363,-2.3754,-2.3547,-2.3721,-2.412,-2.3677,-2.3503,-2.3503,-2.3503,-2.3503,-2.3503,0.0,0.0,0.0,0.0,0.0,0.0,0.0,0.0,0.0,0.0,0.0,0.0,0.0,0.0,0.0,0.0,0.0,-3.61,-3.61,-3.61,-3.61,-3.61,-3.6179,-3.6211,-3.61,-3.6211,-3.6179,-3.6037,-3.6037,-3.5926,-3.5752,-3.5106,0.0,0.0,0.0,0.0,0.0,0.0,0.0,-3.361,-3.3332,0.0,-3.2561,-3.2887,-3.2647,-3.2125,-3.2448,-3.2277,-3.1778,0.0,-3.0986,-3.0986,0.0,0.0,0.0,0.0,0.0,0.0,0.0,0.0,0.0,0.0,0.0,0.0,-3.0049,-2.9934,-2.9792,0.0,0.0,0.0,0.0,0.0,0.0,0.0,0.0,0.0,0.0,0.0,0.0,0.0,0.0,0.0,0.0,-2.851,-2.851,-2.851,-2.7846,-2.7051,-2.6121,-2.5084,-2.4155,-2.3396,-2.3178,-2.3091,-2.3091,-2.3091,-2.3091,-2.3091,-2.3091,-2.3091,-2.3091,-2.3091,-2.3091,-2.3091,-2.3091,-2.3276,-2.3547,-2.3276,-2.345,-2.3841,-2.359,-2.3503,-2.3503,-2.3503,-2.3503,-2.3503,0.0,0.0,0.0,0.0,0.0,0.0,0.0,0.0,0.0,0.0,0.0,0.0,0.0,0.0,0.0,0.0,0.0,0.0,0.0,0.0,-3.5462,-3.5462,-3.5863,-3.6068,-3.6005,-3.6068,-3.6022,-3.5863,-3.5479,-3.5204,-3.4993,0.0,0.0,0.0,0.0,0.0,0.0,0.0,-3.229,-3.2613,-3.2245,0.0,-3.2539,-3.2452,-3.2353,-3.2306,-3.2594,-3.2319,-3.1758,-3.1509,-3.1222,0.0,0.0,-3.0986,-3.0986,0.0,-3.0986,-3.0986,0.0,0.0,0.0,-3.0736,0.0,0.0,0.0,-3.019,-3.0075,0.0,0.0,0.0,0.0,0.0,0.0,0.0,0.0,0.0,0.0,0.0,0.0,0.0,0.0,0.0,0.0,-2.8776,-2.8736,-2.8657,-2.8167,-2.7458,-2.6547,-2.5621,-2.4744,-2.382,-2.3343,-2.3091,-2.3091,-2.3091,-2.3091,-2.3091,-2.3091,-2.3091,-2.3091,-2.3091,-2.3091,-2.3091,-2.3091,-2.3232,-2.3503,-2.3232,-2.3319,-2.3624,-2.3406,-2.3319,-2.3319,-2.3319,-2.3319,-2.3319,0.0,0.0,0.0,0.0,0.0,0.0,0.0,0.0,0.0,0.0,0.0,0.0,0.0,0.0,0.0,0.0,0.0,0.0,0.0,0.0,-3.4562,-3.4562,-3.5187,-3.5494,-3.5462,-3.5494,-3.5415,-3.5204,-3.4629,0.0,0.0,0.0,0.0,0.0,0.0,0.0,0.0,0.0,0.0,-3.1846,0.0,-3.1759,-3.2713,-3.2317,-3.2463,-3.2868,-3.2868,-3.2568,-3.2124,-3.2006,0.0,-3.1143,-3.1143,-3.1065,0.0,0.0,0.0,0.0,0.0,0.0,0.0,0.0,0.0,-3.066,0.0,0.0,0.0,0.0,0.0,0.0,0.0,0.0,0.0,0.0,0.0,0.0,0.0,0.0,0.0,0.0,0.0,0.0,0.0,-2.9091,-2.904,-2.8882,-2.8526,-2.7914,-2.704,-2.608,-2.5158,-2.4241,-2.3484,-2.3091,-2.3091,-2.3091,-2.3091,-2.3091,-2.3091,-2.3091,-2.3091,-2.3091,-2.3091,-2.3091,-2.3091,-2.3232,-2.3416,-2.3188,-2.3232,-2.3406,-2.3188,-2.3135,-2.3178,-2.3135,-2.3135,-2.3188,-3.4211,-3.4129,0.0,0.0,0.0,0.0,0.0,0.0,0.0,0.0,0.0,0.0,0.0,0.0,0.0,0.0,0.0,0.0,-3.4064,0.0,0.0,-3.3388,-3.363,-3.3713,-3.3526,-3.3699,-3.3679,-3.3492,-3.3388,0.0,0.0,0.0,0.0,0.0,-3.1542,0.0,0.0,0.0,-3.1123,0.0,-3.1357,-3.1629,0.0,-3.3039,-3.343,-3.3496,-3.3496,-3.3443,-3.3313,0.0,-3.2215,-3.1706,0.0,-3.1392,-3.0986,0.0,0.0,0.0,0.0,0.0,0.0,0.0,-3.0849,0.0,0.0,0.0,-3.0406,0.0,0.0,0.0,0.0,0.0,0.0,0.0,0.0,0.0,0.0,0.0,0.0,0.0,0.0,0.0,0.0,0.0,-2.9091,-2.9052,-2.8171,-2.7221,-2.6284,-2.5231,-2.4241,-2.3309,-2.3178,-2.3091,-2.3091,-2.3091,-2.3091,-2.3091,-2.3091,-2.3091,-2.3091,-2.3091,-2.3091,-2.3091,-2.3091,-2.3135,-2.3144,-2.3091,-2.3135,-2.3144,-2.3091,-2.3232,-2.3416,-2.3188,-2.3232,-2.3416,-3.2875,-3.3143,0.0,0.0,0.0,0.0,0.0,0.0,0.0,0.0,0.0,0.0,0.0,0.0,0.0,0.0,0.0,-3.3284,0.0,0.0,0.0,0.0,-3.3583,-3.3649,-3.3192,-3.3297,-3.3297,-3.3178,-3.2755,0.0,0.0,0.0,0.0,0.0,-3.1123,0.0,-3.0862,0.0,-3.1407,0.0,0.0,0.0,0.0,-3.3025,-3.3372,-3.3685,-3.3685,-3.3436,-3.314,0.0,-3.2497,0.0,0.0,0.0,0.0,0.0,0.0,0.0,0.0,0.0,0.0,0.0,0.0,0.0,-3.0874,0.0,-3.0723,0.0,0.0,0.0,0.0,0.0,0.0,0.0,0.0,0.0,0.0,0.0,0.0,0.0,0.0,0.0,0.0,0.0,0.0,0.0,0.0,-2.6329,-2.54,-2.4819,-2.4069,-2.3135,-2.3091,-2.3091,-2.3091,-2.3091,-2.3091,-2.3091,-2.3091,-2.3091,-2.3091,-2.3091,-2.3091,-2.3091,-2.3091,-2.3091,-2.3091,-2.3091,-2.3091,-2.3091,-2.3091,-2.3188,-2.3232,-2.3144,-2.3178,-2.3232,-3.1703,0.0,0.0,0.0,0.0,0.0,0.0,0.0,0.0,0.0,0.0,0.0,-3.3143,-3.3156,0.0,0.0,-3.3025,-3.2934,0.0,0.0,-3.3332,0.0,0.0,0.0,0.0,-3.2803,-3.2756,-3.2591,-3.2064,0.0,0.0,0.0,0.0,0.0,0.0,-3.0965,-3.0957,0.0,0.0,-3.1706,-3.263,-3.3078,-3.3178,-3.3136,-3.3338,-3.3713,-3.3713,-3.3469,-3.3107,-3.3107,-3.2847,0.0,-3.1835,0.0,0.0,0.0,0.0,0.0,-3.0911,0.0,0.0,0.0,0.0,0.0,0.0,0.0,0.0,0.0,0.0,0.0,0.0,0.0,0.0,0.0,0.0,0.0,0.0,0.0,0.0,0.0,0.0,0.0,0.0,0.0,0.0,0.0,-2.6917,-2.5966,-2.5041,-2.4797,-2.4251,-2.3222,-2.3188,-2.3178,-2.3091,-2.3091,-2.3091,-2.3091,-2.3091,-2.3091,-2.3091,-2.3091,-2.3091,-2.3091,-2.3091,-2.3091,-2.3091,-2.3091,-2.3091,-2.3091,-2.3091,-2.3091,-2.3091,-2.3091,-2.3091,-2.3091,-3.1024,-3.1061,0.0,0.0,0.0,0.0,0.0,0.0,0.0,0.0,0.0,0.0,0.0,0.0,0.0,0.0,0.0,-3.3561,-3.3561,0.0,-3.2725,0.0,0.0,-3.2463,0.0,0.0,-3.1574,-3.1061,0.0,0.0,0.0,0.0,0.0,0.0,0.0,-3.1186,-3.1487,-3.15,-3.1692,-3.2032,-3.2374,-3.2777,-3.3129,0.0,-3.37,-3.3713,-3.3713,0.0,0.0,-3.3687,-3.3341,0.0,0.0,0.0,0.0,0.0,0.0,0.0,0.0,0.0,0.0,-3.0949,0.0,0.0,0.0,0.0,-3.0986,0.0,0.0,0.0,0.0,0.0,0.0,0.0,0.0,0.0,0.0,0.0,0.0,0.0,0.0,0.0,0.0,0.0,0.0,-2.7151,-2.6894,-2.64,-2.5526,-2.5306,-2.4647,-2.3503,-2.3503,-2.3363,-2.3091,-2.3091,-2.3091,-2.3091,-2.3091,-2.3091,-2.3091,-2.3091,-2.3091,-2.3091,-2.3091,-2.3091,-2.3091,-2.3091,-2.3091,-2.3091,-2.3091,-2.3091,-2.3091,-2.3091,-2.3091,-2.3091,0.0,0.0,0.0,0.0,0.0,0.0,0.0,-3.2738,0.0,0.0,0.0,0.0,0.0,-3.4999,-3.4901,0.0,0.0,-3.4512,-3.3955,-3.3858,0.0,0.0,0.0,-3.3012,0.0,0.0,0.0,0.0,0.0,0.0,0.0,0.0,0.0,0.0,0.0,-3.1448,0.0,0.0,0.0,0.0,0.0,-3.3119,-3.3124,0.0,0.0,-3.3313,-3.3313,-3.3313,0.0,-3.3313,-3.3271,-3.3115,-3.2555,-3.2118,-3.1675,-3.1086,-3.0701,0.0,0.0,0.0,-3.0571,-3.0773,0.0,0.0,0.0,0.0,0.0,0.0,0.0,0.0,0.0,0.0,0.0,0.0,0.0,0.0,0.0,0.0,0.0,0.0,0.0,0.0,0.0,0.0,0.0,-2.6235,-2.5505,-2.4935,0.0,-2.4262,-2.3884,-2.3503,-2.3319,-2.3188,-2.3091,-2.3091,-2.3091,-2.3091,-2.3091,-2.3091,-2.3091,-2.3091,-2.3091,-2.3091,-2.3091,-2.3091,-2.3091,-2.3091,-2.3091,-2.3091,-2.3091,-2.3091,-2.3091,-2.3091,-2.3091,-2.3091,-3.1588,0.0,0.0,0.0,0.0,0.0,0.0,0.0,0.0,0.0,-3.4412,0.0,-3.499,0.0,-3.5297,0.0,-3.524,-3.5051,-3.4425,-3.4416,0.0,-3.379,-3.3669,0.0,0.0,0.0,0.0,0.0,0.0,-3.2111,0.0,0.0,0.0,0.0,0.0,-3.1789,-3.2025,0.0,-3.2784,0.0,0.0,-3.324,0.0,0.0,-3.3124,-3.3124,0.0,-3.3124,-3.3124,-3.3124,-3.3197,-3.3182,-3.2571,-3.2279,-3.197,-3.1207,-3.0724,-3.0445,-3.0318,-3.0292,0.0,-3.0533,-3.0571,0.0,-3.0849,0.0,0.0,0.0,0.0,0.0,0.0,0.0,0.0,0.0,0.0,0.0,0.0,0.0,0.0,0.0,0.0,0.0,0.0,0.0,-2.5463,-2.5788,-2.485,-2.4292,0.0,0.0,-2.3764,-2.3634,-2.3537,-2.3363,-2.3091,-2.3188,-2.3188,-2.3091,-2.3091,-2.3091,-2.3091,-2.3091,-2.3091,-2.3091,-2.3091,-2.3091,-2.3091,-2.3091,-2.3091,-2.3091,-2.3091,-2.3091,-2.3091,-2.3091,-2.3091,-2.3091,0.0,0.0,0.0,0.0,-3.2332,0.0,0.0,0.0,-3.3439,0.0,-3.4392,-3.4622,-3.4674,-3.5161,-3.5436,-3.5436,-3.5436,0.0,-3.4921,-3.474,0.0,0.0,-3.3865,-3.3482,-3.2941,0.0,0.0,0.0,0.0,0.0,0.0,0.0,0.0,0.0,-3.2138,0.0,-3.2528,-3.2528,-3.276,-3.3124,-3.3124,-3.3124,-3.3124,-3.3124,0.0,-3.3124,-3.3124,-3.3124,-3.3124,-3.3124,-3.3124,-3.298,-3.2428,-3.224,-3.2014,-3.0997,-3.0658,-3.0534,-3.0188,-3.01,-3.0113,-3.033,0.0,0.0,0.0,0.0,-3.0736,0.0,0.0,0.0,0.0,0.0,0.0,0.0,0.0,0.0,0.0,0.0,0.0,0.0,0.0,0.0,0.0,-2.5474,-2.4818,-2.5663,-2.4978,0.0,0.0,0.0,-2.4282,-2.3841,-2.4067,-2.3851,-2.3144,-2.3363,-2.3373,-2.3091,-2.3091,-2.3091,-2.3091,-2.3091,-2.3091,-2.3091,-2.3091,-2.3091,-2.3091,-2.3091,-2.3091,-2.3091,-2.3091,-2.3091,-2.3091,-2.3091,-2.3091,-2.3091,-3.163,-3.2311,-3.2826,0.0,-3.2883,-3.3107,0.0,0.0,0.0,0.0,-3.455,-3.4917,-3.575,-3.5968,-3.6012,-3.5773,-3.5967,0.0,0.0,0.0,0.0,-3.4478,-3.3999,-3.3661,-3.352,-3.355,0.0,-3.3386,0.0,0.0,-3.2851,0.0,0.0,0.0,0.0,0.0,-3.2953,-3.2953,-3.2986,-3.3124,-3.3124,-3.3124,0.0,0.0,-3.3124,-3.3124,-3.3124,-3.3124,-3.3124,-3.3124,-3.3124,-3.3056,-3.2905,-3.2554,-3.2164,-3.1888,-3.1235,-3.0583,-3.0484,-3.0171,-2.9934,-3.0113,-3.019,-3.0228,0.0,0.0,0.0,0.0,0.0,0.0,0.0,0.0,0.0,0.0,0.0,0.0,0.0,0.0,0.0,0.0,0.0,0.0,0.0,-2.4743,-2.4583,-2.4818,-2.4615,0.0,0.0,0.0,0.0,-2.411,-2.397,-2.3764,-2.3406,-2.346,-2.3373,-2.3091,-2.3091,-2.3091,-2.3091,-2.3091,-2.3091,-2.3091,-2.3091,-2.3091,-2.3091,-2.3091,-2.3091,-2.3091,-2.3091,-2.3091,-2.3091,-2.3091,-2.3091,-2.3091,-3.1028,0.0,0.0,-3.2579,0.0,0.0,-3.3293,0.0,0.0,-3.4372,-3.4755,0.0,-3.5892,-3.6172,-3.6265,-3.6113,-3.6265,0.0,-3.5504,0.0,0.0,-3.4436,-3.4018,-3.3682,-3.3441,-3.3513,0.0,-3.3556,0.0,0.0,-3.3222,0.0,0.0,0.0,0.0,-3.2907,0.0,-3.3124,-3.3124,-3.3124,-3.3124,0.0,0.0,-3.3124,-3.3124,-3.3124,-3.3124,-3.3124,-3.3124,-3.3124,-3.3124,-3.3124,-3.3124,-3.2855,-3.2541,-3.229,-3.1612,-3.0909,-3.067,-3.0218,-2.983,-2.9934,-2.9972,-3.0011,-3.0228,-3.0254,-3.0292,0.0,0.0,0.0,0.0,0.0,0.0,0.0,0.0,0.0,0.0,0.0,0.0,0.0,0.0,0.0,0.0,0.0,0.0,0.0,0.0,0.0,0.0,0.0,0.0,-2.4206,-2.4067,-2.3807,-2.3503,-2.3503,-2.3373,-2.3091,-2.3091,-2.3091,-2.3091,-2.3091,-2.3091,-2.3091,-2.3091,-2.3091,-2.3091,-2.3091,-2.3091,-2.3091,-2.3091,-2.3091,-2.3091,-2.3091,-2.3091,-2.3091,0.0,0.0,0.0,0.0,0.0,0.0,0.0,-3.3714,0.0,-3.4149,0.0,-3.5381,-3.5596,-3.5975,-3.6263,-3.6405,0.0,-3.6263,-3.597,-3.5684,-3.516,-3.4401,-3.406,-3.3671,-3.3194,-3.3321,0.0,0.0,0.0,0.0,0.0,0.0,0.0,0.0,0.0,0.0,0.0,-3.3124,-3.3124,0.0,-3.3124,-3.3124,-3.3124,-3.3124,-3.3124,-3.3124,-3.3124,-3.3124,-3.3124,-3.3124,-3.3124,-3.3124,-3.3124,-3.3124,-3.298,-3.2466,-3.1938,-3.1386,-3.0859,-3.0319,-2.988,-2.9817,-2.9792,-2.9869,-3.0011,-3.0049,-3.0113,-3.0292,-3.033,-3.0292,0.0,0.0,0.0,0.0,0.0,0.0,0.0,0.0,0.0,0.0,0.0,0.0,0.0,0.0,0.0,0.0,0.0,0.0,0.0,0.0,0.0,-2.4206,-2.4206,0.0,-2.3503,0.0,-2.3373,-2.3091,-2.3091,-2.3091,-2.3091,-2.3091,-2.3091,-2.3091,-2.3091,-2.3091,-2.3091,-2.3091,-2.3091,-2.3091,-2.3091,-2.3091,-2.3091,-2.3091,-2.3091,-2.3091,0.0,0.0,0.0,0.0,0.0,-3.0997,-3.1751,-3.2359,-3.3013,-3.3924,-3.4168,-3.4791,-3.611,-3.5558,-3.5415,-3.631,-3.6405,0.0,0.0,0.0,0.0,-3.5265,-3.4387,-3.3859,-3.3759,-3.335,-3.3154,0.0,0.0,0.0,0.0,0.0,0.0,0.0,0.0,0.0,-3.3124,-3.3124,0.0,-3.3124,-3.3124,-3.3124,-3.3124,-3.3124,-3.3124,-3.3124,-3.3124,-3.3124,-3.3124,-3.3124,-3.3124,-3.3124,-3.3124,-3.3124,-3.3056,-3.2955,-3.2516,-3.1951,-3.1399,-3.0871,-3.0357,-2.9905,-2.9792,-2.9792,-2.983,-2.9869,-2.9869,-2.9895,-2.9895,-2.9934,-3.0075,0.0,0.0,0.0,0.0,0.0,0.0,0.0,0.0,0.0,0.0,0.0,0.0,0.0,0.0,0.0,0.0,0.0,0.0,0.0,0.0,0.0,0.0,0.0,0.0,0.0,-2.3373,-2.3091,-2.3091,-2.3091,-2.3091,-2.3091,-2.3091,-2.3091,-2.3091,-2.3091,-2.3091,-2.3091,-2.3091,-2.3091,-2.3091,-2.3091,-2.3091,-2.3091,-2.3091,-2.3091,0.0,0.0,0.0,0.0,0.0,0.0,0.0,-3.1403,0.0,-3.3051,-3.3404,-3.3857,-3.4654,-3.4288,-3.419,-3.4678,-3.5271,-3.5319,-3.4787,-3.5528,-3.5597,-3.4785,-3.4753,0.0,-3.3909,-3.3633,-3.337,-3.3124,0.0,0.0,0.0,0.0,0.0,0.0,0.0,-3.3124,0.0,0.0,0.0,-3.3124,-3.3124,-3.3124,-3.3124,-3.3124,-3.3124,-3.3124,-3.3124,-3.3124,-3.3124,-3.3124,-3.3124,-3.3124,-3.3124,-3.3124,-3.3124,-3.3124,-3.2667,-3.2152,-3.1888,-3.1223,-3.0557,-3.0281,-3.0005,-2.9792,-2.9792,-2.9792,-2.9792,-2.9792,-2.9792,-2.983,-2.9934,-2.9934,0.0,0.0,0.0,0.0,0.0,0.0,0.0,0.0,0.0,0.0,0.0,0.0,0.0,0.0,0.0,0.0,0.0,0.0,0.0,0.0,0.0,0.0,0.0,0.0,0.0,-2.3091,-2.3091,-2.3091,-2.3091,-2.3091,-2.3091,-2.3091,-2.3091,-2.3091,-2.3091,-2.3091,-2.3091,-2.3091,-2.3091,-2.3091,-2.3091,-2.3091,-2.3091,-2.3091,0.0,-2.8069,0.0,0.0,-2.9252,0.0,-3.045,-3.0666,-3.1068,-3.2112,-3.2601,-3.2951,-3.3201,-3.3001,-3.2951,-3.3201,-3.3993,-3.4091,-3.325,-3.4775,-3.5136,-3.3887,-3.4492,-3.4472,-3.3621,-3.3362,-3.303,0.0,0.0,0.0,0.0,0.0,0.0,0.0,0.0,0.0,0.0,0.0,-3.2481,-3.2481,-3.2481,-3.2481,-3.2481,-3.2481,-3.2481,-3.2525,-3.2711,-3.2797,-3.2797,-3.3025,-3.3124,-3.3124,-3.3124,-3.3124,-3.3124,-3.3124,-3.2754,-3.2365,-3.224,-3.1512,-3.0758,-3.0645,-3.0206,-2.9792,-2.9792,-2.9792,-2.9792,-2.9792,-2.9792,-2.9792,-2.9792,-2.9663,0.0,0.0,0.0,0.0,0.0,0.0,0.0,0.0,0.0,0.0,0.0,0.0,0.0,0.0,0.0,0.0,0.0,0.0,0.0,0.0,0.0,-2.3547,-2.3503,0.0,-2.3091,0.0,-2.3091,-2.3091,-2.3091,-2.3091,-2.3091,-2.3091,-2.3091,-2.3091,-2.3091,-2.3091,-2.3091,-2.3091,-2.3091,-2.3091,-2.3091,-2.3091,-2.3091,-2.3091,0.0,0.0,0.0,0.0,0.0,0.0,0.0,-3.0078,-3.0473,-3.152,-3.1706,-3.2134,-3.3101,-3.2336,-3.2134,-3.3101,-3.33,-3.33,-3.3201,-3.34,-3.3426,-3.3281,-3.2892,-3.2651,-3.2547,-3.1575,-3.1067,0.0,0.0,0.0,0.0,0.0,0.0,0.0,0.0,0.0,0.0,-3.0486,-3.0486,-3.0486,-3.0486,-3.0486,-3.0486,-3.0486,-3.0486,-3.0576,-3.1448,-3.1713,-3.1901,-3.281,-3.3124,-3.3124,-3.3124,-3.3124,-3.3124,-3.3124,-3.3043,-3.288,-3.2353,-3.1775,-3.1198,-3.0733,-3.0206,-2.9792,-2.9792,-2.9792,-2.9792,-2.9792,-2.9792,-2.9792,-2.9792,-2.917,-2.8343,0.0,0.0,0.0,0.0,0.0,0.0,0.0,0.0,0.0,0.0,0.0,0.0,0.0,0.0,0.0,0.0,0.0,0.0,-2.4206,0.0,-2.3667,-2.3503,-2.3232,0.0,-2.3091,-2.3091,-2.3091,-2.3091,-2.3091,-2.3091,-2.3091,-2.3091,-2.3091,-2.3091,-2.3091,-2.3091,-2.3091,-2.3091,-2.3091,-2.3091,-2.3091,-2.3091,-2.3091,0.0,0.0,0.0,0.0,0.0,0.0,0.0,-2.9994,-3.0141,-3.0588,-3.064,-3.0795,-3.1249,-3.0888,-3.0795,-3.1249,-3.1891,-3.1993,-3.13,-3.2499,-3.2901,-3.2286,-3.2658,-3.2715,-3.2406,-3.1993,-3.1579,0.0,0.0,0.0,0.0,0.0,0.0,0.0,0.0,-3.0531,-3.0215,-3.0215,-3.0215,-3.0215,-3.0215,-3.0215,-3.0215,-3.0215,-3.0215,-3.026,-3.0633,-3.1125,-3.1581,-3.1392,-3.212,-3.3124,-3.3124,-3.3124,-3.3124,-3.3124,-3.3124,-3.3074,-3.2792,-3.2315,-3.175,-3.121,-3.0683,-3.0193,-2.9867,-2.9792,-2.9792,-2.9792,-2.9378,-2.8831,-2.8263,-2.7891,-2.7354,0.0,0.0,0.0,0.0,0.0,0.0,0.0,0.0,0.0,0.0,0.0,0.0,0.0,0.0,0.0,0.0,0.0,0.0,-2.398,0.0,-2.3363,-2.3276,-2.3135,-2.3091,-2.3091,-2.3091,-2.3091,-2.3091,-2.3091,-2.3091,-2.3091,-2.3091,-2.3091,-2.3091,-2.3091,-2.3091,-2.3091,-2.3091,-2.3091,-2.3091,-2.3091,-2.3091,-2.3091,-2.9032,0.0,-2.9208,0.0,-2.9591,-2.9591,-2.9591,-2.9539,-2.9477,-2.9477,-2.9435,-2.9549,-2.9963,-2.9994,-2.9994,-2.9994,-3.0692,-3.0785,-3.0047,-3.1403,-3.1891,-3.1187,-3.1841,0.0,-3.1695,-3.1539,-3.1294,-3.0829,-3.0676,0.0,0.0,0.0,0.0,0.0,-3.0156,-3.0017,-2.9726,-2.9726,-2.9726,-2.9726,-2.9726,-2.9691,-2.9586,-2.9478,-2.9422,-2.9457,-2.9577,-3.0125,-3.0678,-3.0306,-3.1125,-3.2307,-3.2581,-3.2667,-3.2711,-3.3025,-3.2896,-3.2667,-3.2667,-3.2031,-3.1332,-3.1257,-3.0691,-3.0084,-2.9739,-2.9528,-2.9339,-2.9052,-2.8514,-2.7891,-2.7232,-2.6905,-2.6524,-2.5902,0.0,0.0,0.0,0.0,0.0,0.0,-2.4497,-2.4497,-2.4497,0.0,0.0,0.0,0.0,0.0,0.0,0.0,0.0,0.0,0.0,0.0,0.0,-2.3144,-2.3091,-2.3091,-2.3091,-2.3091,-2.3091,-2.3091,-2.3091,-2.3091,-2.3091,-2.3091,-2.3091,-2.3091,-2.3091,-2.3091,-2.3091,-2.3091,-2.3091,-2.3091,-2.3091,-2.3091,-2.8618,-2.8618,-2.8628,-2.8628,-2.8628,-2.8628,-2.8628,-2.8367,-2.8207,-2.8207,-2.8036,-2.8442,-2.9849,-2.9994,-2.9994,-2.9994,-2.9994,-2.9994,-2.9994,-3.0047,-3.0047,0.0,0.0,-3.0047,-3.0036,-2.959,-2.9352,-2.9342,0.0,0.0,-2.9243,0.0,-3.0485,-3.0117,-3.0117,-2.9529,-2.8597,-2.8597,-2.8597,-2.8597,-2.8597,-2.8457,-2.8166,-2.7805,-2.7582,-2.758,-2.8125,-2.8516,-2.8899,-2.9852,-3.0215,-3.0396,-3.1315,-3.1625,-3.1801,-3.2797,-3.2394,-3.1625,-3.1625,-3.0502,-2.9565,-3.056,-2.9984,-2.915,-2.9285,-2.8915,-2.8251,-2.7313,-2.711,-2.711,-2.711,-2.64,-2.5819,-2.5777,0.0,0.0,0.0,0.0,0.0,0.0,-2.4497,-2.4497,-2.4497,0.0,0.0,0.0,0.0,0.0,0.0,0.0,0.0,-2.3797,-2.358,0.0,-2.3503,-2.3232,-2.3091,-2.3091,-2.3091,-2.3091,-2.3091,-2.3091,-2.3091,-2.3091,-2.3091,-2.3091,-2.3091,-2.3091,-2.3091,-2.3091,-2.3091,-2.3091,-2.3091,-2.3091,-2.3091,-2.3091,-2.8137,-2.8137,-2.8137,-2.8137,-2.8137,-2.8137,-2.8137,-2.8026,-2.7975,-2.7975,-2.7935,-2.8046,-2.8533,-2.8828,-2.9081,0.0,-2.9406,-2.9406,0.0,-2.9406,-2.9406,-2.9406,-2.9406,-2.9511,-2.9722,-2.9578,-2.961,-2.9777,0.0,0.0,0.0,-2.9108,-2.9193,-2.9105,-2.9105,-2.8906,-2.8568,-2.8378,-2.8328,-2.8328,-2.8116,-2.8016,-2.7905,-2.7804,-2.7511,-2.7278,-2.7613,-2.8052,-2.8423,-2.8258,-2.8631,-2.9222,-2.9543,-3.0531,-3.1669,-3.1989,-3.1857,-3.1581,-3.1581,-3.0772,-2.9882,-2.979,-2.9497,-2.9079,-2.8435,-2.7888,-2.7313,-2.64,-2.6193,-2.6038,-2.5432,-2.5105,-2.4893,-2.4893,-2.47,0.0,0.0,0.0,0.0,0.0,-2.4497,-2.4497,0.0,-2.4368,0.0,0.0,0.0,0.0,0.0,0.0,0.0,0.0,-2.3363,0.0,-2.3232,-2.3144,-2.3091,-2.3091,-2.3091,-2.3091,-2.3091,-2.3091,-2.3091,-2.3091,-2.3091,-2.3091,-2.3091,-2.3091,-2.3091,-2.3091,-2.3091,-2.3091,-2.3091,-2.3091,-2.3091,-2.3091,-2.7381,-2.7381,-2.7381,-2.7381,-2.7381,-2.7381,-2.7381,-2.7282,-2.7232,-2.7232,-2.7132,-2.7152,-2.7322,-2.7581,0.0,-2.8788,-2.9031,-2.9079,-2.9079,-2.9079,-2.9079,-2.9079,-2.9079,-2.9185,-2.9396,0.0,0.0,-2.9837,-2.9653,-2.9363,-2.8972,-2.9084,-2.9023,-2.8768,-2.8921,-2.8921,-2.8768,-2.8625,-2.8522,-2.8522,-2.8358,-2.8214,-2.8091,-2.7973,-2.7742,-2.7402,-2.7271,-2.7485,-2.7772,-2.7208,-2.7384,-2.7882,-2.7882,-2.8923,-3.0328,-3.089,-3.0812,-3.0498,-3.0498,-2.9806,-2.9098,-2.9094,-2.8914,-2.8521,-2.7543,-2.683,-2.6185,-2.5464,-2.5306,-2.5137,-2.4615,-2.4497,-2.4497,-2.4497,-2.4497,-2.4497,-2.4497,0.0,0.0,0.0,0.0,0.0,0.0,-2.4335,0.0,0.0,0.0,0.0,0.0,0.0,0.0,-2.3363,-2.3188,0.0,-2.3091,-2.3091,-2.3091,-2.3091,-2.3091,-2.3091,-2.3091,-2.3091,-2.3091,-2.3091,-2.3091,-2.3091,-2.3091,-2.3091,-2.3091,-2.3091,-2.3091,-2.3091,-2.3091,-2.3091,-2.3091,-2.3091,-2.6448,-2.6448,0.0,0.0,-2.6448,0.0,-2.6448,-2.6245,-2.6052,-2.6052,-2.5868,-2.5889,-2.6299,-2.6367,-2.6911,-2.8224,0.0,0.0,0.0,-2.9006,-2.9026,-2.9026,-2.9026,-2.9026,-2.9079,-2.9396,-2.9554,-2.9554,-2.9837,-2.9827,-2.9554,-2.9827,-2.9617,-2.9132,-2.9448,-2.9396,-2.9079,-2.9079,-2.9079,-2.9079,-2.9026,-2.8877,-2.8635,-2.8261,-2.8031,-2.786,-2.7081,-2.6894,-2.703,-2.6677,-2.6526,-2.6496,-2.6496,-2.7125,-2.8111,-2.9601,-2.9395,-2.8667,-2.8667,-2.7998,-2.7489,-2.8362,-2.818,-2.7594,-2.6693,-2.5814,-2.5065,-2.4631,-2.4518,-2.4497,-2.4497,-2.4497,-2.4497,-2.4497,-2.4497,-2.4497,-2.4497,0.0,0.0,0.0,0.0,0.0,0.0,-2.4282,-2.4067,0.0,0.0,0.0,0.0,0.0,-2.3363,-2.3101,-2.3091,-2.3091,-2.3091,-2.3091,-2.3091,-2.3091,-2.3091,-2.3091,-2.3091,-2.3091,-2.3091,-2.3091,-2.3091,-2.3091,-2.3091,-2.3091,-2.3091,-2.3091,-2.3091,-2.3091,-2.3091,-2.3091,-2.3091,-2.3091,0.0,0.0,-2.5878,-2.5878,-2.5878,-2.5878,-2.5878,-2.583,-2.5781,-2.5781,-2.5732,-2.5732,-2.583,-2.6191,-2.6515,-2.6871,-2.758,-2.8022,-2.8022,-2.8327,-2.8504,-2.8504,-2.8504,-2.8611,-2.8781,-2.8887,-2.9036,-2.9237,-2.929,-2.929,-2.9237,-2.929,-2.9237,-2.9079,-2.9185,-2.9185,-2.9079,-2.8877,-2.8781,-2.8781,-2.8558,-2.8451,-2.8388,-2.828,-2.8045,-2.7741,-2.7732,-2.733,-2.6883,-2.6931,-2.6768,-2.6496,-2.6496,-2.663,-2.703,-2.8121,-2.8402,-2.8366,-2.8366,-2.7846,-2.7347,-2.7584,-2.7274,-2.6829,-2.6655,-2.5844,-2.5158,-2.5055,-2.4745,-2.4497,-2.4497,-2.4497,-2.4497,-2.4497,-2.4497,-2.4497,-2.4497,-2.4497,0.0,0.0,-2.4497,-2.4497,-2.4497,-2.4143,-2.3927,0.0,0.0,0.0,0.0,-2.3276,-2.3188,-2.3091,-2.3091,-2.3091,-2.3091,-2.3091,-2.3091,-2.3091,-2.3091,-2.3091,-2.3091,-2.3091,-2.3091,-2.3091,-2.3091,-2.3091,-2.3091,-2.3091,-2.3091,-2.3091,-2.3091,-2.3091,-2.3091,-2.3091,-2.3091,-2.3091,-2.5732,-2.5693,-2.5693,-2.5693,-2.5693,-2.5693,-2.5693,-2.5693,-2.5693,-2.5693,-2.5693,-2.5693,-2.5693,-2.5947,-2.6094,-2.6094,-2.6875,-2.7451,-2.7708,-2.7881,-2.8096,-2.8281,-2.8291,-2.8354,-2.8514,-2.8621,-2.8834,-2.9079,-2.9079,-2.9036,-2.893,-2.9026,-2.8973,-2.8771,-2.8877,-2.8877,-2.8717,-2.8568,-2.8514,-2.8514,-2.8344,-2.8291,-2.8291,-2.8291,-2.8144,-2.7982,-2.7891,-2.7432,-2.6882,-2.6834,-2.6477,-2.612,-2.612,-2.612,-2.6255,-2.6744,-2.7163,-2.7505,-2.7505,-2.7194,-2.6928,-2.6928,-2.6839,-2.6697,-2.6491,-2.6104,-2.573,-2.5272,-2.4993,-2.4745,-2.4538,-2.4497,-2.4497,-2.4497,-2.4497,-2.4497,-2.4497,-2.4497,0.0,-2.4497,-2.4497,-2.4454,-2.4378,-2.4013,-2.3797,-2.3894,0.0,0.0,-2.3319,-2.3188,-2.3091,-2.3091,-2.3091,-2.3091,-2.3091,-2.3091,-2.3091,-2.3091,-2.3091,-2.3091,-2.3091,-2.3091,-2.3091,-2.3091,-2.3091,-2.3091,-2.3091,-2.3091,-2.3091,-2.3091,-2.3091,-2.3091,-2.3091,-2.3091,-2.3091,-2.3091,-2.5918,-2.5791,-2.5762,-2.5703,-2.5693,-2.5693,-2.5693,-2.5693,-2.5693,-2.5693,-2.5693,-2.5693,-2.5693,-2.5693,-2.5693,-2.5693,-2.6356,-2.7002,-2.7441,-2.765,-2.7822,-2.8184,-2.8262,-2.8291,-2.8291,-2.8514,-2.8727,-2.8973,-2.8973,-2.8877,-2.8621,-2.8877,-2.8771,-2.8291,-2.8514,-2.8514,-2.8291,-2.8291,-2.8291,-2.8291,-2.8291,-2.8291,-2.8291,-2.8291,-2.8291,-2.8252,-2.7891,-2.748,-2.7051,-2.6621,-2.6201,-2.5771,-2.5713,-2.5693,-2.5693,-2.5693,-2.6024,-2.64,-2.6448,-2.6448,-2.6496,-2.6496,-2.6651,-2.6751,-2.6364,-2.6351,-2.6259,-2.5506,-2.5238,-2.5021,-2.4673,-2.4549,-2.4497,-2.4497,-2.4497,-2.4497,-2.4454,0.0,-2.4497,-2.4454,-2.4454,-2.4368,-2.4206,-2.3937,-2.3667,-2.3503,-2.3232,-2.3091,0.0,-2.3091,-2.3091,-2.3091,-2.3091,-2.3091,-2.3091,-2.3091,-2.3091,-2.3091,-2.3091,-2.3091,-2.3091,-2.3091,-2.3091,-2.3091,-2.3091,-2.3091,-2.3091,-2.3091,-2.3091,-2.3091,-2.3091,-2.3091,-2.3091,-2.3091,-2.3091,-2.3091,-2.6367,-2.6289,-2.6172,-2.5752,-2.5693,-2.5693,-2.5693,-2.5693,-2.5693,-2.5693,-2.5693,-2.5693,-2.5693,-2.5693,-2.5693,-2.5693,-2.581,-2.6123,-2.6553,-2.7266,-2.7748,-2.7816,-2.8105,-2.8291,-2.8291,-2.8344,-2.8398,-2.8398,-2.8398,-2.8398,-2.8344,-2.8398,-2.8398,-2.8291,-2.8344,-2.8344,-2.8291,-2.8291,-2.8291,-2.8291,-2.8291,-2.8291,-2.8291,-2.8291,-2.8291,-2.8281,-2.8223,-2.793,-2.75,-2.706,-2.6641,-2.6221,-2.581,-2.5693,-2.5693,-2.5693,-2.5781,-2.5878,-2.61,-2.6352,-2.6496,-2.6496,-2.6544,-2.6534,-2.6464,-2.6199,-2.5932,-2.6043,-2.54,-2.4927,-2.5042,-2.4766,-2.4497,-2.4497,-2.4497,-2.4454,-2.4282,0.0,-2.4454,-2.4249,-2.4249,-2.4249,-2.4206,-2.3807,-2.3547,-2.3503,-2.3232,-2.3091,-2.3091,-2.3091,-2.3091,-2.3091,-2.3091,-2.3091,-2.3091,-2.3091,-2.3091,-2.3091,-2.3091,-2.3091,-2.3091,-2.3091,-2.3091,-2.3091,-2.3091,-2.3091,-2.3091,-2.3091,-2.3091,-2.3091,-2.3091,-2.3091,-2.3091,-2.3091,-2.3091,-2.3091,-2.6816,-2.6728,-2.666,-2.6455,-2.624,-2.6084,-2.6084,-2.584,-2.5693,-2.5693,-2.5693,-2.5693,-2.5693,-2.5693,-2.5693,-2.5693,-2.5693,-2.5771,-2.6025,-2.6631,-2.7187,-2.7699,-2.7851,-2.8057,-2.8291,-2.8291,-2.8291,-2.8291,-2.8291,-2.8291,-2.8291,-2.8291,-2.8291,-2.8291,-2.8291,-2.8291,-2.8291,-2.8291,-2.8291,-2.8291,-2.8291,-2.8291,-2.8291,-2.8291,-2.8291,-2.8291,-2.8291,-2.8027,-2.765,-2.7168,-2.6738,-2.6309,-2.583,-2.5693,-2.5693,-2.5693,-2.5693,-2.5732,-2.5868,-2.5965,-2.6072,-2.6072,-2.6159,-2.6294,-2.6294,-2.624,-2.6124,-2.6023,-2.5649,-2.526,-2.504,-2.4828,-2.4602,-2.4366,-2.4335,0.0,0.0,-2.4057,-2.411,-2.398,-2.398,-2.3937,-2.3807,-2.3634,-2.346,-2.3319,-2.3188,-2.3091,-2.3091,-2.3091,-2.3091,-2.3091,-2.3091,-2.3091,-2.3091,-2.3091,-2.3091,-2.3091,-2.3091,-2.3091,-2.3091,-2.3091,-2.3091,-2.3091,-2.3091,-2.3091,-2.3091,-2.3091,-2.3091,-2.3091,-2.3091,-2.3091,-2.3091,-2.3091,-2.3091,-2.3091,-2.7246,-2.7168,-2.7139,-2.7031,-2.6748,-2.6533,-2.6533,-2.625,-2.5947,-2.5849,-2.584,-2.5801,-2.5703,-2.5693,-2.5693,-2.5693,-2.5693,-2.5693,-2.5693,-2.6055,-2.6572,-2.7334,-2.7611,-2.7861,-2.8281,-2.8291,-2.8291,-2.8291,-2.8291,-2.8291,-2.8291,-2.8291,-2.8291,-2.8291,-2.8291,-2.8291,-2.8291,-2.8291,-2.8291,-2.8291,-2.8291,-2.8291,-2.8291,-2.8291,-2.8291,-2.8291,-2.8291,-2.8086,-2.7734,-2.7197,-2.6797,-2.6445,-2.5859,-2.5693,-2.5693,-2.5693,-2.5693,-2.5693,-2.5693,-2.5732,-2.5781,-2.5742,-2.5917,-2.6091,-2.6004,-2.6159,-2.6204,-2.5912,-2.5799,-2.5565,-2.5118,-2.4869,-2.4615,-2.4323,0.0,0.0,0.0,-2.3754,-2.3797,-2.3754,-2.3711,-2.3667,-2.3503,-2.346,-2.3319,-2.3135,-2.3091,-2.3091,-2.3091,-2.3091,-2.3091,-2.3091,-2.3091,-2.3091,-2.3091,-2.3091,-2.3091,-2.3091,-2.3091,-2.3091,-2.3091,-2.3091,-2.3091,-2.3091,-2.3091,-2.3091,-2.3091,-2.3091,-2.3091,-2.3091,-2.3091,-2.3091,-2.3091,-2.3091,-2.3091,-2.3091,-2.7748,-2.7669,-2.749,-2.709,-2.6992,-2.6973,-2.6973,-2.6943,-2.6777,-2.6396,-2.6338,-2.6182,-2.5732,-2.5693,-2.5693,-2.5693,-2.5693,-2.5693,-2.5693,-2.5713,-2.5986,-2.6465,-2.7297,-2.7861,-2.8281,-2.8291,-2.8291,-2.8291,-2.8291,-2.8291,-2.8291,-2.8291,-2.8291,-2.8291,-2.8291,-2.8291,-2.8291,-2.8291,-2.8291,-2.8291,-2.8291,-2.8291,-2.8291,-2.8291,-2.8291,-2.8291,-2.8291,-2.8271,-2.8125,-2.7295,-2.6992,-2.6826,-2.5947,-2.5693,-2.5693,-2.5693,-2.5693,-2.5693,-2.5693,-2.5868,-2.6004,-2.5781,-2.5917,-2.6052,-2.5781,-2.5732,-2.582,-2.6013,-2.5724,-2.5511,-2.5695,-2.5068,-2.4504,-2.4464,0.0,0.0,-2.3547,-2.3667,-2.3711,-2.3547,-2.3503,-2.3503,-2.3503,-2.3276,-2.3135,-2.3091,-2.3091,-2.3091,-2.3091,-2.3091,-2.3091,-2.3091,-2.3091,-2.3091,-2.3091,-2.3091,-2.3091,-2.3091,-2.3091,-2.3091,-2.3091,-2.3091,-2.3091,-2.3091,-2.3091,-2.3091,-2.3091,-2.3091,-2.3091,-2.3091,-2.3091,-2.3091,-2.3091,-2.3091,-2.3091,-2.3091,-2.8086,-2.8057,-2.7998,-2.7832,-2.7598,-2.7412,-2.7412,-2.7187,-2.6963,-2.6797,-2.6777,-2.6611,-2.6182,-2.6143,-2.6035,-2.5713,-2.5693,-2.5693,-2.5693,-2.5693,-2.5937,-2.6367,-2.7207,-2.7796,-2.79,-2.8164,-2.8291,-2.8291,-2.8291,-2.8291,-2.8291,-2.8291,-2.8291,-2.8291,-2.8291,-2.8291,-2.8291,-2.8291,-2.8291,-2.8291,-2.8291,-2.8291,-2.8291,-2.8291,-2.8291,-2.8291,-2.8291,-2.8291,-2.8203,-2.7617,-2.7236,-2.6914,-2.6328,-2.5908,-2.5693,-2.5693,-2.5693,-2.5732,-2.5917,-2.5917,-2.582,-2.5732,-2.5781,-2.583,-2.5732,-2.5693,-2.5732,-2.582,-2.5692,-2.5582,-2.5543,-2.5262,-2.4999,-2.473,0.0,-2.4252,-2.3762,-2.3767,-2.3668,-2.3305,-2.3232,-2.3232,-2.3232,-2.3144,-2.3091,-2.3091,-2.3091,-2.3091,-2.3091,-2.3091,-2.3091,-2.3091,-2.3091,-2.3091,-2.3091,-2.3091,-2.3091,-2.3091,-2.3091,-2.3091,-2.3091,-2.3091,-2.3091,-2.3091,-2.3091,-2.3091,-2.3091,-2.3091,-2.3091,-2.3091,-2.3091,-2.3091,-2.3091,-2.3091,-2.3091,-2.3091,-2.8291,-2.8291,-2.8291,-2.8291,-2.8057,-2.7861,-2.7861,-2.7607,-2.7373,-2.7236,-2.7217,-2.706,-2.6631,-2.6592,-2.6416,-2.5977,-2.5947,-2.584,-2.5703,-2.5693,-2.5937,-2.6367,-2.6953,-2.7444,-2.7708,-2.7949,-2.8164,-2.8291,-2.8291,-2.8291,-2.8291,-2.8291,-2.8291,-2.8291,-2.8291,-2.8291,-2.8291,-2.8291,-2.8291,-2.8291,-2.8291,-2.8291,-2.8291,-2.8291,-2.8291,-2.8291,-2.8291,-2.8291,-2.8232,-2.7865,-2.7373,-2.6943,-2.6523,-2.6133,-2.583,-2.5927,-2.5975,-2.5965,-2.6052,-2.5965,-2.583,-2.583,-2.5878,-2.5927,-2.5742,-2.5693,-2.5693,-2.5693,-2.5693,-2.5644,-2.5523,-2.5393,-2.5206,-2.4957,-2.4789,-2.451,-2.4069,-2.3984,-2.3877,-2.353,-2.35,-2.3442,-2.3315,-2.3305,-2.3247,-2.311,-2.3091,-2.3091,-2.3091,-2.3091,-2.3091,-2.3091,-2.3091,-2.3091,-2.3091,-2.3091,-2.3091,-2.3091,-2.3091,-2.3091,-2.3091,-2.3091,-2.3091,-2.3091,-2.3091,-2.3091,-2.3091,-2.3091,-2.3091,-2.3091,-2.3091,-2.3091,-2.3091,-2.3091,-2.3091,-2.3091,-2.8291,-2.8291,-2.8291,-2.8291,-2.8291,-2.8291,-2.8291,-2.8291,-2.8144,-2.7777,-2.7718,-2.751,-2.707,-2.7021,-2.6846,-2.6426,-2.6387,-2.6201,-2.5713,-2.5693,-2.5937,-2.6367,-2.6387,-2.6787,-2.7699,-2.7718,-2.7924,-2.8291,-2.8291,-2.8291,-2.8291,-2.8291,-2.8291,-2.8291,-2.8291,-2.8291,-2.8291,-2.8291,-2.8291,-2.8291,-2.8291,-2.8291,-2.8291,-2.8291,-2.8291,-2.8291,-2.8291,-2.8291,-2.8232,-2.7812,-2.7383,-2.6943,-2.6523,-2.6271,-2.6149,-2.64,-2.6496,-2.6448,-2.6197,-2.61,-2.61,-2.61,-2.6294,-2.6352,-2.583,-2.5693,-2.5693,-2.5693,-2.5693,-2.5693,-2.5693,-2.5371,-2.5116,-2.5116,-2.4707,-2.4424,-2.4424,-2.4424,-2.4424,-2.4414,-2.4414,-2.4248,-2.3838,-2.3799,-2.3613,-2.314,-2.3101,-2.3101,-2.3101,-2.3091,-2.3091,-2.3091,-2.3091,-2.3091,-2.3091,-2.3091,-2.3091,-2.3091,-2.3091,-2.3091,-2.3091,-2.3091,-2.3091,-2.3091,-2.3091,-2.3091,-2.3091,-2.3091,-2.3091,-2.3091,-2.3091,-2.3091,-2.3091,-2.3091,-2.3091,-2.3091,-2.8291,-2.8291,-2.8291,-2.8291,-2.8291,-2.8291,-2.8291,-2.8291,-2.8252,-2.8125,-2.8105,-2.7939,-2.7519,-2.7471,-2.7295,-2.6865,-2.6562,-2.6201,-2.5713,-2.5693,-2.5742,-2.5879,-2.6221,-2.665,-2.7197,-2.751,-2.7924,-2.8291,-2.8291,-2.8291,-2.8291,-2.8291,-2.8291,-2.8291,-2.8291,-2.8291,-2.8291,-2.8291,-2.8291,-2.8291,-2.8291,-2.8291,-2.8291,-2.8291,-2.8291,-2.8291,-2.8291,-2.8291,-2.8271,-2.8144,-2.797,-2.7685,-2.7152,-2.6565,-2.6149,-2.64,-2.6352,-2.6294,-2.6602,-2.6651,-2.6544,-2.6197,-2.6014,-2.5975,-2.5965,-2.583,-2.5693,-2.5693,-2.5693,-2.5693,-2.5693,-2.5577,-2.5537,-2.5537,-2.5382,-2.5234,-2.4922,-2.4873,-2.4756,-2.4453,-2.4414,-2.4365,-2.4238,-2.4228,-2.417,-2.3997,-2.376,-2.3594,-2.3594,-2.3257,-2.3091,-2.3091,-2.3091,-2.3091,-2.3091,-2.3091,-2.3091,-2.3091,-2.3091,-2.3091,-2.3091,-2.3091,-2.3091,-2.3091,-2.3091,-2.3091,-2.3091,-2.3091,-2.3091,-2.3091,-2.3091,-2.3091,-2.3091,-2.3091,-2.3091,-2.3091,-2.8291,-2.8291,-2.8291,-2.8291,-2.8291,-2.8291,-2.8291,-2.8291,-2.8291,-2.8291,-2.8291,-2.8193,-2.7939,-2.792,-2.7744,-2.7314,-2.6728,-2.6279,-2.6016,-2.5781,-2.5693,-2.5693,-2.5986,-2.6328,-2.6758,-2.7187,-2.7617,-2.8047,-2.8213,-2.8291,-2.8291,-2.8291,-2.8291,-2.8291,-2.8291,-2.8291,-2.8291,-2.8291,-2.8291,-2.8291,-2.8291,-2.8291,-2.8291,-2.8291,-2.8291,-2.8291,-2.8291,-2.8291,-2.8291,-2.8408,-2.8259,-2.7932,-2.7481,-2.6897,-2.6448,-2.6736,-2.6678,-2.6582,-2.6699,-2.6747,-2.6651,-2.6352,-2.6159,-2.6024,-2.5965,-2.583,-2.5693,-2.5693,-2.5693,-2.5693,-2.5693,-2.5693,-2.5693,-2.5693,-2.5693,-2.5644,-2.5371,-2.5332,-2.5234,-2.4971,-2.4894,-2.4863,-2.4697,-2.4678,-2.46,-2.4424,-2.418,-2.4043,-2.4043,-2.3789,-2.3598,-2.3598,-2.3442,-2.3398,-2.3398,-2.3179,-2.3091,-2.3091,-2.3091,-2.3091,-2.3091,-2.3091,-2.3091,-2.3091,-2.3091,-2.3091,-2.3091,-2.3091,-2.3091,-2.3091,-2.3091,-2.3091,-2.3091,-2.3091,-2.3091,-2.3091,-2.8291,-2.8291,-2.8291,-2.8291,-2.8291,-2.8291,-2.8291,-2.8291,-2.8291,-2.8291,-2.8291,-2.8291,-2.8291,-2.8291,-2.8135,-2.7806,-2.6973,-2.6465,-2.6396,-2.6016,-2.5732,-2.5693,-2.5693,-2.5918,-2.6328,-2.6738,-2.7197,-2.7718,-2.8047,-2.8252,-2.8291,-2.8291,-2.8291,-2.8291,-2.8291,-2.8291,-2.8291,-2.8291,-2.8291,-2.8291,-2.8291,-2.8291,-2.8291,-2.8291,-2.8291,-2.8291,-2.8291,-2.8291,-2.8344,-2.8621,-2.8381,-2.7844,-2.7747,-2.7347,-2.6999,-2.7225,-2.7262,-2.7167,-2.6688,-2.6544,-2.6544,-2.6544,-2.6496,-2.6352,-2.5878,-2.5732,-2.5693,-2.5693,-2.5693,-2.5693,-2.5693,-2.5693,-2.5693,-2.5693,-2.5693,-2.5693,-2.5693,-2.5693,-2.5693,-2.5693,-2.5693,-2.5576,-2.5166,-2.5127,-2.4961,-2.457,-2.4492,-2.4473,-2.4473,-2.4443,-2.4414,-2.4414,-2.4043,-2.3848,-2.3848,-2.3374,-2.314,-2.3091,-2.3091,-2.3091,-2.3091,-2.3091,-2.3091,-2.3091,-2.3091,-2.3091,-2.3091,-2.3091,-2.3091,-2.3091,-2.3091,-2.3091,-2.3091,-2.3091,-2.3091,-2.3091,-2.8291,-2.8291,-2.8291,-2.8291,-2.8291,-2.8291,-2.8291,-2.8291,-2.8291,-2.8291,-2.8291,-2.8291,-2.8291,-2.8291,-2.8252,-2.8164,-2.7685,-2.7151,-2.6435,-2.6299,-2.6094,-2.5703,-2.5693,-2.5732,-2.583,-2.6299,-2.6894,-2.7718,-2.7806,-2.7969,-2.8291,-2.8291,-2.8291,-2.8291,-2.8291,-2.8291,-2.8291,-2.8291,-2.8291,-2.8291,-2.8291,-2.8291,-2.8291,-2.8291,-2.8291,-2.8291,-2.8291,-2.8291,-2.8344,-2.8867,-2.8842,-2.8635,-2.8468,-2.7955,-2.7426,-2.7318,-2.7177,-2.6996,-2.7119,-2.7119,-2.7071,-2.689,-2.6651,-2.6448,-2.6352,-2.6024,-2.5693,-2.5693,-2.5693,-2.5693,-2.5693,-2.5693,-2.5693,-2.5693,-2.5693,-2.5693,-2.5693,-2.5693,-2.5693,-2.5693,-2.5693,-2.5654,-2.5605,-2.5596,-2.5557,-2.5411,-2.5127,-2.4969,-2.4969,-2.46,-2.4414,-2.4414,-2.4326,-2.4277,-2.4277,-2.3857,-2.3477,-2.3091,-2.3091,-2.3091,-2.3091,-2.3091,-2.3091,-2.3091,-2.3091,-2.3091,-2.3091,-2.3091,-2.3091,-2.3091,-2.3091,-2.3091,-2.3091,-2.3091,-2.3091,-2.3091,-2.8291,-2.8291,-2.8291,-2.8291,-2.8291,-2.8291,-2.8291,-2.8291,-2.8291,-2.8291,-2.8291,-2.8291,-2.8291,-2.8291,-2.8291,-2.8291,-2.791,-2.7532,-2.7031,-2.6611,-2.6289,-2.6055,-2.5801,-2.5693,-2.5693,-2.5967,-2.6494,-2.7363,-2.7568,-2.7933,-2.8291,-2.8291,-2.8291,-2.8291,-2.8291,-2.8291,-2.8291,-2.8291,-2.8291,-2.8291,-2.8291,-2.8291,-2.8291,-2.8291,-2.8291,-2.8291,-2.8291,-2.8451,-2.8708,-2.9026,-2.9112,-2.9034,-2.8712,-2.8198,-2.7695,-2.7396,-2.7214,-2.7081,-2.7129,-2.7129,-2.7034,-2.6794,-2.6496,-2.6304,-2.6304,-2.5975,-2.5693,-2.5693,-2.5693,-2.5693,-2.5693,-2.5693,-2.5693,-2.5693,-2.5693,-2.5693,-2.5693,-2.5693,-2.5693,-2.5693,-2.5693,-2.5693,-2.5693,-2.5693,-2.5693,-2.5693,-2.5518,-2.5391,-2.5391,-2.5176,-2.5001,-2.5001,-2.4834,-2.4727,-2.4727,-2.4297,-2.3877,-2.3447,-2.3198,-2.3091,-2.3091,-2.3091,-2.3091,-2.3091,-2.3091,-2.3091,-2.3091,-2.3091,-2.3091,-2.3091,-2.3091,-2.3091,-2.3091,-2.3091,-2.3091,-2.3091,-2.8291,-2.8291,-2.8291,-2.8291,-2.8291,-2.8291,-2.8291,-2.8291,-2.8291,-2.8291,-2.8291,-2.8291,-2.8291,-2.8291,-2.8291,-2.8291,-2.7978,-2.7796,-2.7718,-2.7002,-2.6543,-2.6396,-2.6045,-2.5762,-2.5693,-2.5693,-2.6074,-2.6904,-2.7344,-2.7773,-2.8184,-2.8262,-2.8291,-2.8291,-2.8291,-2.8291,-2.8291,-2.8291,-2.8291,-2.8291,-2.8291,-2.8291,-2.8291,-2.8291,-2.8291,-2.8291,-2.8291,-2.8611,-2.9026,-2.9132,-2.9257,-2.927,-2.8783,-2.8349,-2.7935,-2.7455,-2.7309,-2.7262,-2.7034,-2.6948,-2.689,-2.6651,-2.6352,-2.6149,-2.6091,-2.5868,-2.5693,-2.5693,-2.5693,-2.5693,-2.5693,-2.5693,-2.5693,-2.5693,-2.5693,-2.5693,-2.5693,-2.5693,-2.5693,-2.5693,-2.5693,-2.5693,-2.5693,-2.5693,-2.5693,-2.5693,-2.5693,-2.5693,-2.5693,-2.5693,-2.5693,-2.5693,-2.5371,-2.5185,-2.5185,-2.4746,-2.4355,-2.4004,-2.3496,-2.3169,-2.3091,-2.3091,-2.3091,-2.3091,-2.3091,-2.3091,-2.3091,-2.3091,-2.3091,-2.3091,-2.3091,-2.3091,-2.3091,-2.3091,-2.3091,-2.3091,-2.8291,-2.8291,-2.8291,-2.8291,-2.8291,-2.8291,-2.8291,-2.8291,-2.8291,-2.8291,-2.8291,-2.8291,-2.8291,-2.8291,-2.8291,-2.8291,-2.8242,-2.8057,-2.7738,-2.7611,-2.7209,-2.6426,-2.6328,-2.6123,-2.5693,-2.5693,-2.5977,-2.6475,-2.6894,-2.7324,-2.7806,-2.8125,-2.8291,-2.8291,-2.8291,-2.8291,-2.8291,-2.8291,-2.8291,-2.8291,-2.8291,-2.8291,-2.8291,-2.8291,-2.8291,-2.8291,-2.8291,-2.8514,-2.8834,-2.9353,-2.9565,-2.9475,-2.8776,-2.8566,-2.8359,-2.7558,-2.7309,-2.7309,-2.7262,-2.7262,-2.7167,-2.689,-2.6651,-2.64,-2.6149,-2.5868,-2.5693,-2.5693,-2.5693,-2.5693,-2.5693,-2.5693,-2.5693,-2.5693,-2.5693,-2.5693,-2.5693,-2.5693,-2.5693,-2.5693,-2.5693,-2.5693,-2.5693,-2.5693,-2.5693,-2.5693,-2.5693,-2.5693,-2.5693,-2.5693,-2.5693,-2.5693,-2.5625,-2.5596,-2.5596,-2.5205,-2.4998,-2.493,-2.4082,-2.3506,-2.3091,-2.3091,-2.3091,-2.3091,-2.3091,-2.3091,-2.3091,-2.3091,-2.3091,-2.3091,-2.3091,-2.3091,-2.3091,-2.3091,-2.3091,-2.3091,-2.8291,-2.8291,-2.8291,-2.8291,-2.8291,-2.8291,-2.8291,-2.8291,-2.8291,-2.8291,-2.8291,-2.8291,-2.8291,-2.8291,-2.8291,-2.8291,-2.8291,-2.8213,-2.8027,-2.7793,-2.7552,-2.7119,-2.6641,-2.6299,-2.6103,-2.581,-2.5781,-2.6025,-2.6455,-2.7012,-2.7718,-2.7851,-2.8066,-2.8291,-2.8291,-2.8291,-2.8291,-2.8291,-2.8291,-2.8291,-2.8291,-2.8291,-2.8291,-2.8291,-2.8291,-2.8291,-2.8461,-2.8727,-2.8983,-2.9448,-2.9606,-2.9546,-2.9106,-2.8623,-2.8034,-2.7577,-2.7266,-2.7081,-2.7081,-2.7081,-2.6986,-2.6747,-2.6448,-2.6207,-2.5917,-2.5781,-2.5693,-2.5693,-2.5693,-2.5693,-2.5693,-2.5693,-2.5693,-2.5693,-2.5693,-2.5693,-2.5693,-2.5693,-2.5693,-2.5693,-2.5693,-2.5693,-2.5693,-2.5693,-2.5693,-2.5693,-2.5693,-2.5693,-2.5693,-2.5693,-2.5693,-2.5693,-2.5693,-2.5693,-2.5693,-2.5537,-2.5312,-2.5106,-2.4734,-2.415,-2.3496,-2.3208,-2.3091,-2.3091,-2.3091,-2.3091,-2.3091,-2.3091,-2.3091,-2.3091,-2.3091,-2.3091,-2.3091,-2.3091,-2.3091,-2.3091]},{"header":{"parameterUnit":"m.s-1","parameterCategory":1,"la1":30.6,"la2":28.766,"lo1":-90.7593,"lo2":-88.6598,"dy":0.0162,"dx":0.0183,"nx":116,"ny":114,"refTime":"2023-03-18T18:00:00:Z","depth":0,"parameterNumber":3,"parameterNumberName":"V-component_of_WINDS"},"data":[0.0,0.0,0.0,0.0,0.0,0.0,0.0,0.0,0.0,0.0,0.0,0.0,0.0,0.0,0.0,0.0,0.0,0.0,0.0,0.0,0.0,0.0,0.0,0.0,0.0,0.0,0.0,0.0,0.0,0.0,0.0,0.0,0.0,0.0,0.0,0.0,0.0,0.0,0.0,0.0,0.0,0.0,0.0,0.0,0.0,0.0,0.0,0.0,0.0,0.0,0.0,0.0,0.0,0.0,0.0,0.0,0.0,0.0,0.0,0.0,0.0,0.0,0.0,0.0,0.0,0.0,0.0,0.0,0.0,0.0,0.0,0.0,0.0,0.0,0.0,0.0,0.0,0.0,0.0,0.0,0.0,0.0,0.0,0.0,0.0,0.0,0.0,0.0,0.0,0.0,0.0,0.0,0.0,0.0,0.0,0.0,0.0,0.0,0.0,0.0,0.0,0.0,0.0,0.0,0.0,0.0,0.0,0.0,0.0,0.0,0.0,0.0,0.0,0.0,0.0,0.0,0.0,0.0,0.0,0.0,0.0,0.0,0.0,0.0,0.0,0.0,0.0,0.0,0.0,0.0,0.0,0.0,0.0,0.0,0.0,0.0,0.0,0.0,0.0,0.0,0.0,0.0,0.0,0.0,0.0,0.0,0.0,0.0,0.0,0.0,0.0,0.0,0.0,0.0,0.0,0.0,0.0,0.0,0.0,0.0,0.0,0.0,0.0,0.0,0.0,0.0,0.0,0.0,0.0,0.0,0.0,0.0,0.0,0.0,0.0,0.0,0.0,0.0,0.0,0.0,0.0,0.0,0.0,0.0,0.0,0.0,0.0,0.0,0.0,0.0,0.0,0.0,0.0,0.0,0.0,0.0,0.0,0.0,0.0,0.0,0.0,0.0,0.0,0.0,0.0,0.0,0.0,0.0,0.0,0.0,0.0,0.0,0.0,0.0,0.0,0.0,0.0,0.0,0.0,0.0,0.0,0.0,0.0,0.0,0.0,0.0,0.0,0.0,0.0,0.0,0.0,0.0,0.0,0.0,0.0,0.0,0.0,0.0,0.0,0.0,0.0,0.0,0.0,0.0,0.0,0.0,0.0,0.0,0.0,0.0,0.0,0.0,0.0,0.0,0.0,0.0,0.0,0.0,0.0,0.0,0.0,0.0,0.0,0.0,0.0,0.0,0.0,0.0,0.0,0.0,0.0,0.0,0.0,0.0,0.0,0.0,0.0,0.0,0.0,0.0,0.0,0.0,0.0,0.0,0.0,0.0,0.0,0.0,0.0,0.0,0.0,0.0,0.0,0.0,0.0,0.0,0.0,0.0,0.0,0.0,0.0,0.0,0.0,0.0,0.0,0.0,0.0,0.0,0.0,0.0,0.0,0.0,0.0,0.0,0.0,0.0,0.0,0.0,0.0,0.0,0.0,0.0,0.0,0.0,0.0,0.0,0.0,0.0,0.0,0.0,0.0,0.0,0.0,0.0,0.0,0.0,0.0,0.0,0.0,0.0,0.0,0.0,0.0,0.0,0.0,0.0,0.0,0.0,0.0,0.0,0.0,0.0,0.0,0.0,0.0,0.0,0.0,0.0,0.0,0.0,0.0,0.0,0.0,0.0,0.0,0.0,0.0,0.0,0.0,0.0,0.0,0.0,0.0,0.0,0.0,0.0,0.0,0.0,0.0,0.0,0.0,0.0,0.0,0.0,0.0,0.0,0.0,0.0,0.0,0.0,0.0,0.0,0.0,0.0,0.0,0.0,0.0,0.0,0.0,0.0,0.0,0.0,0.0,0.0,0.0,0.0,0.0,0.0,0.0,0.0,0.0,0.0,0.0,0.0,0.0,0.0,0.0,0.0,0.0,0.0,0.0,0.0,0.0,0.0,0.0,0.0,0.0,0.0,0.0,0.0,0.0,0.0,0.0,0.0,0.0,0.0,0.0,0.0,0.0,0.0,0.0,0.0,0.0,0.0,0.0,0.0,0.0,0.0,0.0,0.0,0.0,0.0,0.0,0.0,0.0,0.0,0.0,0.0,0.0,0.0,0.0,0.0,0.0,0.0,0.0,0.0,0.0,0.0,0.0,0.0,0.0,0.0,0.0,0.0,0.0,0.0,0.0,0.0,0.0,0.0,0.0,0.0,0.0,0.0,0.0,0.0,0.0,0.0,0.0,0.0,0.0,0.0,0.0,0.0,0.0,0.0,0.0,0.0,0.0,0.0,0.0,0.0,0.0,0.0,0.0,0.0,0.0,0.0,0.0,0.0,0.0,0.0,0.0,0.0,0.0,0.0,0.0,0.0,0.0,0.0,0.0,0.0,0.0,0.0,0.0,0.0,0.0,0.0,0.0,0.0,0.0,0.0,0.0,0.0,0.0,0.0,0.0,0.0,0.0,0.0,0.0,0.0,0.0,0.0,0.0,0.0,0.0,0.0,0.0,0.0,0.0,0.0,0.0,0.0,0.0,0.0,0.0,0.0,0.0,0.0,0.0,0.0,0.0,0.0,0.0,0.0,0.0,0.0,0.0,0.0,0.0,0.0,0.0,0.0,0.0,0.0,0.0,0.0,0.0,0.0,0.0,0.0,0.0,0.0,0.0,0.0,0.0,0.0,0.0,0.0,0.0,0.0,0.0,0.0,0.0,0.0,0.0,0.0,0.0,0.0,0.0,0.0,0.0,0.0,0.0,0.0,0.0,0.0,0.0,0.0,0.0,0.0,0.0,0.0,0.0,0.0,0.0,0.0,0.0,0.0,0.0,0.0,0.0,0.0,0.0,0.0,0.0,0.0,0.0,0.0,0.0,0.0,0.0,0.0,0.0,0.0,0.0,0.0,0.0,0.0,0.0,0.0,0.0,0.0,0.0,0.0,0.0,0.0,0.0,0.0,0.0,0.0,0.0,0.0,0.0,0.0,0.0,0.0,0.0,0.0,0.0,0.0,0.0,0.0,0.0,0.0,0.0,0.0,0.0,0.0,0.0,0.0,0.0,0.0,0.0,0.0,0.0,0.0,0.0,0.0,0.0,0.0,0.0,0.0,0.0,0.0,0.0,0.0,0.0,0.0,0.0,0.0,0.0,0.0,0.0,0.0,0.0,0.0,0.0,0.0,0.0,0.0,0.0,0.0,0.0,0.0,0.0,0.0,0.0,0.0,0.0,0.0,0.0,0.0,0.0,0.0,0.0,0.0,0.0,0.0,0.0,0.0,0.0,0.0,0.0,0.0,0.0,0.0,0.0,0.0,0.0,0.0,0.0,0.0,0.0,0.0,0.0,0.0,0.0,0.0,0.0,0.0,0.0,0.0,0.0,0.0,0.0,0.0,0.0,0.0,0.0,0.0,0.0,0.0,0.0,0.0,0.0,0.0,0.0,0.0,0.0,0.0,0.0,0.0,0.0,0.0,0.0,0.0,0.0,0.0,0.0,0.0,0.0,0.0,0.0,0.0,0.0,0.0,0.0,0.0,0.0,0.0,0.0,0.0,0.0,0.0,0.0,0.0,0.0,0.0,0.0,0.0,0.0,0.0,0.0,0.0,0.0,0.0,0.0,0.0,0.0,0.0,0.0,0.0,0.0,0.0,0.0,0.0,0.0,0.0,0.0,0.0,0.0,0.0,0.0,0.0,0.0,0.0,0.0,0.0,0.0,0.0,0.0,0.0,0.0,0.0,0.0,0.0,0.0,0.0,0.0,0.0,0.0,0.0,0.0,0.0,0.0,0.0,0.0,0.0,0.0,0.0,0.0,0.0,0.0,0.0,0.0,0.0,0.0,0.0,0.0,0.0,0.0,0.0,0.0,0.0,0.0,0.0,0.0,0.0,0.0,0.0,0.0,0.0,0.0,0.0,0.0,0.0,0.0,0.0,0.0,0.0,0.0,0.0,0.0,0.0,0.0,0.0,0.0,0.0,0.0,0.0,0.0,0.0,0.0,0.0,0.0,0.0,0.0,0.0,0.0,0.0,0.0,0.0,0.0,0.0,0.0,0.0,0.0,0.0,0.0,0.0,0.0,0.0,0.0,0.0,0.0,0.0,0.0,0.0,0.0,0.0,0.0,0.0,0.0,0.0,0.0,0.0,0.0,0.0,0.0,0.0,0.0,0.0,0.0,0.0,0.0,0.0,0.0,0.0,0.0,0.0,0.0,0.0,0.0,0.0,0.0,0.0,0.0,0.0,0.0,0.0,0.0,0.0,0.0,0.0,0.0,0.0,0.0,0.0,0.0,0.0,0.0,0.0,0.0,0.0,0.0,0.0,0.0,0.0,0.0,0.0,0.0,0.0,0.0,0.0,0.0,0.0,0.0,0.0,0.0,0.0,0.0,0.0,0.0,0.0,0.0,0.0,0.0,0.0,0.0,0.0,0.0,0.0,0.0,0.0,0.0,0.0,0.0,0.0,0.0,0.0,0.0,0.0,0.0,0.0,0.0,0.0,0.0,0.0,0.0,0.0,0.0,0.0,0.0,0.0,0.0,0.0,0.0,0.0,0.0,0.0,0.0,0.0,0.0,0.0,0.0,0.0,0.0,0.0,0.0,0.0,0.0,0.0,0.0,0.0,0.0,0.0,0.0,0.0,0.0,0.0,0.0,0.0,0.0,0.0,0.0,0.0,0.0,0.0,0.0,0.0,0.0,0.0,0.0,0.0,0.0,0.0,0.0,0.0,0.0,0.0,0.0,0.0,0.0,0.0,0.0,0.0,0.0,0.0,0.0,0.0,0.0,0.0,0.0,0.0,0.0,0.0,0.0,0.0,0.0,0.0,0.0,0.0,0.0,0.0,0.0,0.0,0.0,0.0,0.0,0.0,0.0,0.0,0.0,0.0,0.0,0.0,0.0,0.0,0.0,0.0,0.0,0.0,0.0,0.0,0.0,0.0,0.0,0.0,0.0,0.0,0.0,0.0,0.0,0.0,0.0,0.0,0.0,0.0,0.0,0.0,0.0,0.0,0.0,0.0,0.0,0.0,0.0,0.0,0.0,0.0,0.0,0.0,0.0,0.0,0.0,0.0,0.0,0.0,0.0,0.0,0.0,0.0,0.0,0.0,0.0,0.0,0.0,0.0,0.0,0.0,0.0,0.0,0.0,0.0,0.0,0.0,0.0,0.0,0.0,0.0,0.0,0.0,0.0,0.0,0.0,0.0,0.0,0.0,0.0,0.0,0.0,0.0,0.0,0.0,0.0,0.0,0.0,0.0,0.0,0.0,0.0,0.0,0.0,0.0,0.0,0.0,0.0,0.0,0.0,0.0,0.0,0.0,0.0,0.0,0.0,0.0,0.0,0.0,0.0,0.0,0.0,0.0,0.0,0.0,0.0,0.0,0.0,0.0,0.0,0.0,0.0,0.0,0.0,0.0,0.0,0.0,0.0,0.0,0.0,0.0,0.0,0.0,0.0,0.0,0.0,0.0,0.0,0.0,0.0,0.0,0.0,0.0,0.0,0.0,0.0,0.0,0.0,0.0,0.0,0.0,0.0,0.0,0.0,0.0,0.0,0.0,0.0,0.0,0.0,0.0,0.0,0.0,0.0,0.0,0.0,0.0,0.0,0.0,0.0,0.0,0.0,0.0,0.0,0.0,0.0,0.0,0.0,0.0,0.0,0.0,0.0,0.0,0.0,0.0,0.0,0.0,0.0,0.0,0.0,0.0,0.0,0.0,0.0,0.0,0.0,0.0,0.0,0.0,0.0,0.0,0.0,0.0,0.0,0.0,0.0,0.0,0.0,0.0,0.0,0.0,0.0,0.0,0.0,0.0,0.0,0.0,0.0,0.0,0.0,0.0,0.0,0.0,0.0,0.0,0.0,0.0,0.0,0.0,0.0,0.0,0.0,0.0,0.0,0.0,0.0,0.0,0.0,0.0,0.0,0.0,0.0,0.0,0.0,0.0,0.0,0.0,0.0,0.0,0.0,0.0,0.0,0.0,0.0,0.0,0.0,0.0,0.0,0.0,0.0,0.0,0.0,0.0,0.0,0.0,0.0,0.0,0.0,0.0,0.0,0.0,0.0,0.0,0.0,0.0,0.0,0.0,0.0,0.0,0.0,0.0,0.0,0.0,0.0,0.0,0.0,0.0,0.0,0.0,0.0,0.0,0.0,0.0,0.0,0.0,0.0,0.0,0.0,0.0,2.7782,0.0,0.0,0.0,0.0,0.0,0.0,0.0,0.0,0.0,0.0,0.0,0.0,0.0,0.0,0.0,0.0,0.0,0.0,0.0,0.0,0.0,0.0,0.0,0.0,0.0,0.0,0.0,0.0,0.0,0.0,0.0,0.0,0.0,0.0,0.0,0.0,0.0,0.0,0.0,0.0,0.0,0.0,0.0,0.0,0.0,0.0,0.0,0.0,0.0,0.0,0.0,0.0,0.0,0.0,0.0,0.0,0.0,0.0,0.0,0.0,0.0,0.0,0.0,0.0,0.0,0.0,0.0,0.0,0.0,0.0,0.0,0.0,0.0,0.0,0.0,0.0,0.0,0.0,0.0,0.0,0.0,0.0,0.0,0.0,0.0,0.0,0.0,0.0,0.0,0.0,0.0,0.0,0.0,0.0,0.0,0.0,0.0,0.0,0.0,0.0,0.0,0.0,0.0,0.0,0.0,0.0,0.0,0.0,0.0,0.0,0.0,0.0,0.0,0.0,0.0,0.0,2.8167,0.0,0.0,0.0,0.0,0.0,0.0,0.0,0.0,0.0,0.0,0.0,0.0,0.0,0.0,0.0,0.0,0.0,0.0,0.0,0.0,0.0,0.0,0.0,0.0,0.0,0.0,0.0,0.0,0.0,0.0,0.0,0.0,0.0,0.0,0.0,0.0,0.0,0.0,0.0,0.0,0.0,0.0,0.0,0.0,0.0,0.0,0.0,0.0,0.0,0.0,0.0,0.0,0.0,0.0,0.0,0.0,0.0,0.0,0.0,0.0,0.0,0.0,0.0,0.0,0.0,0.0,0.0,0.0,0.0,0.0,0.0,0.0,0.0,0.0,0.0,0.0,0.0,0.0,0.0,0.0,0.0,0.0,0.0,0.0,0.0,0.0,0.0,0.0,0.0,0.0,0.0,0.0,0.0,0.0,0.0,0.0,0.0,0.0,0.0,0.0,0.0,0.0,0.0,0.0,0.0,0.0,0.0,0.0,2.8843,2.8843,2.8882,2.9,2.9091,2.9091,2.8736,2.859,2.859,0.0,0.0,0.0,0.0,0.0,0.0,0.0,0.0,0.0,0.0,0.0,0.0,0.0,0.0,0.0,0.0,0.0,0.0,0.0,0.0,0.0,0.0,0.0,0.0,0.0,0.0,0.0,0.0,0.0,0.0,0.0,0.0,0.0,0.0,0.0,0.0,0.0,0.0,0.0,3.8052,3.8052,3.8052,3.8014,3.7327,0.0,0.0,0.0,0.0,0.0,0.0,0.0,0.0,0.0,0.0,0.0,0.0,0.0,0.0,0.0,0.0,0.0,0.0,0.0,0.0,0.0,0.0,0.0,0.0,0.0,0.0,0.0,0.0,0.0,0.0,0.0,0.0,0.0,0.0,0.0,0.0,0.0,0.0,0.0,0.0,0.0,0.0,0.0,2.9052,2.9052,0.0,0.0,0.0,0.0,0.0,0.0,0.0,0.0,0.0,0.0,0.0,0.0,0.0,0.0,2.9052,2.9052,2.9052,2.9052,2.9052,2.9052,2.9052,2.9091,2.9091,2.9091,2.9052,0.0,2.9013,2.8843,0.0,0.0,0.0,0.0,0.0,0.0,0.0,0.0,0.0,0.0,0.0,0.0,0.0,0.0,0.0,0.0,0.0,0.0,0.0,0.0,0.0,0.0,0.0,0.0,0.0,0.0,0.0,0.0,0.0,0.0,0.0,0.0,0.0,0.0,0.0,0.0,3.8538,3.8538,3.8538,3.8538,3.8464,3.8366,3.8014,3.7634,3.7341,3.7341,0.0,0.0,0.0,0.0,0.0,0.0,0.0,0.0,0.0,0.0,0.0,0.0,0.0,0.0,0.0,0.0,0.0,0.0,0.0,0.0,0.0,0.0,0.0,0.0,0.0,0.0,0.0,0.0,0.0,0.0,0.0,0.0,0.0,0.0,0.0,0.0,0.0,0.0,0.0,2.917,2.9131,2.9275,2.917,2.9091,0.0,0.0,0.0,0.0,0.0,0.0,0.0,0.0,0.0,2.9091,2.9197,2.9275,2.9275,2.9275,2.9275,2.9275,2.9275,2.9275,2.9275,2.9417,2.9507,2.9507,2.9507,2.9507,2.9468,2.9091,2.8961,2.8912,0.0,0.0,0.0,0.0,0.0,2.5653,0.0,0.0,0.0,0.0,0.0,0.0,0.0,0.0,0.0,0.0,0.0,0.0,0.0,0.0,0.0,2.9509,0.0,0.0,0.0,0.0,0.0,0.0,0.0,0.0,0.0,0.0,0.0,3.8782,3.8782,3.8782,3.8782,3.8782,3.8723,3.859,3.859,3.8292,3.7763,3.7763,3.7558,0.0,0.0,0.0,0.0,0.0,0.0,0.0,0.0,0.0,0.0,0.0,0.0,0.0,0.0,0.0,0.0,0.0,0.0,0.0,0.0,0.0,0.0,0.0,0.0,0.0,0.0,0.0,0.0,0.0,0.0,0.0,0.0,0.0,0.0,0.0,0.0,0.0,0.0,2.9365,2.9326,2.947,2.9365,2.93,0.0,0.0,0.0,0.0,0.0,0.0,2.93,2.93,2.93,2.93,2.958,2.9721,2.9721,2.9845,2.9907,2.9907,2.9907,2.9845,2.9721,2.9902,2.993,2.9792,2.9792,2.9792,2.9753,2.9339,2.9157,2.9108,2.8528,2.8048,2.7656,2.7103,2.6648,2.6316,0.0,0.0,0.0,0.0,0.0,0.0,0.0,0.0,0.0,0.0,0.0,0.0,0.0,0.0,2.9509,2.9753,3.0444,3.1193,0.0,0.0,0.0,0.0,0.0,0.0,0.0,0.0,0.0,3.8782,3.8782,3.8782,3.8782,3.8782,3.8782,3.8782,3.8782,3.8575,3.8165,3.8165,3.8165,3.8127,0.0,0.0,0.0,0.0,0.0,0.0,0.0,0.0,0.0,0.0,0.0,0.0,0.0,0.0,0.0,0.0,0.0,0.0,0.0,0.0,0.0,0.0,0.0,0.0,0.0,0.0,0.0,0.0,0.0,0.0,0.0,0.0,0.0,0.0,0.0,0.0,0.0,0.0,0.0,2.9792,2.9753,0.0,0.0,0.0,0.0,2.9753,2.9753,2.9753,2.9753,2.9753,2.9753,2.9753,3.0254,3.053,3.053,3.106,3.1298,3.1298,3.1298,3.1047,3.053,3.053,3.0281,2.9792,2.9792,2.9792,2.9792,2.9521,2.938,2.933,2.8567,2.8269,2.8171,2.7643,2.7447,2.7422,0.0,0.0,0.0,0.0,0.0,0.0,0.0,0.0,0.0,0.0,0.0,0.0,0.0,2.956,2.9702,2.9792,3.0037,3.0771,3.2155,0.0,0.0,0.0,0.0,0.0,0.0,0.0,3.9068,3.9177,3.9177,3.9177,3.9177,3.9177,3.9104,3.898,3.898,3.8833,3.8575,3.8427,3.8404,3.8366,3.824,3.8127,0.0,0.0,0.0,0.0,0.0,0.0,0.0,0.0,0.0,0.0,0.0,0.0,0.0,0.0,0.0,0.0,0.0,0.0,0.0,0.0,0.0,0.0,0.0,0.0,0.0,0.0,0.0,0.0,0.0,0.0,0.0,0.0,0.0,0.0,0.0,0.0,0.0,2.9792,2.9792,0.0,2.9792,2.9792,3.0201,3.11,3.0608,3.0694,3.1616,3.1128,3.1088,3.1668,3.1861,3.2228,3.2787,3.2985,3.2778,3.2249,3.2249,3.1839,3.111,3.111,3.0821,3.0319,3.0319,3.0118,2.9792,2.9702,2.965,2.96,2.8961,2.8699,2.8637,2.8076,2.7901,2.7901,0.0,0.0,0.0,0.0,0.0,0.0,0.0,0.0,0.0,0.0,0.0,2.9419,2.9521,2.9689,2.9792,2.9792,2.9869,3.057,3.2177,0.0,0.0,0.0,0.0,0.0,0.0,3.9109,3.9265,3.9388,3.9388,3.9388,3.9388,3.9388,3.9457,3.9556,3.9556,3.9587,3.9669,3.9224,3.8855,3.8575,3.8389,3.8277,3.8277,0.0,0.0,0.0,0.0,0.0,0.0,0.0,0.0,0.0,0.0,0.0,0.0,0.0,0.0,0.0,0.0,0.0,0.0,0.0,0.0,0.0,0.0,0.0,0.0,0.0,0.0,0.0,0.0,0.0,0.0,0.0,0.0,0.0,0.0,0.0,3.0534,3.0432,3.0714,3.0868,3.0803,3.1036,3.1487,3.2123,3.1889,3.2019,3.266,3.2435,3.2541,3.313,3.3316,3.3697,3.4251,3.4456,3.4109,3.3275,3.3275,3.2848,3.21,3.21,3.1853,3.1384,3.1162,3.0842,3.0545,3.0279,3.0317,3.0507,2.9857,2.9416,2.9176,2.9073,2.9031,2.9068,0.0,0.0,0.0,0.0,0.0,0.0,0.0,0.0,0.0,0.0,2.9275,2.9509,2.9792,2.9792,2.9792,2.9792,2.9972,3.0746,3.2213,3.2519,0.0,0.0,0.0,0.0,3.8392,3.9065,3.9388,3.9388,3.9388,3.9388,3.9388,3.9388,3.9768,4.0367,4.0367,4.0726,4.128,4.045,3.961,3.8797,3.859,3.8516,3.8478,0.0,0.0,0.0,0.0,0.0,0.0,0.0,0.0,0.0,0.0,0.0,0.0,0.0,0.0,0.0,0.0,0.0,0.0,0.0,0.0,0.0,0.0,0.0,0.0,0.0,0.0,0.0,0.0,0.0,0.0,0.0,0.0,0.0,3.2245,3.2173,3.2061,3.182,3.2533,3.2963,3.2778,3.3505,3.3673,3.2883,3.3611,3.374,3.2949,3.3638,3.4085,3.4123,3.4617,3.4878,3.4917,3.5449,3.5278,3.4522,3.4522,3.4166,3.3562,3.3603,3.3409,3.3023,3.2308,3.2038,3.2064,3.1267,3.1415,3.2001,3.1217,3.0482,2.9972,3.0658,3.0932,3.1044,0.0,0.0,0.0,0.0,0.0,0.0,0.0,0.0,0.0,0.0,2.9456,2.9702,2.9792,2.9792,2.9792,2.9792,2.9972,3.0784,3.2429,0.0,0.0,0.0,0.0,0.0,3.8392,3.9065,3.9388,3.9388,3.9388,3.9388,3.9388,3.9388,3.9514,3.9694,3.9694,3.9783,3.9978,4.0188,3.9898,3.9177,3.887,3.8612,3.8478,0.0,0.0,0.0,0.0,0.0,0.0,0.0,0.0,0.0,0.0,0.0,0.0,0.0,0.0,0.0,0.0,0.0,0.0,0.0,0.0,0.0,0.0,0.0,0.0,0.0,0.0,0.0,0.0,0.0,0.0,0.0,0.0,3.4782,3.4136,3.3573,3.3344,3.3738,3.3895,3.3926,3.3876,3.408,3.4664,3.5806,3.5666,3.6026,3.7122,3.6373,3.6247,3.6999,3.6718,3.691,3.7696,3.787,3.7486,3.666,3.666,3.6131,3.5264,3.5383,3.5055,3.4294,3.3783,3.3268,3.2684,3.2031,3.1892,3.2001,3.1217,3.1119,3.1429,3.1044,3.1267,3.1892,0.0,0.0,0.0,0.0,0.0,0.0,0.0,0.0,0.0,0.0,2.9417,2.9702,2.9792,2.9792,2.9792,2.9792,3.0049,3.0784,3.206,0.0,0.0,0.0,0.0,3.7643,3.7973,3.8931,3.9388,3.9388,3.9388,3.9388,3.9388,3.9388,3.9574,3.9828,3.9828,3.9978,4.0262,4.0651,4.0591,4.021,3.9996,3.9432,3.8738,3.8664,3.8501,3.8329,3.8329,3.8277,3.8202,3.8202,0.0,0.0,0.0,0.0,0.0,0.0,0.0,0.0,0.0,0.0,0.0,0.0,0.0,0.0,0.0,0.0,0.0,0.0,0.0,0.0,0.0,0.0,0.0,0.0,3.6048,3.6586,3.6731,3.5726,3.5208,3.5766,3.6052,3.625,3.6452,3.6791,3.7333,3.8072,3.809,3.8391,3.9114,3.8642,3.853,3.8875,3.8486,3.8434,3.8797,3.8782,3.8345,3.751,3.751,3.7165,3.6568,3.671,3.6504,0.0,3.5148,3.4533,3.412,3.3112,3.2875,0.0,0.0,0.0,0.0,0.0,3.2169,3.2684,0.0,0.0,0.0,0.0,0.0,0.0,0.0,0.0,0.0,0.0,0.0,2.9509,2.974,2.9792,2.9792,2.9792,3.0152,3.0646,0.0,0.0,0.0,3.4142,3.5534,3.6655,3.7371,3.8695,3.9388,3.9388,3.9388,3.9388,3.9388,3.9388,3.9723,4.0292,4.0292,4.0651,4.1265,4.1392,4.1422,4.1384,4.1459,4.0584,3.9172,3.901,3.8782,3.8553,3.8553,3.8441,3.8277,3.8277,0.0,0.0,0.0,0.0,0.0,0.0,0.0,0.0,0.0,0.0,0.0,0.0,0.0,0.0,0.0,0.0,0.0,0.0,0.0,0.0,0.0,0.0,0.0,0.0,3.7063,3.8048,3.9209,3.8243,3.7577,3.7996,3.8631,3.922,3.9654,4.0378,4.0524,3.9776,4.048,4.0642,3.9891,0.0,0.0,0.0,0.0,3.9542,3.8988,3.89,3.8472,3.7715,3.7715,3.7715,3.7677,3.7715,3.7817,3.7906,3.6447,3.5883,3.5884,3.441,3.4157,3.4616,3.3728,3.2911,3.2326,3.3087,3.3367,0.0,0.0,0.0,0.0,0.0,0.0,0.0,0.0,0.0,0.0,2.7678,2.8727,2.9419,2.947,2.965,2.9792,2.9792,3.0011,3.0343,0.0,0.0,3.3204,3.3234,3.5232,3.6597,3.7229,3.8667,3.9388,3.9388,3.9388,3.9388,3.9388,3.9388,3.9448,3.9604,3.9604,3.9978,4.0621,4.116,4.1422,4.1467,4.1991,4.1293,3.9892,3.9839,3.9402,3.876,3.876,3.8723,3.8671,3.8671,3.8671,3.8671,3.8723,0.0,0.0,0.0,0.0,0.0,0.0,0.0,0.0,0.0,0.0,0.0,0.0,0.0,0.0,0.0,0.0,0.0,0.0,0.0,0.0,3.7082,3.8207,3.9089,3.9343,4.0039,4.0547,4.0649,4.0656,4.0683,4.0766,4.0926,4.1109,4.1282,4.1588,4.1863,4.206,4.1739,0.0,4.1566,4.0596,4.0062,4.0092,3.9555,3.9177,3.9017,0.0,0.0,3.8782,3.8943,3.8884,3.8576,3.7963,3.7293,3.6625,3.5795,3.5223,3.4835,3.4534,3.3811,3.3108,3.4065,3.4298,3.4182,0.0,0.0,0.0,0.0,0.0,0.0,0.0,0.0,0.0,0.0,2.7775,2.853,2.8715,2.9263,2.965,2.9792,2.9972,0.0,0.0,3.1431,3.2239,3.2833,3.4289,3.5756,3.7186,3.8238,3.901,3.9388,3.9388,3.9388,3.9388,3.9388,3.9388,3.9388,3.9768,4.0098,4.0472,4.1444,4.1916,4.1976,4.2581,4.2019,4.0733,4.0368,3.9706,3.8943,3.8943,3.8907,3.8782,3.8782,3.8782,3.8819,3.8907,3.9017,3.9104,0.0,0.0,0.0,0.0,0.0,0.0,0.0,0.0,0.0,0.0,0.0,0.0,0.0,0.0,3.6552,0.0,0.0,3.7659,3.8317,3.9245,4.0142,4.0801,4.1497,4.1916,4.1916,4.1801,4.1858,4.2186,4.2216,4.2257,4.2505,4.2599,4.2733,4.2996,4.2659,4.2411,4.2201,4.1285,4.0651,4.0397,3.9753,3.9388,3.9388,3.9388,3.9337,3.9265,3.9337,3.9301,3.9075,3.8457,3.7981,3.7575,3.6477,3.5659,3.5034,3.4983,3.4587,3.4104,3.462,3.4683,3.4563,0.0,0.0,0.0,0.0,0.0,0.0,0.0,0.0,0.0,0.0,2.6625,2.7452,2.7976,2.8715,2.9302,0.0,0.0,0.0,0.0,3.0533,3.1159,3.2357,3.3324,3.4734,3.6642,3.7667,3.8516,3.9156,3.9301,3.9388,3.9388,3.9388,3.9448,3.9634,4.0172,4.0546,4.0846,4.1946,4.247,4.262,4.2985,4.2432,4.1347,4.0651,3.9868,3.9141,3.9141,3.9068,3.8907,3.8907,3.8907,3.8943,3.9104,3.9141,3.9177,3.9337,3.9388,0.0,0.0,0.0,0.0,0.0,0.0,0.0,0.0,0.0,3.8392,3.8392,3.7868,3.7449,3.7584,3.8138,3.8811,3.9499,4.0277,4.1145,4.2246,4.2515,4.259,4.259,4.259,4.2761,4.3245,4.329,4.329,4.329,4.329,4.329,4.329,4.329,4.309,4.2605,4.1826,4.113,4.0591,3.9813,3.9388,3.9388,3.9388,3.9388,3.9388,3.9388,3.9388,3.9343,3.8564,3.8301,3.8287,3.6865,3.5948,3.5439,3.5305,3.5148,3.5001,3.4968,3.4883,3.475,0.0,0.0,0.0,0.0,0.0,0.0,0.0,0.0,0.0,0.0,0.0,0.0,0.0,0.0,0.0,0.0,0.0,0.0,3.0113,3.0343,3.0689,3.1332,3.2825,3.4006,3.4798,3.7035,3.824,3.8315,3.9046,3.9388,3.9388,3.9388,3.9723,4.0292,4.0367,4.1055,4.2186,4.2336,4.2701,4.314,4.2671,4.2066,4.1347,4.0651,3.9956,3.9373,3.9373,3.9337,3.9337,3.9337,3.9337,3.9337,3.9337,3.9373,3.9373,3.9388,0.0,3.9388,3.9388,3.9388,3.9388,3.9388,3.9388,3.9388,0.0,0.0,3.8392,3.8392,3.7868,3.7584,3.8167,3.8841,3.9529,4.0187,4.1324,4.2231,4.2381,4.2865,4.3185,4.3185,4.3185,4.3215,4.329,4.329,4.329,4.329,4.329,4.329,4.329,4.329,4.326,4.3185,4.2028,4.1339,4.1265,4.0038,3.9388,3.9388,3.9388,3.9388,3.9388,3.9388,3.9388,3.9343,3.8691,3.8392,3.8287,3.7015,3.6413,3.6294,3.5696,3.5439,3.5407,3.5213,3.5034,3.4868,0.0,0.0,0.0,0.0,0.0,0.0,0.0,0.0,0.0,0.0,0.0,0.0,0.0,0.0,0.0,0.0,0.0,0.0,2.9934,3.0113,3.0471,3.0992,3.1798,3.2869,3.4285,3.5462,3.6466,3.7256,3.7715,3.8196,3.8701,3.8701,3.9313,4.0412,4.0801,4.1265,4.1856,4.2231,4.2336,4.2177,4.1908,4.1437,4.0786,4.0502,3.9993,3.9388,3.9388,3.9388,0.0,0.0,3.9388,3.9388,3.9388,3.9388,3.9388,3.9388,3.9388,0.0,3.9388,3.9388,3.9388,3.9388,3.9388,3.9388,3.9388,3.9185,3.899,3.899,3.8766,3.8661,3.8931,3.9544,4.0202,0.0,4.1796,4.253,4.2865,4.3125,4.329,4.329,4.329,4.329,4.329,4.329,4.329,4.329,4.329,4.329,4.329,4.329,4.329,4.329,4.2058,4.1422,4.1422,4.0083,3.9388,3.9388,3.9388,3.9388,3.9388,3.9388,3.9388,3.9373,3.911,3.8751,3.8347,3.7823,3.715,3.6462,3.6178,3.5833,3.5504,3.5407,3.5261,3.5082,0.0,0.0,0.0,0.0,0.0,0.0,0.0,0.0,0.0,0.0,0.0,0.0,0.0,0.0,0.0,0.0,0.0,0.0,0.0,2.9844,3.0098,3.0593,3.0941,3.181,3.3278,3.3872,3.4734,3.5926,3.6317,3.688,3.7653,3.7706,3.8393,3.9528,4.0088,4.0551,4.0911,4.1385,4.1442,4.1217,4.1024,4.0681,4.0219,3.9846,3.9518,3.9265,3.9337,3.9388,0.0,0.0,3.9388,3.9388,3.9388,3.9388,3.9388,3.9388,3.9388,3.9388,3.9388,3.9388,3.9388,3.9388,3.9388,3.9388,3.9388,3.9388,3.9388,3.9388,3.9388,3.9388,3.9388,4.0113,4.0831,4.1309,4.2087,4.2791,4.323,4.329,4.329,4.329,4.329,4.329,4.329,4.329,4.329,4.329,4.329,4.329,4.329,4.329,4.329,4.329,4.2237,4.1602,4.1422,4.0247,3.9568,3.9388,3.9388,3.9388,3.9388,3.9388,3.9388,3.9388,3.9388,3.9125,3.8661,3.8467,3.7853,3.6971,3.6626,3.6193,3.5744,3.5564,3.5407,3.5294,0.0,0.0,0.0,0.0,0.0,0.0,0.0,0.0,0.0,0.0,0.0,0.0,0.0,0.0,0.0,0.0,0.0,0.0,0.0,2.9419,2.9521,2.9817,3.0503,3.0925,3.1002,3.2528,3.3632,3.4259,3.5073,3.5737,3.629,3.6515,3.6888,3.7312,3.7569,3.8387,3.9541,3.957,4.0035,4.0752,4.0117,3.9852,3.9666,3.845,3.8332,3.887,3.9265,0.0,0.0,0.0,3.9388,3.9388,3.9388,3.9388,0.0,3.9388,3.9388,0.0,0.0,0.0,3.9388,3.9388,3.9388,3.9388,3.9388,3.9388,3.9388,3.9388,3.9388,3.9388,3.9388,4.0472,4.1392,4.1422,4.2462,4.3275,4.329,4.329,4.329,4.329,4.329,4.329,0.0,4.329,4.329,4.329,4.329,4.329,4.329,4.329,4.329,4.329,4.2686,4.2066,4.1384,4.0711,4.0053,3.9388,3.9388,3.9388,3.9388,3.9388,3.9388,3.9388,3.9388,3.9373,3.9298,3.8661,3.8362,3.8212,3.6971,3.6477,3.6372,3.5744,3.5504,3.5504,0.0,0.0,0.0,0.0,0.0,0.0,0.0,0.0,0.0,0.0,0.0,0.0,0.0,0.0,0.0,0.0,0.0,0.0,0.0,2.887,2.9248,2.9339,2.9578,2.997,3.0503,3.117,3.1885,3.2586,3.3,3.3555,3.4278,3.4763,3.5582,3.669,3.7146,3.7558,3.7982,3.7982,3.7678,3.7204,3.6967,3.6665,3.6367,3.6417,3.657,3.6874,0.0,0.0,0.0,0.0,0.0,0.0,3.9388,0.0,0.0,3.9388,0.0,0.0,0.0,0.0,3.9493,3.9963,3.9738,3.9529,3.9963,3.9738,3.9388,3.9388,3.9388,3.9388,3.9388,4.0142,4.0876,4.1347,4.2117,4.2836,4.323,4.329,4.329,4.329,4.329,0.0,0.0,0.0,0.0,4.329,4.329,4.329,4.329,4.329,4.329,4.329,4.2701,4.2291,4.2066,4.1422,4.0726,4.0068,3.9634,3.9388,3.9388,3.9388,3.9388,3.9388,3.9388,3.9388,3.9394,3.917,3.8796,3.8347,3.7913,3.7225,3.6462,3.6237,3.5878,3.5504,0.0,0.0,0.0,0.0,0.0,0.0,0.0,0.0,0.0,0.0,0.0,0.0,0.0,0.0,0.0,0.0,0.0,0.0,0.0,0.0,2.8079,2.8183,2.8474,2.887,2.9382,2.9834,3.0478,3.1271,3.1392,3.1869,3.2633,3.3132,3.3807,3.4633,3.5063,3.5399,3.5587,3.5587,3.5311,3.4909,3.4909,3.4675,3.443,3.464,3.4866,0.0,0.0,0.0,0.0,0.0,0.0,0.0,0.0,0.0,0.0,0.0,0.0,0.0,0.0,3.9768,3.9933,4.0591,4.0427,4.0172,4.0367,4.0068,3.9709,3.9433,3.9388,3.9388,3.9388,3.9963,4.0531,4.0965,4.1826,4.2545,4.2925,4.314,4.329,4.329,4.329,4.329,0.0,0.0,0.0,4.329,4.329,4.329,4.329,4.329,4.329,4.329,4.2925,4.2635,4.2396,4.1976,4.128,4.0397,3.9963,3.9649,3.9388,3.9388,3.9388,3.9388,3.9388,3.9388,3.9388,3.9388,3.9155,3.8736,3.8482,3.7749,3.6791,3.6567,3.6073,3.5504,0.0,0.0,0.0,0.0,0.0,0.0,0.0,0.0,0.0,0.0,0.0,0.0,0.0,0.0,0.0,0.0,0.0,0.0,0.0,0.0,0.0,2.6431,2.7273,2.7678,2.7718,2.8554,2.9376,3.0186,3.0226,3.0608,3.1311,3.1552,3.1564,3.1348,3.163,3.2074,3.2646,3.2646,3.3078,3.3848,3.3848,3.3821,3.374,3.3132,0.0,0.0,0.0,0.0,0.0,0.0,0.0,0.0,0.0,0.0,0.0,0.0,0.0,3.9604,4.0232,4.0427,4.0606,4.1265,4.1452,4.122,4.0591,4.0427,4.0217,3.9559,3.9388,3.9388,0.0,0.0,4.0367,4.0397,4.1482,4.2321,4.2396,4.2895,4.326,0.0,0.0,0.0,0.0,0.0,0.0,4.329,0.0,4.329,4.329,4.329,4.329,4.329,4.329,4.3045,4.2455,4.2425,4.1767,4.0502,4.0427,4.0068,3.9433,3.9439,3.9388,3.9388,3.9388,3.9388,3.9388,3.9388,3.9388,3.9349,3.8691,3.8033,3.7389,3.6761,3.6118,3.5549,0.0,0.0,0.0,0.0,0.0,0.0,0.0,0.0,0.0,0.0,0.0,0.0,0.0,0.0,0.0,0.0,0.0,0.0,0.0,0.0,0.0,0.0,0.0,0.0,0.0,0.0,0.0,0.0,2.909,2.9492,2.9707,3.022,3.0487,3.0608,3.106,3.1439,3.1739,3.1739,3.1631,3.1458,0.0,3.1241,3.092,0.0,0.0,0.0,0.0,0.0,0.0,0.0,0.0,0.0,0.0,3.9228,3.9388,0.0,0.0,4.0187,4.0352,4.0756,4.1332,4.1991,4.1782,4.1377,4.1175,4.0756,4.0217,3.9559,3.9388,3.9388,0.0,0.0,0.0,4.0322,4.0681,0.0,4.2261,4.2545,0.0,4.3245,0.0,4.329,4.329,4.329,0.0,0.0,4.329,4.329,4.329,4.329,4.329,4.329,4.329,4.3215,4.309,4.2635,4.2231,4.1886,4.0876,4.0307,4.0127,3.9649,3.9388,3.9388,3.9388,3.9388,3.9388,3.9388,3.9388,3.9394,3.923,3.8736,3.8063,3.7404,3.6776,3.6163,0.0,0.0,0.0,0.0,0.0,0.0,0.0,0.0,0.0,0.0,0.0,0.0,0.0,0.0,0.0,0.0,0.0,0.0,0.0,0.0,0.0,0.0,0.0,0.0,0.0,0.0,0.0,0.0,0.0,0.0,2.8554,2.8867,2.9293,2.9809,3.0066,3.0282,3.039,3.039,0.0,0.0,0.0,0.0,0.0,0.0,0.0,0.0,0.0,0.0,0.0,0.0,0.0,3.6835,3.8132,3.862,3.8841,3.9607,0.0,4.0531,4.11,4.1572,4.2006,4.2626,4.2506,4.2087,4.1504,4.11,4.0561,3.9619,3.9388,0.0,3.9388,3.9388,0.0,0.0,0.0,0.0,4.1826,4.2216,4.2635,0.0,4.329,0.0,4.329,4.329,4.329,0.0,4.329,4.329,4.329,4.329,4.329,4.329,4.329,4.329,4.329,4.297,4.2641,4.2396,4.1324,4.0681,4.0382,3.9723,3.9388,3.9388,0.0,3.9388,3.9388,3.9388,3.9388,3.9388,3.9388,3.899,3.8347,3.7973,3.7434,3.6791,0.0,0.0,0.0,0.0,0.0,0.0,0.0,0.0,0.0,0.0,0.0,0.0,0.0,0.0,0.0,0.0,0.0,0.0,0.0,0.0,0.0,0.0,0.0,0.0,0.0,0.0,0.0,0.0,0.0,0.0,0.0,0.0,0.0,0.0,0.0,0.0,0.0,0.0,0.0,0.0,0.0,0.0,0.0,0.0,0.0,0.0,0.0,0.0,0.0,0.0,3.3528,3.5205,3.6906,3.7605,3.811,3.9728,4.0345,4.0801,4.2066,4.247,4.2626,4.3155,4.323,4.288,4.1654,4.1347,4.0905,3.9679,0.0,3.9388,3.9388,3.9388,3.9388,3.9388,0.0,4.0502,4.116,4.1856,4.25,4.3135,4.3245,4.329,4.329,4.329,4.329,4.329,4.329,4.329,4.329,4.329,4.329,4.329,4.329,4.329,4.329,4.329,4.3015,4.2396,4.1737,4.104,4.0382,3.9723,3.9388,3.9388,0.0,0.0,3.9388,3.9388,3.9388,3.9388,3.9388,3.905,3.8512,3.8422,3.8033,3.7449,0.0,0.0,0.0,0.0,0.0,0.0,0.0,0.0,0.0,0.0,2.1963,0.0,0.0,0.0,0.0,0.0,0.0,0.0,0.0,0.0,0.0,0.0,0.0,0.0,0.0,0.0,0.0,0.0,0.0,0.0,0.0,0.0,0.0,0.0,0.0,0.0,0.0,0.0,0.0,0.0,0.0,0.0,0.0,0.0,0.0,0.0,0.0,0.0,0.0,0.0,3.2316,3.4219,3.5233,3.6588,3.7958,3.8837,4.0085,4.1422,4.2186,4.2746,4.3155,4.326,4.294,4.2366,4.1602,4.0965,0.0,0.0,3.9388,3.9388,3.9388,3.9388,3.9388,3.9388,3.9514,3.9828,4.0472,0.0,4.1826,0.0,0.0,0.0,0.0,0.0,0.0,0.0,0.0,4.329,4.329,4.329,4.329,4.329,4.329,4.329,4.329,4.329,4.3015,4.2396,4.1737,4.104,4.0382,3.9723,3.9388,3.9388,0.0,0.0,3.9388,3.9388,3.9388,3.9388,3.9388,3.9313,3.917,3.8601,3.8317,3.8123,0.0,0.0,0.0,0.0,0.0,0.0,0.0,0.0,0.0,2.1696,2.183,2.1963,0.0,0.0,0.0,0.0,0.0,0.0,0.0,0.0,0.0,0.0,0.0,0.0,0.0,0.0,0.0,0.0,0.0,0.0,0.0,0.0,0.0,0.0,0.0,0.0,0.0,0.0,0.0,0.0,0.0,0.0,0.0,0.0,0.0,0.0,0.0,0.0,0.0,0.0,3.1053,3.238,3.394,3.5245,3.6591,3.8589,3.9813,4.088,4.2332,4.3011,4.329,4.329,4.2851,4.2231,4.1572,0.0,0.0,0.0,3.9388,3.9388,3.9388,3.9388,0.0,3.9388,3.9388,3.9649,4.0307,0.0,0.0,0.0,0.0,0.0,0.0,0.0,0.0,0.0,0.0,4.329,4.329,4.329,4.329,4.329,4.329,4.329,4.329,4.329,4.3015,4.2396,4.1737,4.104,4.0382,3.9723,3.9388,3.9388,3.9388,0.0,3.9388,3.9388,3.9388,3.9388,3.9388,3.9388,3.9379,3.905,3.8931,3.8826,0.0,0.0,0.0,0.0,0.0,0.0,0.0,2.1087,2.1696,2.1696,2.1696,2.1785,2.2008,2.222,2.2353,0.0,0.0,0.0,0.0,0.0,0.0,0.0,0.0,0.0,0.0,0.0,0.0,0.0,0.0,0.0,0.0,0.0,0.0,0.0,0.0,0.0,0.0,0.0,0.0,0.0,0.0,0.0,0.0,0.0,0.0,0.0,0.0,0.0,0.0,0.0,3.0168,3.0866,3.259,3.3736,3.5101,3.8066,3.9296,4.0188,4.2262,4.3026,4.322,4.3125,4.2626,4.2021,4.1324,4.0666,0.0,3.9493,3.9388,3.9388,3.9388,3.9388,3.9388,0.0,3.9388,3.9568,4.0113,0.0,0.0,0.0,0.0,0.0,0.0,0.0,0.0,0.0,0.0,0.0,4.329,4.329,4.329,4.329,4.329,4.329,4.329,4.329,4.294,4.2186,4.1662,4.0965,4.0172,3.9649,3.9388,3.9388,3.9388,0.0,0.0,3.9388,3.9388,3.9388,3.9388,3.9388,3.9388,3.9388,3.9388,3.9298,0.0,0.0,0.0,0.0,0.0,0.0,0.0,2.1087,2.1696,2.1696,2.1696,2.1696,2.1731,2.1963,2.2141,0.0,0.0,0.0,0.0,0.0,0.0,0.0,0.0,0.0,0.0,0.0,0.0,0.0,0.0,0.0,0.0,0.0,0.0,0.0,0.0,0.0,0.0,0.0,0.0,0.0,0.0,0.0,0.0,0.0,0.0,0.0,0.0,0.0,0.0,0.0,0.0,3.0633,3.084,3.226,3.4312,3.6511,0.0,0.0,4.1706,4.2604,4.2927,4.2557,4.1991,4.1332,4.0636,0.0,3.9448,3.9388,3.9388,3.9388,3.9388,3.9388,3.9388,3.9388,0.0,3.9403,0.0,0.0,0.0,0.0,0.0,0.0,0.0,0.0,0.0,0.0,0.0,0.0,4.329,4.329,4.329,4.329,4.329,4.329,4.329,4.329,4.2701,4.1512,4.1452,4.0726,3.9514,3.9454,3.9388,3.9388,0.0,0.0,0.0,3.9388,3.9388,3.9388,3.9388,3.9388,3.9388,3.9388,3.9388,3.9373,0.0,0.0,0.0,0.0,0.0,0.0,0.0,2.1087,2.1696,2.1696,2.1696,2.1696,2.1696,2.1785,2.1874,0.0,0.0,0.0,0.0,0.0,0.0,0.0,0.0,0.0,0.0,0.0,0.0,0.0,0.0,0.0,0.0,0.0,0.0,0.0,0.0,0.0,0.0,0.0,0.0,0.0,0.0,0.0,0.0,0.0,0.0,0.0,0.0,0.0,0.0,0.0,0.0,0.0,3.0507,3.1204,0.0,0.0,3.6648,3.8287,3.992,4.1067,4.1831,4.1656,4.1204,4.0726,4.0457,0.0,3.9388,3.9388,3.9388,3.9388,3.9388,3.9388,3.9388,3.9388,0.0,0.0,3.9388,0.0,0.0,0.0,0.0,0.0,0.0,0.0,0.0,0.0,0.0,0.0,4.329,4.329,4.329,4.329,4.329,4.329,4.329,4.329,4.2671,4.1422,4.1422,4.0696,3.9388,3.9388,3.9388,3.9388,0.0,0.0,0.0,3.9388,3.9388,3.9388,3.9388,3.9388,3.9388,3.9388,3.9388,3.9388,0.0,0.0,0.0,0.0,0.0,0.0,2.0158,2.1087,2.1696,2.1696,2.1696,2.1696,2.1696,2.1696,2.1696,2.1696,0.0,0.0,0.0,0.0,0.0,0.0,0.0,0.0,0.0,0.0,0.0,2.1963,0.0,0.0,0.0,0.0,0.0,0.0,0.0,0.0,0.0,0.0,0.0,0.0,0.0,0.0,0.0,0.0,0.0,0.0,0.0,0.0,0.0,0.0,0.0,0.0,0.0,0.0,0.0,0.0,3.5548,3.6959,3.8769,4.0115,4.0973,4.0842,4.0591,4.0352,0.0,0.0,3.9388,3.9388,3.9388,3.9388,3.9388,3.9388,3.9388,0.0,0.0,3.9388,3.9388,0.0,0.0,0.0,0.0,0.0,0.0,0.0,0.0,0.0,0.0,0.0,0.0,4.329,4.329,4.329,4.329,4.329,4.329,4.3135,4.2476,4.1422,4.119,4.0502,3.9388,3.9388,3.9388,3.9388,0.0,0.0,0.0,3.9388,3.9388,3.9388,3.9388,3.9388,3.9388,3.9388,3.9388,3.9388,0.0,0.0,0.0,0.0,0.0,0.0,0.0,2.1087,2.1696,2.1696,2.1696,2.1696,2.1696,2.1696,2.1696,2.1696,0.0,0.0,0.0,0.0,0.0,0.0,0.0,0.0,0.0,0.0,2.1696,2.1696,2.1696,2.183,0.0,0.0,0.0,0.0,0.0,0.0,0.0,0.0,0.0,0.0,0.0,0.0,0.0,0.0,0.0,0.0,0.0,0.0,0.0,0.0,0.0,0.0,0.0,0.0,0.0,0.0,3.526,3.6367,3.8832,4.0156,4.0687,4.021,4.0248,4.0232,0.0,0.0,3.9388,3.9388,3.9388,3.9388,3.9388,3.9388,3.9388,3.9388,0.0,0.0,3.9388,0.0,0.0,0.0,0.0,0.0,0.0,0.0,0.0,0.0,0.0,0.0,0.0,4.329,4.329,4.329,4.329,4.329,4.329,4.2701,4.2081,4.1407,4.0726,4.0068,3.9388,3.9388,3.9388,0.0,0.0,0.0,0.0,3.9388,3.9388,3.9388,3.9388,3.9388,3.9388,3.9388,3.9388,3.9388,0.0,0.0,0.0,0.0,0.0,0.0,0.0,2.1508,2.1696,2.1696,2.1696,2.1696,2.1696,2.1696,2.1696,2.1696,0.0,0.0,0.0,0.0,0.0,0.0,0.0,0.0,0.0,0.0,2.1696,2.1696,2.1696,2.183,2.2097,2.2309,0.0,0.0,0.0,0.0,0.0,0.0,0.0,0.0,0.0,0.0,0.0,0.0,0.0,0.0,0.0,0.0,0.0,0.0,0.0,0.0,0.0,0.0,0.0,0.0,0.0,0.0,3.6735,3.8266,3.9409,3.9262,3.9453,3.9679,3.9433,3.9388,3.9388,3.9388,3.9388,3.9388,3.9388,3.9388,3.9388,3.9388,3.9388,0.0,0.0,0.0,0.0,0.0,0.0,0.0,0.0,0.0,0.0,0.0,0.0,0.0,0.0,4.329,4.329,4.329,4.329,4.329,4.329,4.2686,4.2066,4.1407,4.0711,4.0053,3.9388,3.9388,0.0,0.0,0.0,0.0,0.0,3.9388,3.9388,3.9388,3.9388,3.9388,3.9388,3.9388,3.9388,3.9388,0.0,0.0,0.0,0.0,0.0,0.0,0.0,2.1696,2.1696,2.1696,2.1696,2.1696,2.1696,2.1696,2.1696,2.1696,0.0,0.0,0.0,0.0,0.0,0.0,0.0,0.0,0.0,2.1696,2.1696,2.1696,2.1963,2.223,2.2495,2.3038,2.3724,2.4531,2.521,0.0,0.0,0.0,0.0,0.0,0.0,0.0,2.851,0.0,0.0,0.0,0.0,0.0,0.0,0.0,0.0,0.0,0.0,0.0,0.0,0.0,0.0,0.0,0.0,3.7272,3.8443,3.8443,3.8926,0.0,0.0,3.9388,3.9388,3.9388,3.9388,3.9388,3.9388,3.9388,3.9388,3.9388,3.9388,0.0,0.0,0.0,0.0,0.0,0.0,0.0,0.0,0.0,0.0,0.0,0.0,0.0,0.0,4.329,4.329,4.329,4.329,4.317,4.297,4.2327,4.1707,4.0995,4.0337,3.9813,3.9388,3.9388,0.0,0.0,0.0,0.0,0.0,3.9388,3.9388,3.9388,3.9388,3.9388,3.9388,3.9388,3.9388,3.9388,0.0,0.0,0.0,0.0,0.0,0.0,0.0,0.0,0.0,0.0,2.1696,2.1696,2.1696,2.1696,2.1696,0.0,0.0,0.0,0.0,0.0,0.0,0.0,0.0,0.0,2.1696,2.1696,2.1741,2.1785,2.2441,2.2925,2.3222,2.4284,2.4967,2.5369,2.664,2.7226,2.7348,2.8179,2.851,2.851,2.851,2.851,0.0,0.0,0.0,0.0,0.0,0.0,0.0,0.0,0.0,0.0,0.0,0.0,0.0,0.0,0.0,0.0,0.0,3.698,3.7845,3.7845,3.857,0.0,3.9313,3.9394,0.0,3.9388,3.9388,3.9388,3.9388,3.9388,3.9388,3.9388,3.9388,0.0,0.0,3.9388,0.0,0.0,0.0,0.0,0.0,0.0,0.0,0.0,0.0,0.0,0.0,4.329,4.3275,4.323,4.323,4.297,4.241,4.1707,4.101,4.0382,3.9738,3.9388,3.9388,3.9388,0.0,0.0,0.0,0.0,0.0,3.9388,3.9388,3.9388,3.9388,3.9388,3.9388,3.9388,3.9388,3.9388,0.0,0.0,0.0,0.0,0.0,0.0,0.0,0.0,0.0,0.0,2.1696,2.1696,2.1696,2.1696,2.1696,0.0,0.0,0.0,0.0,0.0,0.0,0.0,0.0,0.0,2.1696,2.1696,2.1963,2.253,2.2715,2.3188,2.395,2.4541,2.5295,2.6238,2.6887,2.7551,2.8219,2.8431,2.851,2.851,2.851,2.851,0.0,0.0,0.0,0.0,2.851,2.8736,0.0,0.0,0.0,0.0,0.0,0.0,0.0,0.0,3.2723,0.0,3.46,0.0,3.7146,3.7146,3.7887,3.8631,0.0,3.9035,3.9388,3.9388,3.9388,3.9388,3.9388,3.9388,3.9388,3.9388,3.9388,3.9388,3.9388,0.0,0.0,0.0,0.0,0.0,0.0,0.0,0.0,0.0,0.0,0.0,0.0,4.329,4.3105,4.265,4.262,4.2545,4.2396,4.1205,4.0546,4.0382,3.9738,3.9388,3.9388,3.9388,0.0,0.0,0.0,0.0,3.9388,3.9388,3.9388,3.9388,3.9388,3.9388,3.9388,3.9388,3.9388,3.9388,0.0,0.0,0.0,0.0,0.0,0.0,0.0,0.0,0.0,0.0,0.0,0.0,0.0,0.0,0.0,0.0,0.0,0.0,0.0,0.0,0.0,0.0,0.0,2.1696,2.1696,2.1696,2.2043,2.2803,2.3091,2.3691,2.4551,2.5463,2.6216,2.6857,2.751,2.8059,2.851,2.851,2.851,2.851,2.851,0.0,0.0,0.0,0.0,0.0,2.851,2.8736,0.0,2.9091,2.9417,2.9792,0.0,0.0,0.0,0.0,3.2613,3.3402,3.4298,3.5483,3.6453,3.6453,3.7189,3.7943,3.7943,0.0,3.8497,3.8497,3.8497,3.8586,3.8886,3.8945,3.905,0.0,3.9388,0.0,0.0,0.0,0.0,0.0,0.0,0.0,0.0,0.0,0.0,0.0,0.0,0.0,0.0,4.2432,4.2282,4.1961,4.1647,4.1459,4.1459,4.0756,4.0247,3.9948,3.9553,3.9388,3.9388,3.9388,0.0,0.0,0.0,0.0,3.9388,3.9388,3.9388,3.9388,3.9388,3.9388,3.9388,3.9388,3.9388,3.9388,0.0,0.0,0.0,0.0,0.0,0.0,0.0,0.0,0.0,0.0,0.0,0.0,0.0,0.0,0.0,0.0,0.0,0.0,0.0,0.0,0.0,0.0,0.0,2.1696,2.1696,2.183,2.222,2.2969,2.3637,2.437,2.5147,2.6558,2.7267,2.7429,2.8179,2.851,2.851,2.851,2.851,2.851,2.851,0.0,0.0,0.0,0.0,0.0,0.0,0.0,0.0,2.9091,2.9378,2.9753,2.9792,0.0,0.0,0.0,0.0,0.0,3.4467,3.5213,3.5745,3.5794,3.6539,3.727,3.727,0.0,0.0,3.7404,3.7494,3.7734,0.0,3.8482,0.0,0.0,0.0,0.0,0.0,0.0,0.0,0.0,0.0,0.0,0.0,0.0,0.0,0.0,0.0,0.0,0.0,4.1422,4.1324,4.1235,4.0696,4.0352,4.0247,4.0247,3.9963,3.9388,3.9388,3.9388,3.9388,3.9388,3.9388,0.0,0.0,0.0,3.926,3.926,3.926,3.926,3.926,3.9334,3.9388,3.9388,3.9388,3.9388,0.0,0.0,0.0,0.0,0.0,0.0,0.0,0.0,0.0,0.0,0.0,0.0,0.0,0.0,0.0,0.0,0.0,0.0,0.0,0.0,0.0,0.0,2.1696,2.1696,2.1696,2.2318,2.296,2.3627,2.437,2.5274,2.6279,2.6887,2.7592,2.8299,2.8431,2.851,2.851,2.851,2.851,2.851,2.851,0.0,0.0,0.0,0.0,0.0,0.0,0.0,0.0,2.9052,2.9275,2.9509,2.974,0.0,0.0,0.0,0.0,0.0,3.4597,3.489,3.5082,3.5263,3.5967,3.6626,3.6626,0.0,0.0,0.0,0.0,0.0,0.0,3.8871,3.929,0.0,0.0,0.0,0.0,0.0,0.0,0.0,0.0,0.0,0.0,0.0,0.0,0.0,0.0,0.0,0.0,0.0,4.113,4.0561,4.0442,4.0127,3.9574,3.9574,3.9514,3.9388,3.9388,3.9388,3.9388,3.9388,3.9388,0.0,0.0,3.9095,3.8542,3.8542,3.8542,3.8542,3.8542,3.8901,3.9388,3.9388,3.9388,3.9388,0.0,0.0,0.0,0.0,0.0,0.0,0.0,0.0,0.0,0.0,0.0,0.0,0.0,0.0,0.0,0.0,0.0,0.0,0.0,0.0,0.0,2.1696,2.1696,2.1696,2.1696,2.2407,2.3135,2.38,2.4551,2.5443,2.6528,2.7237,2.7898,2.851,2.851,2.851,2.851,2.851,2.851,2.851,0.0,0.0,0.0,0.0,0.0,0.0,0.0,0.0,0.0,0.0,2.9236,2.947,2.9702,0.0,0.0,0.0,0.0,0.0,3.4635,3.4835,3.4968,3.5294,3.5663,3.5953,3.5953,0.0,0.0,0.0,0.0,0.0,0.0,0.0,3.9011,3.9493,0.0,0.0,0.0,0.0,0.0,0.0,0.0,0.0,0.0,0.0,0.0,0.0,0.0,0.0,0.0,0.0,4.0187,3.9888,3.9873,3.9723,3.9388,3.9388,3.9388,3.9388,3.9388,3.9388,3.9388,3.9388,3.9388,3.9394,0.0,3.8676,3.8362,3.8003,3.7853,3.7853,3.7853,3.8272,3.8901,3.929,3.9388,3.9388,0.0,0.0,0.0,0.0,0.0,0.0,0.0,0.0,0.0,0.0,0.0,0.0,0.0,0.0,0.0,0.0,0.0,0.0,0.0,0.0,2.1696,2.1696,2.1874,2.1865,2.1696,2.2574,2.3299,2.38,2.4797,2.5821,2.6869,2.7667,2.8203,2.851,2.851,2.851,2.851,2.851,2.851,2.851,0.0,0.0,0.0,0.0,0.0,0.0,0.0,0.0,0.0,0.0,0.0,0.0,0.0,0.0,0.0,3.1928,3.2791,3.3762,3.4654,3.4935,3.5082,3.5407,0.0,0.0,0.0,0.0,0.0,0.0,0.0,0.0,0.0,3.8667,0.0,3.9642,0.0,0.0,0.0,0.0,0.0,0.0,0.0,0.0,0.0,0.0,0.0,0.0,0.0,0.0,0.0,0.0,3.946,3.9388,3.9388,3.9388,3.9388,3.9388,3.9388,3.9388,3.9388,3.9388,3.9388,3.9388,3.9334,3.9155,3.8616,3.8227,3.7913,3.7404,3.7195,3.7195,3.7195,3.7584,3.8242,3.8931,3.9185,3.9185,0.0,0.0,0.0,0.0,0.0,0.0,0.0,0.0,0.0,0.0,0.0,0.0,0.0,0.0,0.0,0.0,0.0,0.0,0.0,0.0,2.1696,2.1696,2.2353,2.2407,2.1687,2.3028,2.3757,2.38,2.5547,2.6869,2.78,2.8231,2.8471,2.851,2.851,2.851,2.851,2.851,2.851,2.851,2.851,0.0,0.0,0.0,0.0,0.0,0.0,0.0,0.0,0.0,0.0,0.0,0.0,0.0,3.2051,3.2074,3.3276,3.465,3.4835,3.5034,3.5213,3.5439,3.5504,0.0,3.5504,3.5983,0.0,3.6649,0.0,0.0,0.0,3.946,3.9915,3.996,0.0,0.0,0.0,0.0,0.0,0.0,0.0,0.0,0.0,0.0,0.0,0.0,0.0,0.0,0.0,0.0,0.0,3.9424,3.9388,3.9388,3.9388,3.9388,3.9388,3.9388,3.9388,3.9388,3.9388,3.9388,3.9065,3.8467,3.8407,3.7719,3.6611,3.6567,3.6552,3.6552,3.6552,3.6941,3.7554,3.8212,3.8467,3.8557,0.0,0.0,0.0,0.0,0.0,0.0,0.0,0.0,0.0,0.0,0.0,0.0,0.0,0.0,0.0,0.0,0.0,0.0,0.0,0.0,2.1909,2.2353,2.2662,2.2872,2.2974,2.3983,2.4466,2.4466,2.6144,2.7103,2.7493,2.8179,2.851,2.851,2.851,2.851,2.851,2.851,2.851,2.851,2.851,2.851,0.0,0.0,0.0,0.0,0.0,0.0,0.0,0.0,2.9091,2.917,2.9663,3.0872,3.211,3.211,3.3346,3.4731,3.4868,3.5034,3.5261,3.5439,3.5804,0.0,0.0,3.6382,3.6872,3.7767,3.8443,0.0,0.0,0.0,4.0046,0.0,0.0,0.0,0.0,0.0,0.0,0.0,0.0,0.0,0.0,0.0,0.0,0.0,0.0,0.0,0.0,0.0,0.0,3.9589,3.9589,3.9517,3.9388,3.9388,3.9388,3.9388,3.9388,3.9388,3.9373,3.8975,3.8631,3.8347,3.7554,3.6959,3.6447,3.6043,3.5878,3.5923,3.6327,3.6626,3.6911,3.7539,3.7778,3.7882,0.0,0.0,0.0,0.0,0.0,0.0,0.0,0.0,0.0,0.0,0.0,0.0,0.0,0.0,0.0,0.0,0.0,0.0,2.1696,2.1696,2.1919,2.2441,2.2671,2.3091,2.38,2.4509,2.4903,2.4903,2.6434,2.7348,2.7644,2.8219,2.851,2.851,2.851,2.851,2.851,2.851,2.851,2.851,2.851,2.851,0.0,0.0,0.0,0.0,0.0,0.0,0.0,0.0,2.9131,2.9287,0.0,0.0,3.1783,3.2051,3.3206,3.4501,3.4802,3.5082,3.5326,3.5472,0.0,0.0,3.6731,3.7079,3.7605,3.8609,3.9165,0.0,0.0,0.0,0.0,0.0,0.0,0.0,0.0,0.0,0.0,0.0,0.0,0.0,0.0,0.0,0.0,0.0,0.0,0.0,0.0,0.0,0.0,0.0,3.9732,3.9625,3.9481,3.9424,3.9388,3.9388,3.92,3.9095,3.908,3.8601,3.8167,3.7734,3.6866,3.6372,3.6148,3.5684,3.5504,3.5549,3.5998,3.6178,3.6252,3.6881,3.7241,3.7479,0.0,0.0,0.0,0.0,0.0,0.0,0.0,0.0,0.0,0.0,0.0,0.0,0.0,0.0,0.0,0.0,0.0,0.0,2.1696,2.1696,2.1696,2.1687,2.2397,2.3135,2.38,2.4551,2.4903,2.4903,2.6434,2.7644,2.851,2.851,2.851,2.851,2.851,2.851,2.851,2.851,2.851,2.851,2.851,2.851,2.851,0.0,0.0,0.0,0.0,0.0,0.0,0.0,2.9236,2.947,0.0,0.0,0.0,3.1856,3.2897,3.3968,3.4687,3.518,3.5504,3.5504,0.0,0.0,3.727,3.8082,3.8771,3.8979,0.0,4.0489,4.0489,0.0,0.0,0.0,0.0,0.0,0.0,0.0,0.0,0.0,0.0,0.0,0.0,0.0,0.0,0.0,0.0,0.0,0.0,0.0,0.0,0.0,3.9803,3.9681,3.9681,3.9481,3.9388,3.9394,3.8721,3.8392,3.8392,3.8377,3.7674,3.6492,3.6477,3.6103,3.5504,3.5504,3.5504,3.5504,3.5504,3.5504,3.5579,3.6237,3.6862,3.7494,0.0,0.0,0.0,0.0,0.0,0.0,0.0,0.0,0.0,0.0,0.0,0.0,0.0,0.0,0.0,0.0,0.0,0.0,2.1696,2.1696,2.1909,2.2441,2.2662,2.3353,2.4551,2.5516,2.603,2.603,2.7156,2.7829,2.8082,2.8351,2.851,2.851,2.851,2.851,2.851,2.851,2.851,2.851,2.851,2.851,2.851,0.0,0.0,0.0,0.0,0.0,0.0,0.0,0.0,0.0,0.0,0.0,3.1044,3.1856,3.2897,3.3968,3.4687,3.518,0.0,3.5504,0.0,0.0,0.0,3.817,0.0,0.0,4.0282,4.0489,0.0,0.0,0.0,0.0,0.0,0.0,0.0,0.0,0.0,0.0,0.0,0.0,0.0,0.0,0.0,0.0,0.0,0.0,0.0,0.0,0.0,0.0,4.0031,3.9839,3.9681,3.9481,3.917,3.8691,3.8497,3.8392,3.8362,3.7464,3.6851,3.6462,3.5998,3.5684,3.5504,3.5504,3.5504,3.5504,3.5504,3.5504,3.5534,3.5729,3.6181,3.6785,0.0,0.0,0.0,0.0,0.0,0.0,0.0,0.0,0.0,0.0,0.0,0.0,0.0,0.0,0.0,0.0,0.0,0.0,0.0,0.0,2.1909,2.2353,2.2627,2.3527,2.5094,2.6227,2.6857,2.7074,2.7626,2.7962,2.8122,2.8391,2.851,2.851,2.851,2.851,2.851,2.851,2.851,2.851,2.851,2.851,2.851,0.0,0.0,0.0,0.0,0.0,0.0,0.0,0.0,0.0,2.9753,0.0,3.0696,3.1842,3.2741,3.3561,3.4706,3.5261,0.0,3.5504,3.6462,3.7588,3.8266,0.0,0.0,0.0,0.0,0.0,0.0,0.0,0.0,0.0,0.0,0.0,0.0,0.0,0.0,0.0,0.0,0.0,0.0,0.0,0.0,0.0,0.0,0.0,0.0,0.0,0.0,0.0,4.0207,4.0031,3.9803,3.944,3.8953,3.8377,3.7937,3.7698,3.7614,3.6836,3.6342,3.6073,3.5684,3.5504,3.5504,3.5504,3.5504,3.5504,3.5504,3.5504,3.5537,3.5765,3.6258,3.689,0.0,0.0,0.0,0.0,0.0,0.0,0.0,0.0,0.0,0.0,2.1696,0.0,0.0,0.0,0.0,0.0,0.0,0.0,0.0,0.0,2.1954,2.1865,2.2652,2.3897,2.5537,2.667,2.7482,2.7893,2.7933,2.8122,2.851,2.851,2.851,2.851,2.851,2.851,2.851,2.851,2.851,2.851,2.851,2.851,2.851,2.851,0.0,0.0,0.0,0.0,0.0,0.0,0.0,0.0,2.9895,2.9895,3.0216,3.1901,3.2536,3.3066,3.4706,3.5326,0.0,3.5504,3.6462,0.0,3.9587,4.0011,4.0101,4.0436,0.0,0.0,0.0,0.0,0.0,0.0,0.0,0.0,0.0,0.0,0.0,0.0,0.0,0.0,0.0,0.0,0.0,0.0,0.0,0.0,0.0,0.0,0.0,0.0,4.0366,4.0176,3.994,3.9313,3.8761,0.0,3.7184,3.6598,3.6402,3.6402,3.6106,3.5602,3.5537,3.5537,3.5602,3.5537,3.5504,3.5504,3.5504,3.5504,3.5554,3.6164,3.6814,3.7488,0.0,0.0,0.0,0.0,0.0,0.0,0.0,0.0,0.0,0.0,0.0,0.0,0.0,0.0,0.0,0.0,0.0,0.0,0.0,0.0,2.3627,2.3052,2.4606,2.5631,2.606,2.7156,2.78,2.7893,2.8203,2.8431,2.851,2.851,2.851,2.851,2.851,2.851,2.851,2.851,2.851,2.851,2.851,2.851,2.851,2.851,2.851,0.0,0.0,0.0,0.0,0.0,0.0,0.0,3.0482,3.0645,3.0983,3.2563,3.3248,3.3748,3.4721,3.5213,0.0,0.0,3.6462,3.7867,3.9587,4.0011,4.0101,0.0,0.0,0.0,0.0,0.0,0.0,0.0,0.0,0.0,0.0,0.0,0.0,0.0,0.0,0.0,0.0,0.0,0.0,0.0,0.0,0.0,0.0,0.0,0.0,4.0489,4.0366,4.0002,3.9383,3.9123,3.8326,0.0,3.683,3.6358,3.5714,3.5714,3.5901,3.6164,3.5716,3.5765,3.6164,3.5716,3.5504,3.5504,3.5504,3.5504,3.5554,3.6164,3.6814,3.7488,0.0,0.0,0.0,0.0,0.0,0.0,0.0,0.0,0.0,0.0,0.0,0.0,0.0,0.0,0.0,0.0,0.0,0.0,0.0,0.0,0.0,2.4723,2.5673,2.6445,2.6992,2.7598,2.8002,2.8203,2.8391,2.851,2.851,2.851,2.851,2.851,2.851,2.851,2.851,2.851,2.851,2.851,2.851,2.851,2.851,2.8618,2.8657,2.8657,2.8882,0.0,0.0,0.0,0.0,0.0,0.0,0.0,3.1143,3.2407,3.3248,3.3968,3.482,0.0,0.0,3.5893,0.0,3.7895,3.9232,3.9823,0.0,0.0,0.0,0.0,0.0,0.0,0.0,0.0,0.0,0.0,0.0,0.0,0.0,0.0,0.0,0.0,0.0,0.0,0.0,0.0,0.0,0.0,0.0,4.0829,4.0306,4.0047,3.9944,3.9538,3.8733,3.8409,3.7788,3.6826,3.6526,3.6079,3.5504,3.5504,3.5814,3.6368,3.5765,3.5861,3.6337,3.5733,3.5683,3.591,3.5619,3.5878,3.643,3.6753,3.728,3.7908,0.0,0.0,0.0,0.0,0.0,0.0,0.0,0.0,0.0,0.0,0.0,0.0,0.0,0.0,0.0,0.0,0.0,0.0,0.0,0.0,0.0,0.0,2.6558,2.7033,2.7962,2.8002,2.8163,2.851,2.851,2.851,2.851,2.851,2.851,2.851,2.851,2.851,2.851,2.851,2.851,2.851,2.851,2.851,2.851,2.8724,2.8791,2.8843,2.9091,0.0,2.9419,2.9457,0.0,0.0,0.0,0.0,3.1291,3.2371,3.3283,3.4119,3.4935,0.0,3.5669,3.6327,3.6982,0.0,3.8713,3.9542,0.0,0.0,0.0,0.0,0.0,0.0,0.0,0.0,0.0,0.0,0.0,0.0,0.0,0.0,0.0,0.0,0.0,0.0,0.0,0.0,0.0,0.0,4.1098,4.0463,3.9872,3.949,3.949,3.9084,3.8227,3.785,3.743,3.7002,3.6391,3.5941,3.5651,3.5668,3.6022,3.6554,3.6085,3.6148,3.6538,3.6022,3.6053,3.6368,3.5973,3.6461,3.7429,3.7517,3.7879,3.8407,0.0,0.0,0.0,0.0,0.0,0.0,0.0,0.0,0.0,0.0,0.0,0.0,0.0,0.0,0.0,0.0,0.0,0.0,0.0,0.0,0.0,0.0,2.803,2.8259,2.8431,2.8431,2.8431,2.851,2.851,2.851,2.851,2.851,2.851,2.851,2.851,2.851,2.851,2.851,2.851,2.851,2.851,2.851,2.851,2.8724,2.8791,2.8831,2.9223,0.0,2.9419,2.9663,2.9792,0.0,0.0,0.0,0.0,3.3673,3.4332,3.4616,0.0,0.0,3.5669,0.0,3.6585,3.7027,0.0,0.0,0.0,0.0,0.0,0.0,0.0,0.0,0.0,0.0,0.0,0.0,0.0,0.0,0.0,0.0,0.0,0.0,0.0,0.0,0.0,0.0,0.0,0.0,3.9724,3.9103,3.8959,3.9393,3.9424,3.9078,3.8371,3.8308,3.7901,3.7091,3.6708,3.643,3.629,3.6399,3.6753,3.728,3.731,3.731,3.7251,3.7191,3.6845,3.6461,3.6951,3.7251,3.7458,3.7994,3.8222,3.8407,0.0,0.0,0.0,0.0,0.0,0.0,0.0,0.0,0.0,0.0,0.0,0.0,0.0,0.0,0.0,0.0,0.0,0.0,0.0,0.0,0.0,0.0,2.8391,2.851,2.851,2.851,2.851,2.851,2.851,2.851,2.851,2.851,2.851,2.851,2.851,2.851,2.851,2.8618,2.8657,2.8697,2.8776,2.8828,2.8855,2.9079,2.9145,2.9184,0.0,0.0,0.0,0.0,3.0419,3.0595,3.1746,0.0,0.0,0.0,3.4182,3.4765,3.5016,3.5294,3.5579,0.0,3.6207,3.6693,3.7402,0.0,0.0,0.0,0.0,0.0,0.0,0.0,0.0,0.0,0.0,0.0,0.0,0.0,0.0,0.0,0.0,0.0,0.0,0.0,0.0,0.0,0.0,3.8764,3.9471,3.8843,3.8419,3.834,3.867,3.8355,3.7359,3.7993,3.7937,3.7086,3.7219,3.704,3.6723,3.744,3.7803,3.7879,3.7279,3.7175,3.737,3.6981,3.6906,3.6981,3.728,3.7838,3.8467,3.8351,3.8535,3.8898,0.0,0.0,0.0,0.0,0.0,0.0,0.0,0.0,0.0,0.0,0.0,0.0,0.0,0.0,0.0,0.0,0.0,0.0,0.0,0.0,0.0,0.0,0.0,2.851,2.851,2.851,2.851,2.851,2.851,2.851,2.851,2.851,2.855,2.8578,2.851,2.855,2.8578,2.8724,2.8843,2.8882,2.9052,2.9091,2.9131,2.9302,2.9419,2.9419,2.9702,0.0,0.0,0.0,0.0,0.0,0.0,0.0,0.0,0.0,0.0,0.0,0.0,0.0,3.5439,3.5504,3.5878,3.6301,0.0,0.0,0.0,0.0,0.0,0.0,0.0,0.0,0.0,0.0,0.0,0.0,0.0,0.0,0.0,0.0,0.0,0.0,0.0,0.0,0.0,0.0,0.0,3.8167,3.8701,3.8368,3.8009,3.7701,3.8296,3.8162,3.7208,3.8096,3.7966,3.689,3.769,3.7748,3.7191,3.823,3.8707,3.8562,3.7732,3.7485,3.7589,3.728,3.734,3.7663,3.7809,3.8467,3.9245,3.8745,3.8871,3.9299,0.0,0.0,0.0,0.0,0.0,0.0,0.0,0.0,0.0,0.0,0.0,0.0,0.0,0.0,2.8271,2.7881,0.0,0.0,0.0,0.0,0.0,0.0,0.0,0.0,2.851,2.851,2.851,2.851,2.851,2.851,2.851,2.851,2.8618,2.8803,2.8578,2.8618,2.8803,0.0,0.0,2.9091,2.9091,2.9091,2.9131,0.0,0.0,0.0,0.0,0.0,0.0,0.0,0.0,0.0,0.0,0.0,0.0,0.0,0.0,0.0,0.0,3.5082,0.0,3.5439,0.0,0.0,0.0,0.0,0.0,0.0,0.0,0.0,0.0,0.0,0.0,0.0,0.0,0.0,0.0,0.0,0.0,0.0,0.0,0.0,0.0,0.0,0.0,0.0,0.0,3.6615,3.6646,3.7166,3.7714,3.823,3.8832,3.9131,3.9055,3.9109,3.8165,3.6258,3.8003,3.8469,3.7793,3.8553,3.9092,3.9432,3.952,3.9044,3.8294,3.8898,3.8788,3.8322,3.8969,3.9245,3.9299,3.9272,3.9272,3.9299,0.0,0.0,0.0,0.0,0.0,0.0,0.0,0.0,0.0,0.0,0.0,0.0,0.0,2.851,2.8431,2.8323,2.8283,0.0,0.0,0.0,0.0,0.0,0.0,0.0,0.0,2.851,2.851,2.851,2.851,2.851,2.851,2.851,2.8618,2.8791,2.8724,2.8803,2.9,2.9145,0.0,0.0,0.0,0.0,0.0,0.0,0.0,0.0,0.0,0.0,0.0,0.0,0.0,0.0,0.0,0.0,0.0,0.0,0.0,0.0,0.0,0.0,0.0,3.5294,3.5392,0.0,0.0,0.0,0.0,0.0,0.0,0.0,0.0,0.0,0.0,0.0,0.0,0.0,0.0,0.0,0.0,0.0,0.0,0.0,0.0,0.0,0.0,0.0,0.0,0.0,3.7074,3.765,3.8067,3.8278,3.8892,3.9391,3.9773,3.9391,3.8657,3.756,3.8821,3.8957,3.8137,3.9028,3.9487,3.9642,3.9772,3.9232,3.8322,3.8645,3.8574,3.8379,3.905,3.9352,3.9422,3.9325,3.9352,3.9422,0.0,0.0,0.0,0.0,0.0,0.0,0.0,0.0,0.0,0.0,0.0,0.0,0.0,0.0,2.851,2.851,2.851,2.851,2.851,2.851,0.0,0.0,0.0,0.0,0.0,2.851,2.851,2.851,2.851,2.851,2.851,2.8578,2.8697,2.8882,2.8949,2.9079,0.0,0.0,0.0,2.956,0.0,0.0,2.9792,0.0,0.0,0.0,0.0,0.0,0.0,0.0,0.0,0.0,0.0,0.0,0.0,0.0,0.0,0.0,3.4664,0.0,0.0,0.0,0.0,0.0,0.0,0.0,0.0,0.0,0.0,0.0,0.0,0.0,0.0,0.0,0.0,0.0,0.0,0.0,0.0,0.0,0.0,0.0,0.0,0.0,0.0,0.0,0.0,0.0,3.7387,3.7982,3.849,3.8903,3.9295,3.9618,3.9799,3.9618,3.9109,3.8306,3.9339,3.9391,3.8629,3.9461,3.9807,3.9781,3.991,3.9461,3.8662,3.8799,3.8772,3.8673,3.9175,3.9422,3.9501,3.9405,3.9405,3.9501,0.0,0.0,0.0,0.0,0.0,0.0,0.0,0.0,0.0,0.0,0.0,0.0,0.0,0.0,0.0,2.851,2.851,2.851,2.851,2.851,0.0,0.0,0.0,0.0,0.0,2.851,2.851,2.851,2.851,2.851,2.851,2.8724,2.8922,2.9131,2.9314,2.9419,2.9419,0.0,2.956,2.9792,0.0,2.9792,2.983,0.0,0.0,0.0,3.0696,3.1452,0.0,3.211,0.0,0.0,0.0,0.0,0.0,0.0,0.0,0.0,0.0,0.0,0.0,0.0,0.0,0.0,0.0,0.0,0.0,0.0,0.0,0.0,0.0,0.0,0.0,0.0,0.0,0.0,0.0,0.0,0.0,0.0,0.0,0.0,0.0,0.0,0.0,0.0,0.0,3.6785,3.7358,3.7982,3.8876,4.0045,4.0096,3.9825,3.9232,3.9799,3.948,3.8334,3.9523,3.9773,3.9232,3.9825,4.0037,3.9901,4.0037,3.9807,3.9325,3.9432,3.9448,3.9325,3.9448,3.9501,3.9528,3.9501,3.9501,3.9528,0.0,0.0,0.0,0.0,0.0,0.0,0.0,0.0,0.0,0.0,0.0,0.0,2.851,2.851,2.851,2.851,2.851,2.851,2.851,2.851,2.851,2.851,2.851,2.851,2.851,2.851,2.851,2.851,2.851,0.0,0.0,0.0,0.0,0.0,2.938,2.9509,2.9702,2.9702,0.0,2.9792,2.9792,3.0101,0.0,0.0,0.0,0.0,0.0,3.1928,3.2182,0.0,3.3192,3.3589,0.0,0.0,0.0,0.0,0.0,0.0,3.4481,0.0,0.0,0.0,0.0,0.0,0.0,0.0,0.0,0.0,0.0,0.0,0.0,0.0,0.0,0.0,0.0,0.0,0.0,0.0,0.0,0.0,0.0,0.0,0.0,0.0,0.0,0.0,3.6892,3.7208,3.7387,3.8395,3.9295,4.0087,4.0096,4.002,3.985,4.002,3.9705,3.8974,3.9618,3.9687,3.9232,3.9713,3.9952,3.9901,4.0037,3.9858,3.9475,3.959,3.9563,3.9448,3.9501,3.9616,3.9772,3.9563,3.9616,3.9772,0.0,0.0,0.0,0.0,0.0,0.0,0.0,0.0,0.0,0.0,0.0,0.0,2.851,2.851,2.851,2.851,2.851,2.851,2.851,2.851,2.851,2.851,2.851,2.851,2.851,2.851,2.855,2.8618,2.8618,0.0,0.0,0.0,0.0,0.0,0.0,0.0,0.0,0.0,0.0,0.0,3.0508,0.0,0.0,3.1267,3.1709,0.0,0.0,0.0,3.2684,3.3451,3.3707,0.0,0.0,0.0,0.0,0.0,0.0,0.0,0.0,0.0,0.0,0.0,0.0,0.0,3.5472,3.5504,0.0,0.0,0.0,0.0,0.0,0.0,0.0,0.0,0.0,0.0,0.0,0.0,0.0,0.0,0.0,0.0,0.0,0.0,0.0,3.6492,3.6846,3.7118,3.7387,3.8535,3.9365,3.9722,3.9969,4.0096,4.0096,4.0096,3.9901,3.9592,3.9841,3.9841,3.9575,3.9841,3.9986,3.9986,4.0062,3.991,3.959,3.9729,3.9668,3.9528,3.9616,3.9772,3.9875,3.972,3.9772,3.9875,0.0,0.0,0.0,0.0,0.0,0.0,0.0,0.0,0.0,0.0,0.0,2.8697,0.0,0.0,0.0,0.0,2.859,2.859,2.859,2.859,2.859,2.859,2.855,2.855,2.859,2.855,2.8618,2.8843,2.8843,2.8922,2.9131,2.9419,0.0,0.0,0.0,0.0,0.0,0.0,0.0,3.019,3.1539,3.1709,0.0,0.0,3.24,3.2544,3.329,3.3487,3.3536,3.4176,3.4414,0.0,0.0,0.0,0.0,0.0,3.4414,0.0,0.0,0.0,0.0,0.0,0.0,0.0,3.5439,3.5472,3.5504,0.0,0.0,0.0,0.0,0.0,0.0,0.0,0.0,0.0,0.0,0.0,0.0,0.0,0.0,0.0,0.0,3.6492,3.6492,3.6492,3.6554,3.6861,3.746,3.859,3.9232,3.9286,3.9825,4.0096,4.0096,4.0096,4.0096,4.0096,4.0096,4.0096,4.0096,4.0096,4.0096,4.0096,4.0096,3.9961,3.9729,3.9875,3.9772,3.9554,3.9798,3.9901,3.9901,3.9901,3.9901,3.9901,0.0,0.0,0.0,0.0,0.0,0.0,0.0,0.0,0.0,0.0,0.0,0.0,0.0,0.0,0.0,0.0,0.0,2.8973,2.8973,2.8973,2.8973,2.8973,2.8843,2.8803,2.8973,2.8803,2.8843,2.9052,2.9052,2.9157,2.9341,3.005,0.0,0.0,0.0,0.0,0.0,0.0,0.0,3.1686,3.1978,0.0,3.2846,3.3539,3.4179,3.4829,3.5488,3.5379,3.4909,0.0,3.4414,3.4414,0.0,0.0,0.0,0.0,0.0,0.0,0.0,0.0,0.0,0.0,0.0,0.0,3.5261,3.5359,3.5504,0.0,0.0,0.0,0.0,0.0,0.0,0.0,0.0,0.0,0.0,0.0,0.0,0.0,0.0,0.0,0.0,3.6492,3.6492,3.6492,3.6952,3.749,3.8096,3.881,3.9418,3.9918,4.0045,4.0096,4.0096,4.0096,4.0096,4.0096,4.0096,4.0096,4.0096,4.0096,4.0096,4.0096,4.0096,4.0011,3.9875,4.0011,3.991,3.9677,3.9849,3.9901,3.9901,3.9901,3.9901,3.9901,0.0,0.0,0.0,0.0,0.0,0.0,0.0,0.0,0.0,0.0,0.0,0.0,0.0,0.0,0.0,0.0,0.0,0.0,0.0,0.0,2.969,2.969,2.9236,2.9013,2.9091,2.9013,2.904,2.9236,2.9639,2.9935,3.0152,0.0,0.0,0.0,0.0,0.0,0.0,0.0,3.3003,3.2684,3.3101,0.0,3.3769,3.4498,3.523,3.588,3.6199,3.5894,3.5348,3.4994,3.4675,0.0,0.0,3.4414,3.4414,0.0,3.4414,3.4414,0.0,0.0,0.0,3.4664,0.0,0.0,0.0,3.5115,3.5213,0.0,0.0,0.0,0.0,0.0,0.0,0.0,0.0,0.0,0.0,0.0,0.0,0.0,0.0,0.0,0.0,3.6258,3.6289,3.6352,3.6708,3.7193,3.7825,3.8435,3.9028,3.9644,3.9927,4.0096,4.0096,4.0096,4.0096,4.0096,4.0096,4.0096,4.0096,4.0096,4.0096,4.0096,4.0096,4.0037,3.9901,4.0037,3.9986,3.9807,3.9935,3.9986,3.9986,3.9986,3.9986,3.9986,0.0,0.0,0.0,0.0,0.0,0.0,0.0,0.0,0.0,0.0,0.0,0.0,0.0,0.0,0.0,0.0,0.0,0.0,0.0,0.0,3.0645,3.0645,2.9986,2.9651,2.969,2.9651,2.9716,2.9935,3.057,0.0,0.0,0.0,0.0,0.0,0.0,0.0,0.0,0.0,0.0,3.3485,0.0,3.4583,3.4548,3.5422,3.6054,3.6504,3.6504,3.617,3.5755,3.5625,0.0,3.4588,3.4588,3.4501,0.0,0.0,0.0,0.0,0.0,0.0,0.0,0.0,0.0,3.4731,0.0,0.0,0.0,0.0,0.0,0.0,0.0,0.0,0.0,0.0,0.0,0.0,0.0,0.0,0.0,0.0,0.0,0.0,0.0,3.6005,3.6022,3.6148,3.643,3.6876,3.7474,3.8124,3.8739,3.9365,3.9867,4.0096,4.0096,4.0096,4.0096,4.0096,4.0096,4.0096,4.0096,4.0096,4.0096,4.0096,4.0096,4.0037,3.9952,4.0062,4.0037,3.9935,4.0062,4.007,4.0045,4.007,4.007,4.0062,3.1007,3.1068,0.0,0.0,0.0,0.0,0.0,0.0,0.0,0.0,0.0,0.0,0.0,0.0,0.0,0.0,0.0,0.0,3.2823,0.0,0.0,3.1892,3.1636,3.1576,3.1746,3.1563,3.1613,3.1783,3.1892,0.0,0.0,0.0,0.0,0.0,3.3825,0.0,0.0,0.0,3.4264,0.0,3.521,3.5438,0.0,3.6613,3.7128,3.7201,3.7201,3.7143,3.6997,0.0,3.5778,3.529,0.0,3.4864,3.4414,0.0,0.0,0.0,0.0,0.0,0.0,0.0,3.4563,0.0,0.0,0.0,3.4902,0.0,0.0,0.0,0.0,0.0,0.0,0.0,0.0,0.0,0.0,0.0,0.0,0.0,0.0,0.0,0.0,0.0,3.6005,3.6037,3.6631,3.7294,3.7889,3.8668,3.9365,3.9969,4.0045,4.0096,4.0096,4.0096,4.0096,4.0096,4.0096,4.0096,4.0096,4.0096,4.0096,4.0096,4.0096,4.007,4.0087,4.0096,4.007,4.0087,4.0096,4.0037,3.9952,4.0062,4.0037,3.9952,3.2448,3.2146,0.0,0.0,0.0,0.0,0.0,0.0,0.0,0.0,0.0,0.0,0.0,0.0,0.0,0.0,0.0,3.4921,0.0,0.0,0.0,0.0,3.2786,3.2353,3.2123,3.2015,3.2015,3.211,3.2541,0.0,0.0,0.0,0.0,0.0,3.4264,0.0,3.4578,0.0,3.5034,0.0,0.0,0.0,0.0,3.7411,3.7886,3.8157,3.8157,3.796,3.7622,0.0,3.6731,0.0,0.0,0.0,0.0,0.0,0.0,0.0,0.0,0.0,0.0,0.0,0.0,0.0,3.4515,0.0,3.465,0.0,0.0,0.0,0.0,0.0,0.0,0.0,0.0,0.0,0.0,0.0,0.0,0.0,0.0,0.0,0.0,0.0,0.0,0.0,0.0,3.7953,3.8557,3.8957,3.947,4.007,4.0096,4.0096,4.0096,4.0096,4.0096,4.0096,4.0096,4.0096,4.0096,4.0096,4.0096,4.0096,4.0096,4.0096,4.0096,4.0096,4.0096,4.0096,4.0096,4.0062,4.0037,4.0087,4.0045,4.0037,3.3701,0.0,0.0,0.0,0.0,0.0,0.0,0.0,0.0,0.0,0.0,0.0,3.6809,3.6823,0.0,0.0,3.6678,3.6577,0.0,0.0,3.5279,0.0,0.0,0.0,0.0,3.3018,3.2899,3.2733,3.3276,0.0,0.0,0.0,0.0,0.0,0.0,3.4617,3.499,0.0,0.0,3.6074,3.729,3.7884,3.8082,3.8119,3.8435,3.8782,3.8782,3.8502,3.817,3.817,3.762,0.0,3.6221,0.0,0.0,0.0,0.0,0.0,3.4481,0.0,0.0,0.0,0.0,0.0,0.0,0.0,0.0,0.0,0.0,0.0,0.0,0.0,0.0,0.0,0.0,0.0,0.0,0.0,0.0,0.0,0.0,0.0,0.0,0.0,0.0,0.0,3.7562,3.8226,3.8838,3.9017,3.9382,4.002,4.0062,4.0045,4.0096,4.0096,4.0096,4.0096,4.0096,4.0096,4.0096,4.0096,4.0096,4.0096,4.0096,4.0096,4.0096,4.0096,4.0096,4.0096,4.0096,4.0096,4.0096,4.0096,4.0096,4.0096,3.438,3.4346,0.0,0.0,0.0,0.0,0.0,0.0,0.0,0.0,0.0,0.0,0.0,0.0,0.0,0.0,0.0,3.7273,3.7273,0.0,3.6265,0.0,0.0,3.5896,0.0,0.0,3.4989,3.4346,0.0,0.0,0.0,0.0,0.0,0.0,0.0,3.4865,3.5668,3.5683,3.6138,3.693,3.7822,3.8633,3.9307,0.0,3.8767,3.8782,3.8782,0.0,0.0,3.8752,3.8354,0.0,0.0,0.0,0.0,0.0,0.0,0.0,0.0,0.0,0.0,3.4448,0.0,0.0,0.0,0.0,3.4414,0.0,0.0,0.0,0.0,0.0,0.0,0.0,0.0,0.0,0.0,0.0,0.0,0.0,0.0,0.0,0.0,0.0,0.0,3.737,3.7531,3.7879,3.8474,3.8689,3.9158,3.9901,3.9901,3.9961,4.0096,4.0096,4.0096,4.0096,4.0096,4.0096,4.0096,4.0096,4.0096,4.0096,4.0096,4.0096,4.0096,4.0096,4.0096,4.0096,4.0096,4.0096,4.0096,4.0096,4.0096,4.0096,0.0,0.0,0.0,0.0,0.0,0.0,0.0,3.6359,0.0,0.0,0.0,0.0,0.0,3.887,3.8932,0.0,0.0,3.8414,3.8127,3.7768,0.0,0.0,0.0,3.6664,0.0,0.0,0.0,0.0,0.0,0.0,0.0,0.0,0.0,0.0,0.0,3.5781,0.0,0.0,0.0,0.0,0.0,3.9035,3.9388,0.0,0.0,3.9177,3.9177,3.9177,0.0,3.9177,3.8956,3.8602,3.7949,3.7192,3.6438,3.576,3.524,0.0,0.0,0.0,3.4783,3.4631,0.0,0.0,0.0,0.0,0.0,0.0,0.0,0.0,0.0,0.0,0.0,0.0,0.0,0.0,0.0,0.0,0.0,0.0,0.0,0.0,0.0,0.0,0.0,3.7994,3.8535,3.8952,0.0,3.9398,3.9651,3.9901,3.9986,4.0062,4.0096,4.0096,4.0096,4.0096,4.0096,4.0096,4.0096,4.0096,4.0096,4.0096,4.0096,4.0096,4.0096,4.0096,4.0096,4.0096,4.0096,4.0096,4.0096,4.0096,4.0096,4.0096,3.5082,0.0,0.0,0.0,0.0,0.0,0.0,0.0,0.0,0.0,3.8556,0.0,3.9375,0.0,3.9808,0.0,3.9832,3.9531,3.8911,3.8814,0.0,3.7776,3.7806,0.0,0.0,0.0,0.0,0.0,0.0,3.5741,0.0,0.0,0.0,0.0,0.0,3.665,3.758,0.0,3.8216,0.0,0.0,3.9265,0.0,0.0,3.9388,3.9388,0.0,3.9388,3.9388,3.9388,3.9301,3.9109,3.8475,3.7877,3.7267,3.6378,3.5815,3.5411,3.5108,3.5001,0.0,3.4817,3.4783,0.0,3.4563,0.0,0.0,0.0,0.0,0.0,0.0,0.0,0.0,0.0,0.0,0.0,0.0,0.0,0.0,0.0,0.0,0.0,0.0,0.0,3.8562,3.8322,3.9007,3.9448,0.0,0.0,3.9746,3.9824,3.9858,3.9961,4.0096,4.0062,4.0062,4.0096,4.0096,4.0096,4.0096,4.0096,4.0096,4.0096,4.0096,4.0096,4.0096,4.0096,4.0096,4.0096,4.0096,4.0096,4.0096,4.0096,4.0096,4.0096,0.0,0.0,0.0,0.0,3.5988,0.0,0.0,0.0,3.7879,0.0,3.9303,3.9829,3.9887,4.0448,4.0855,4.0855,4.0855,0.0,3.9645,3.97,0.0,0.0,3.8701,3.8517,3.7978,0.0,0.0,0.0,0.0,0.0,0.0,0.0,0.0,0.0,3.689,0.0,3.8255,3.8255,3.8698,3.9388,3.9388,3.9388,3.9388,3.9388,0.0,3.9388,3.9388,3.9388,3.9388,3.9388,3.9388,3.9305,3.8646,3.8422,3.8153,3.6941,3.6537,3.6309,3.5502,3.5243,3.518,3.4968,0.0,0.0,0.0,0.0,3.4664,0.0,0.0,0.0,0.0,0.0,0.0,0.0,0.0,0.0,0.0,0.0,0.0,0.0,0.0,0.0,0.0,3.8579,3.905,3.8407,3.8925,0.0,0.0,0.0,3.9432,3.9677,3.9563,3.9694,4.0087,3.9961,3.9977,4.0096,4.0096,4.0096,4.0096,4.0096,4.0096,4.0096,4.0096,4.0096,4.0096,4.0096,4.0096,4.0096,4.0096,4.0096,4.0096,4.0096,4.0096,4.0096,3.7198,3.7334,3.743,0.0,3.725,3.7338,0.0,0.0,0.0,0.0,3.9658,4.0168,4.1126,4.1376,4.1519,4.17,4.1558,0.0,0.0,0.0,0.0,3.9488,3.9025,3.8723,3.8561,3.851,0.0,3.8238,0.0,0.0,3.746,0.0,0.0,0.0,0.0,0.0,3.9098,3.9098,3.9224,3.9388,3.9388,3.9388,0.0,0.0,3.9388,3.9388,3.9388,3.9388,3.9388,3.9388,3.9388,3.9394,3.9215,3.8796,3.8332,3.8003,3.7225,3.6447,3.6249,3.5798,3.5359,3.518,3.5115,3.5082,0.0,0.0,0.0,0.0,0.0,0.0,0.0,0.0,0.0,0.0,0.0,0.0,0.0,0.0,0.0,0.0,0.0,0.0,0.0,3.9121,3.9245,3.905,3.9202,0.0,0.0,0.0,0.0,3.9537,3.9599,3.9746,3.9935,3.9926,3.9977,4.0096,4.0096,4.0096,4.0096,4.0096,4.0096,4.0096,4.0096,4.0096,4.0096,4.0096,4.0096,4.0096,4.0096,4.0096,4.0096,4.0096,4.0096,4.0096,3.9008,0.0,0.0,3.8826,0.0,0.0,3.8215,0.0,0.0,3.989,4.0514,0.0,4.1932,4.2258,4.2461,4.2564,4.2461,0.0,4.157,0.0,0.0,3.9964,3.9654,3.935,3.9068,3.898,0.0,3.8943,0.0,0.0,3.8302,0.0,0.0,0.0,0.0,3.8958,0.0,3.9388,3.9388,3.9388,3.9388,0.0,0.0,3.9388,3.9388,3.9388,3.9388,3.9388,3.9388,3.9388,3.9388,3.9388,3.9388,3.9155,3.8781,3.8482,3.7674,3.6836,3.6552,3.6013,3.5472,3.5359,3.5326,3.5294,3.5082,3.5034,3.5001,0.0,0.0,0.0,0.0,0.0,0.0,0.0,0.0,0.0,0.0,0.0,0.0,0.0,0.0,0.0,0.0,0.0,0.0,0.0,0.0,0.0,0.0,0.0,0.0,3.9501,3.9563,3.972,3.9901,3.9901,3.9977,4.0096,4.0096,4.0096,4.0096,4.0096,4.0096,4.0096,4.0096,4.0096,4.0096,4.0096,4.0096,4.0096,4.0096,4.0096,4.0096,4.0096,4.0096,4.0096,0.0,0.0,0.0,0.0,0.0,0.0,0.0,3.9913,0.0,4.0517,0.0,4.2541,4.2515,4.3064,4.3409,4.329,0.0,4.3026,4.2302,4.2339,4.181,4.0457,4.0412,4.0127,3.9559,3.9273,0.0,0.0,0.0,0.0,0.0,0.0,0.0,0.0,0.0,0.0,0.0,3.9388,3.9388,0.0,3.9388,3.9388,3.9388,3.9388,3.9388,3.9388,3.9388,3.9388,3.9388,3.9388,3.9388,3.9388,3.9388,3.9388,3.9305,3.8691,3.8063,3.7404,3.6776,3.6133,3.5609,3.5534,3.5504,3.5439,3.5294,3.5261,3.518,3.5001,3.4968,3.5001,0.0,0.0,0.0,0.0,0.0,0.0,0.0,0.0,0.0,0.0,0.0,0.0,0.0,0.0,0.0,0.0,0.0,0.0,0.0,0.0,0.0,3.9501,3.9501,0.0,3.9901,0.0,3.9977,4.0096,4.0096,4.0096,4.0096,4.0096,4.0096,4.0096,4.0096,4.0096,4.0096,4.0096,4.0096,4.0096,4.0096,4.0096,4.0096,4.0096,4.0096,4.0096,0.0,0.0,0.0,0.0,0.0,4.2469,4.2811,4.1886,4.1597,4.2744,4.3149,4.3252,4.3129,4.3812,4.4028,4.3369,4.329,0.0,0.0,0.0,0.0,4.2028,4.098,4.0352,4.0232,3.9657,3.9337,0.0,0.0,0.0,0.0,0.0,0.0,0.0,0.0,0.0,3.9388,3.9388,0.0,3.9388,3.9388,3.9388,3.9388,3.9388,3.9388,3.9388,3.9388,3.9388,3.9388,3.9388,3.9388,3.9388,3.9388,3.9388,3.9394,3.9275,3.8751,3.8078,3.7419,3.6791,3.6178,3.5639,3.5504,3.5504,3.5472,3.5439,3.5439,3.5392,3.5392,3.5359,3.5213,0.0,0.0,0.0,0.0,0.0,0.0,0.0,0.0,0.0,0.0,0.0,0.0,0.0,0.0,0.0,0.0,0.0,0.0,0.0,0.0,0.0,0.0,0.0,0.0,0.0,3.9977,4.0096,4.0096,4.0096,4.0096,4.0096,4.0096,4.0096,4.0096,4.0096,4.0096,4.0096,4.0096,4.0096,4.0096,4.0096,4.0096,4.0096,4.0096,4.0096,0.0,0.0,0.0,0.0,0.0,0.0,0.0,4.4127,0.0,4.4059,4.4429,4.4625,4.4555,4.4887,4.4962,4.4586,4.4143,4.4105,4.4526,4.3484,4.2896,4.2955,4.1972,0.0,4.0412,4.0083,3.9768,3.9388,0.0,0.0,0.0,0.0,0.0,0.0,0.0,3.9388,0.0,0.0,0.0,3.9388,3.9388,3.9388,3.9388,3.9388,3.9388,3.9388,3.9388,3.9388,3.9388,3.9388,3.9388,3.9388,3.9388,3.9388,3.9388,3.9388,3.8931,3.8317,3.8003,3.721,3.6417,3.6088,3.5759,3.5504,3.5504,3.5504,3.5504,3.5504,3.5504,3.5472,3.5359,3.5359,0.0,0.0,0.0,0.0,0.0,0.0,0.0,0.0,0.0,0.0,0.0,0.0,0.0,0.0,0.0,0.0,0.0,0.0,0.0,0.0,0.0,0.0,0.0,0.0,0.0,4.0096,4.0096,4.0096,4.0096,4.0096,4.0096,4.0096,4.0096,4.0096,4.0096,4.0096,4.0096,4.0096,4.0096,4.0096,4.0096,4.0096,4.0096,4.0096,0.0,4.492,0.0,0.0,4.5697,0.0,4.6223,4.6221,4.5952,4.5228,4.5599,4.5877,4.5697,4.5841,4.5877,4.5697,4.511,4.5036,4.566,4.451,4.3876,4.3963,4.3266,4.2379,4.1334,4.1016,4.0607,0.0,0.0,0.0,0.0,0.0,0.0,0.0,0.0,0.0,0.0,0.0,3.9844,3.9844,3.9844,3.9844,3.9844,3.9844,3.9844,3.9809,3.9681,3.961,3.961,3.9445,3.9388,3.9388,3.9388,3.9388,3.9388,3.9388,3.9035,3.8571,3.8422,3.7554,3.6656,3.6522,3.5998,3.5504,3.5504,3.5504,3.5504,3.5504,3.5504,3.5504,3.5504,3.5587,0.0,0.0,0.0,0.0,0.0,0.0,0.0,0.0,0.0,0.0,0.0,0.0,0.0,0.0,0.0,0.0,0.0,0.0,0.0,0.0,0.0,3.9875,3.9901,0.0,4.0096,0.0,4.0096,4.0096,4.0096,4.0096,4.0096,4.0096,4.0096,4.0096,4.0096,4.0096,4.0096,4.0096,4.0096,4.0096,4.0096,4.0096,4.0096,4.0096,0.0,0.0,0.0,0.0,0.0,0.0,0.0,4.7787,4.7489,4.673,4.6675,4.6429,4.5769,4.6288,4.6429,4.5769,4.5624,4.5624,4.5697,4.5551,4.5483,4.5493,4.4858,4.4429,4.4287,4.3063,4.237,0.0,0.0,0.0,0.0,0.0,0.0,0.0,0.0,0.0,0.0,4.1294,4.1294,4.1294,4.1294,4.1294,4.1294,4.1294,4.1294,4.1227,4.0615,4.0409,4.0285,3.9625,3.9388,3.9388,3.9388,3.9388,3.9388,3.9388,3.9379,3.9185,3.8556,3.7868,3.718,3.6626,3.5998,3.5504,3.5504,3.5504,3.5504,3.5504,3.5504,3.5504,3.5504,3.5941,3.6523,0.0,0.0,0.0,0.0,0.0,0.0,0.0,0.0,0.0,0.0,0.0,0.0,0.0,0.0,0.0,0.0,0.0,0.0,3.9501,0.0,3.9781,3.9901,4.0037,0.0,4.0096,4.0096,4.0096,4.0096,4.0096,4.0096,4.0096,4.0096,4.0096,4.0096,4.0096,4.0096,4.0096,4.0096,4.0096,4.0096,4.0096,4.0096,4.0096,0.0,0.0,0.0,0.0,0.0,0.0,0.0,4.8001,4.7886,4.7555,4.7521,4.7421,4.71,4.7337,4.7421,4.71,4.662,4.655,4.7066,4.6198,4.5913,4.6324,4.5679,4.5132,4.4705,4.4136,4.3664,0.0,0.0,0.0,0.0,0.0,0.0,0.0,0.0,4.126,4.1492,4.1492,4.1492,4.1492,4.1492,4.1492,4.1492,4.1492,4.1492,4.1459,4.1209,4.0839,4.0512,4.0634,4.0111,3.9388,3.9388,3.9388,3.9388,3.9388,3.9388,3.9328,3.908,3.8512,3.7838,3.7195,3.6567,3.5983,3.5594,3.5504,3.5504,3.5504,3.5797,3.6164,3.6585,3.6845,3.7221,0.0,0.0,0.0,0.0,0.0,0.0,0.0,0.0,0.0,0.0,0.0,0.0,0.0,0.0,0.0,0.0,0.0,0.0,3.9616,0.0,3.9961,4.0011,4.007,4.0096,4.0096,4.0096,4.0096,4.0096,4.0096,4.0096,4.0096,4.0096,4.0096,4.0096,4.0096,4.0096,4.0096,4.0096,4.0096,4.0096,4.0096,4.0096,4.0096,4.646,0.0,4.6742,0.0,4.7355,4.7355,4.7355,4.7387,4.7403,4.7403,4.7451,4.7634,4.7951,4.8001,4.8001,4.8001,4.7488,4.7404,4.7968,4.6997,4.662,4.7118,4.6655,0.0,4.5688,4.5463,4.511,4.4648,4.3708,0.0,0.0,0.0,0.0,0.0,4.2473,4.2571,4.2751,4.2751,4.2751,4.2751,4.2751,4.2799,4.2848,4.2591,4.2511,4.2462,4.2045,4.1558,4.1176,4.1426,4.0839,3.9985,3.9788,3.9717,3.9681,3.9445,3.9553,3.9717,3.9717,3.9379,3.8865,3.8171,3.7397,3.6658,3.6157,3.5901,3.5829,3.6037,3.6414,3.6845,3.731,3.7546,3.7793,3.8222,0.0,0.0,0.0,0.0,0.0,0.0,3.9299,3.9299,3.9299,0.0,0.0,0.0,0.0,0.0,0.0,0.0,0.0,0.0,0.0,0.0,0.0,4.0087,4.0096,4.0096,4.0096,4.0096,4.0096,4.0096,4.0096,4.0096,4.0096,4.0096,4.0096,4.0096,4.0096,4.0096,4.0096,4.0096,4.0096,4.0096,4.0096,4.0096,4.5798,4.5798,4.5814,4.5814,4.5814,4.5814,4.5814,4.5953,4.6029,4.6029,4.6202,4.6755,4.7884,4.8001,4.8001,4.8001,4.8001,4.8001,4.8001,4.7968,4.7968,0.0,0.0,4.7968,4.7951,4.724,4.6859,4.6842,0.0,0.0,4.3766,0.0,4.3436,4.4755,4.4755,4.5146,4.5765,4.5765,4.5765,4.5765,4.5765,4.5875,4.5963,4.5153,4.49,4.4787,4.3309,4.2678,4.2443,4.1754,4.1492,4.136,4.0718,4.0478,4.0339,3.961,3.9915,4.0478,4.0478,4.0478,4.0322,3.9647,3.8464,3.7479,3.7399,3.6844,3.6569,3.7251,3.7399,3.7399,3.7399,3.7879,3.8278,3.8306,0.0,0.0,0.0,0.0,0.0,0.0,3.9299,3.9299,3.9299,0.0,0.0,0.0,0.0,0.0,0.0,0.0,0.0,3.9703,3.9833,0.0,3.9901,4.0037,4.0096,4.0096,4.0096,4.0096,4.0096,4.0096,4.0096,4.0096,4.0096,4.0096,4.0096,4.0096,4.0096,4.0096,4.0096,4.0096,4.0096,4.0096,4.0096,4.0096,4.6141,4.6141,4.6141,4.6141,4.6141,4.6141,4.6141,4.6185,4.6216,4.6216,4.6263,4.6447,4.6791,4.7275,4.7807,0.0,4.834,4.834,0.0,4.834,4.834,4.834,4.834,4.8276,4.8147,4.7914,4.7733,4.7653,0.0,0.0,0.0,4.493,4.5061,4.5466,4.5466,4.5593,4.5829,4.597,4.6001,4.6001,4.6107,4.6168,4.6213,4.5932,4.5561,4.5063,4.4514,4.3612,4.274,4.2896,4.2648,4.2221,4.1997,4.126,4.0443,4.0216,4.032,4.0512,4.0512,4.0836,4.1034,4.0351,3.9863,3.9298,3.8341,3.7603,3.7251,3.7879,3.8023,3.8153,3.8606,3.8843,3.898,3.898,3.9148,0.0,0.0,0.0,0.0,0.0,3.9299,3.9299,0.0,3.9379,0.0,0.0,0.0,0.0,0.0,0.0,0.0,0.0,3.9961,0.0,4.0037,4.0087,4.0096,4.0096,4.0096,4.0096,4.0096,4.0096,4.0096,4.0096,4.0096,4.0096,4.0096,4.0096,4.0096,4.0096,4.0096,4.0096,4.0096,4.0096,4.0096,4.0096,4.5457,4.5457,4.5457,4.5457,4.5457,4.5457,4.5457,4.5516,4.5546,4.5546,4.5606,4.5753,4.6038,4.6475,0.0,4.8029,4.8316,4.8515,4.8515,4.8515,4.8515,4.8515,4.8515,4.8452,4.8324,0.0,0.0,4.8099,4.7569,4.7105,4.6704,4.6658,4.6673,4.683,4.6736,4.6736,4.683,4.6941,4.7003,4.7003,4.708,4.7189,4.7217,4.6901,4.6515,4.6059,4.5386,4.4524,4.3699,4.3754,4.3505,4.3141,4.3141,4.238,4.1362,4.0992,4.1075,4.1309,4.1309,4.1787,4.2141,4.1454,4.1103,4.0543,3.9154,3.8675,3.8549,3.8655,3.8689,3.8799,3.9202,3.9299,3.9299,3.9299,3.9299,3.9299,3.9299,0.0,0.0,0.0,0.0,0.0,0.0,3.9422,0.0,0.0,0.0,0.0,0.0,0.0,0.0,3.9961,4.0062,0.0,4.0096,4.0096,4.0096,4.0096,4.0096,4.0096,4.0096,4.0096,4.0096,4.0096,4.0096,4.0096,4.0096,4.0096,4.0096,4.0096,4.0096,4.0096,4.0096,4.0096,4.0096,4.0096,4.4126,4.4126,0.0,0.0,4.4126,0.0,4.4126,4.4224,4.4338,4.4338,4.4468,4.484,4.5551,4.5669,4.6144,4.7206,0.0,0.0,0.0,4.8513,4.8547,4.8547,4.8547,4.8547,4.8515,4.8324,4.8227,4.8227,4.8099,4.8082,4.8227,4.8082,4.8212,4.8483,4.8292,4.8324,4.8515,4.8515,4.8515,4.8515,4.8547,4.8658,4.8733,4.7978,4.7706,4.7535,4.609,4.5429,4.5098,4.4398,4.4147,4.4097,4.4097,4.3621,4.2876,4.1885,4.2078,4.26,4.26,4.3113,4.3462,4.2851,4.2174,4.1297,3.9949,4.0036,4.021,3.9514,3.9332,3.9299,3.9299,3.9299,3.9299,3.9299,3.9299,3.9299,3.9299,0.0,0.0,0.0,0.0,0.0,0.0,3.9432,3.9563,0.0,0.0,0.0,0.0,0.0,3.9961,4.0113,4.0096,4.0096,4.0096,4.0096,4.0096,4.0096,4.0096,4.0096,4.0096,4.0096,4.0096,4.0096,4.0096,4.0096,4.0096,4.0096,4.0096,4.0096,4.0096,4.0096,4.0096,4.0096,4.0096,4.0096,0.0,0.0,4.4485,4.4485,4.4485,4.4485,4.4485,4.4514,4.4542,4.4542,4.457,4.4682,4.4852,4.5365,4.5809,4.6077,4.7292,4.8051,4.8051,4.8574,4.8877,4.8877,4.8877,4.8815,4.8738,4.8675,4.8564,4.842,4.8388,4.8388,4.842,4.8388,4.842,4.8515,4.8452,4.8452,4.8515,4.8658,4.8738,4.8738,4.8846,4.8909,4.8923,4.8737,4.8331,4.7808,4.7315,4.6397,4.5299,4.5043,4.4549,4.4097,4.4097,4.3993,4.368,4.2892,4.2707,4.2754,4.2754,4.3188,4.3552,4.3402,4.2812,4.2215,4.184,4.1059,4.0359,4.0194,3.9696,3.9299,3.9299,3.9299,3.9299,3.9299,3.9299,3.9299,3.9299,3.9299,0.0,0.0,3.9299,3.9299,3.9299,3.9494,3.9625,0.0,0.0,0.0,0.0,4.0011,4.0062,4.0096,4.0096,4.0096,4.0096,4.0096,4.0096,4.0096,4.0096,4.0096,4.0096,4.0096,4.0096,4.0096,4.0096,4.0096,4.0096,4.0096,4.0096,4.0096,4.0096,4.0096,4.0096,4.0096,4.0096,4.0096,4.4682,4.4615,4.4615,4.4615,4.4615,4.4615,4.4615,4.4615,4.4615,4.4615,4.4615,4.4615,4.4615,4.4942,4.5196,4.5196,4.6549,4.7547,4.7872,4.8291,4.8663,4.8984,4.9001,4.8987,4.8894,4.8832,4.8707,4.8515,4.8515,4.8564,4.8627,4.8547,4.8578,4.8721,4.8658,4.8658,4.8753,4.8863,4.8894,4.8894,4.897,4.9001,4.9001,4.9001,4.8748,4.8345,4.7946,4.7038,4.598,4.5555,4.4949,4.4344,4.4344,4.4344,4.4241,4.3856,4.3575,4.3383,4.3383,4.3625,4.3835,4.3835,4.3477,4.3036,4.2705,4.1979,4.1177,4.0542,4.0094,3.9696,3.9365,3.9299,3.9299,3.9299,3.9299,3.9299,3.9299,3.9299,0.0,3.9299,3.9299,3.9325,3.9395,3.9573,3.9703,3.9668,0.0,0.0,3.9986,4.0062,4.0096,4.0096,4.0096,4.0096,4.0096,4.0096,4.0096,4.0096,4.0096,4.0096,4.0096,4.0096,4.0096,4.0096,4.0096,4.0096,4.0096,4.0096,4.0096,4.0096,4.0096,4.0096,4.0096,4.0096,4.0096,4.0096,4.4891,4.4784,4.4733,4.4632,4.4615,4.4615,4.4615,4.4615,4.4615,4.4615,4.4615,4.4615,4.4615,4.4615,4.4615,4.4615,4.5766,4.6769,4.753,4.777,4.8189,4.8815,4.8951,4.9001,4.9001,4.8894,4.8769,4.8578,4.8578,4.8658,4.8832,4.8658,4.8721,4.9001,4.8894,4.8894,4.9001,4.9001,4.9001,4.9001,4.9001,4.9001,4.9001,4.9001,4.9001,4.8934,4.8308,4.7597,4.6853,4.6109,4.5382,4.475,4.4649,4.4615,4.4615,4.4615,4.44,4.4155,4.4126,4.4126,4.4097,4.4097,4.4027,4.376,4.3127,4.2791,4.2228,4.1017,4.0586,4.0237,3.958,3.9381,3.9299,3.9299,3.9299,3.9299,3.9325,0.0,3.9299,3.9325,3.9325,3.9379,3.9501,3.9642,3.9781,3.9901,4.0037,4.0096,0.0,4.0096,4.0096,4.0096,4.0096,4.0096,4.0096,4.0096,4.0096,4.0096,4.0096,4.0096,4.0096,4.0096,4.0096,4.0096,4.0096,4.0096,4.0096,4.0096,4.0096,4.0096,4.0096,4.0096,4.0096,4.0096,4.0096,4.0096,4.5669,4.5534,4.5331,4.4716,4.4615,4.4615,4.4615,4.4615,4.4615,4.4615,4.4615,4.4615,4.4615,4.4615,4.4615,4.4615,4.4818,4.5246,4.5991,4.7225,4.7939,4.8058,4.868,4.9001,4.9001,4.897,4.894,4.894,4.894,4.894,4.897,4.894,4.894,4.9001,4.897,4.897,4.9001,4.9001,4.9001,4.9001,4.9001,4.9001,4.9001,4.9001,4.9001,4.8984,4.8883,4.8376,4.7631,4.687,4.6143,4.5415,4.4818,4.4615,4.4615,4.4615,4.4542,4.4485,4.431,4.4184,4.4097,4.4097,4.4068,4.4051,4.3934,4.3387,4.2841,4.2499,4.145,4.0479,4.0271,3.973,3.9299,3.9299,3.9299,3.9325,3.9432,0.0,3.9325,3.9475,3.9475,3.9475,3.9501,3.972,3.9875,3.9901,4.0037,4.0096,4.0096,4.0096,4.0096,4.0096,4.0096,4.0096,4.0096,4.0096,4.0096,4.0096,4.0096,4.0096,4.0096,4.0096,4.0096,4.0096,4.0096,4.0096,4.0096,4.0096,4.0096,4.0096,4.0096,4.0096,4.0096,4.0096,4.0096,4.0096,4.6447,4.6295,4.6177,4.5821,4.5449,4.5179,4.5179,4.4869,4.4615,4.4615,4.4615,4.4615,4.4615,4.4615,4.4615,4.4615,4.4615,4.475,4.5077,4.6126,4.709,4.7855,4.824,4.8595,4.9001,4.9001,4.9001,4.9001,4.9001,4.9001,4.9001,4.9001,4.9001,4.9001,4.9001,4.9001,4.9001,4.9001,4.9001,4.9001,4.9001,4.9001,4.9001,4.9001,4.9001,4.9001,4.9001,4.8545,4.777,4.7056,4.6312,4.5568,4.4852,4.4615,4.4615,4.4615,4.4615,4.457,4.4468,4.4412,4.4372,4.4372,4.4298,4.4196,4.4196,4.3887,4.3478,4.2991,4.2373,4.1627,4.0662,4.0219,3.9854,3.9472,3.9422,0.0,0.0,3.9547,3.9537,3.9616,3.9616,3.9642,3.972,3.9824,3.9926,3.9986,4.0062,4.0096,4.0096,4.0096,4.0096,4.0096,4.0096,4.0096,4.0096,4.0096,4.0096,4.0096,4.0096,4.0096,4.0096,4.0096,4.0096,4.0096,4.0096,4.0096,4.0096,4.0096,4.0096,4.0096,4.0096,4.0096,4.0096,4.0096,4.0096,4.0096,4.7192,4.7056,4.7005,4.6819,4.6329,4.5957,4.5957,4.5466,4.5055,4.4886,4.4869,4.4801,4.4632,4.4615,4.4615,4.4615,4.4615,4.4615,4.4615,4.5128,4.6024,4.7344,4.7703,4.8257,4.8984,4.9001,4.9001,4.9001,4.9001,4.9001,4.9001,4.9001,4.9001,4.9001,4.9001,4.9001,4.9001,4.9001,4.9001,4.9001,4.9001,4.9001,4.9001,4.9001,4.9001,4.9001,4.9001,4.8646,4.8037,4.7107,4.6413,4.5805,4.4902,4.4615,4.4615,4.4615,4.4615,4.4615,4.4615,4.457,4.4542,4.4587,4.444,4.4293,4.4367,4.4298,4.4044,4.3446,4.3149,4.2652,4.1393,4.0882,4.0465,3.9887,0.0,0.0,0.0,3.9729,3.9703,3.9729,3.9755,3.9781,3.9901,3.9926,3.9986,4.007,4.0096,4.0096,4.0096,4.0096,4.0096,4.0096,4.0096,4.0096,4.0096,4.0096,4.0096,4.0096,4.0096,4.0096,4.0096,4.0096,4.0096,4.0096,4.0096,4.0096,4.0096,4.0096,4.0096,4.0096,4.0096,4.0096,4.0096,4.0096,4.0096,4.0096,4.7939,4.7804,4.7614,4.6921,4.6752,4.6718,4.6718,4.6667,4.638,4.572,4.5618,4.5348,4.4682,4.4615,4.4615,4.4615,4.4615,4.4615,4.4615,4.4649,4.501,4.5838,4.7162,4.8257,4.8984,4.9001,4.9001,4.9001,4.9001,4.9001,4.9001,4.9001,4.9001,4.9001,4.9001,4.9001,4.9001,4.9001,4.9001,4.9001,4.9001,4.9001,4.9001,4.9001,4.9001,4.9001,4.9001,4.8968,4.8714,4.7276,4.6752,4.6464,4.5055,4.4615,4.4615,4.4615,4.4615,4.4615,4.4615,4.4468,4.4367,4.4542,4.444,4.4338,4.4542,4.457,4.4497,4.4271,4.367,4.3093,4.287,4.172,4.0782,4.0715,0.0,0.0,3.9875,3.9781,3.9755,3.9875,3.9901,3.9901,3.9901,4.0011,4.007,4.0096,4.0096,4.0096,4.0096,4.0096,4.0096,4.0096,4.0096,4.0096,4.0096,4.0096,4.0096,4.0096,4.0096,4.0096,4.0096,4.0096,4.0096,4.0096,4.0096,4.0096,4.0096,4.0096,4.0096,4.0096,4.0096,4.0096,4.0096,4.0096,4.0096,4.0096,4.8646,4.8595,4.8494,4.8206,4.78,4.7479,4.7479,4.709,4.6701,4.6413,4.638,4.6092,4.5348,4.528,4.5094,4.4649,4.4615,4.4615,4.4615,4.4615,4.4925,4.5669,4.7124,4.8024,4.8325,4.8781,4.9001,4.9001,4.9001,4.9001,4.9001,4.9001,4.9001,4.9001,4.9001,4.9001,4.9001,4.9001,4.9001,4.9001,4.9001,4.9001,4.9001,4.9001,4.9001,4.9001,4.9001,4.9001,4.8849,4.7834,4.7175,4.6616,4.5602,4.4987,4.4615,4.4615,4.4615,4.457,4.444,4.444,4.4497,4.457,4.4542,4.4514,4.457,4.4615,4.457,4.4497,4.4277,4.3867,4.3255,4.2673,4.2125,4.1671,0.0,4.1069,4.0745,4.0652,4.0483,4.0062,4.0037,4.0037,4.0037,4.0087,4.0096,4.0096,4.0096,4.0096,4.0096,4.0096,4.0096,4.0096,4.0096,4.0096,4.0096,4.0096,4.0096,4.0096,4.0096,4.0096,4.0096,4.0096,4.0096,4.0096,4.0096,4.0096,4.0096,4.0096,4.0096,4.0096,4.0096,4.0096,4.0096,4.0096,4.0096,4.0096,4.9001,4.9001,4.9001,4.9001,4.8595,4.8257,4.8257,4.7817,4.7411,4.7175,4.7141,4.687,4.6126,4.6058,4.5754,4.4993,4.4942,4.4869,4.4632,4.4615,4.4925,4.5669,4.6684,4.7415,4.7872,4.8409,4.8781,4.9001,4.9001,4.9001,4.9001,4.9001,4.9001,4.9001,4.9001,4.9001,4.9001,4.9001,4.9001,4.9001,4.9001,4.9001,4.9001,4.9001,4.9001,4.9001,4.9001,4.9001,4.89,4.8142,4.7411,4.6667,4.594,4.515,4.4514,4.4457,4.4429,4.4412,4.4338,4.4412,4.4514,4.4514,4.4485,4.4457,4.4587,4.4615,4.4615,4.4615,4.4615,4.4418,4.3765,4.3434,4.3114,4.2581,4.2294,4.2028,4.1583,4.1542,4.1356,4.0857,4.0807,4.0705,4.0485,4.0468,4.0367,4.013,4.0096,4.0096,4.0096,4.0096,4.0096,4.0096,4.0096,4.0096,4.0096,4.0096,4.0096,4.0096,4.0096,4.0096,4.0096,4.0096,4.0096,4.0096,4.0096,4.0096,4.0096,4.0096,4.0096,4.0096,4.0096,4.0096,4.0096,4.0096,4.0096,4.0096,4.9001,4.9001,4.9001,4.9001,4.9001,4.9001,4.9001,4.9001,4.8748,4.799,4.7889,4.7648,4.6887,4.6802,4.6498,4.5771,4.5703,4.5382,4.4649,4.4615,4.4925,4.5669,4.5703,4.6397,4.7855,4.7889,4.8244,4.9001,4.9001,4.9001,4.9001,4.9001,4.9001,4.9001,4.9001,4.9001,4.9001,4.9001,4.9001,4.9001,4.9001,4.9001,4.9001,4.9001,4.9001,4.9001,4.9001,4.9001,4.89,4.8173,4.7428,4.6667,4.594,4.5048,4.4281,4.4155,4.4097,4.4126,4.4253,4.431,4.431,4.431,4.4196,4.4184,4.4514,4.4615,4.4615,4.4615,4.4615,4.4615,4.4615,4.3944,4.3392,4.3392,4.2794,4.2303,4.2303,4.2303,4.2303,4.2286,4.2286,4.1999,4.1288,4.1221,4.0899,4.018,4.0113,4.0113,4.0113,4.0096,4.0096,4.0096,4.0096,4.0096,4.0096,4.0096,4.0096,4.0096,4.0096,4.0096,4.0096,4.0096,4.0096,4.0096,4.0096,4.0096,4.0096,4.0096,4.0096,4.0096,4.0096,4.0096,4.0096,4.0096,4.0096,4.0096,4.9001,4.9001,4.9001,4.9001,4.9001,4.9001,4.9001,4.9001,4.8934,4.8714,4.868,4.8392,4.7665,4.7581,4.7276,4.6532,4.6007,4.5382,4.4649,4.4615,4.4699,4.4936,4.5415,4.616,4.7107,4.7648,4.8244,4.9001,4.9001,4.9001,4.9001,4.9001,4.9001,4.9001,4.9001,4.9001,4.9001,4.9001,4.9001,4.9001,4.9001,4.9001,4.9001,4.9001,4.9001,4.9001,4.9001,4.9001,4.8968,4.8748,4.8081,4.7117,4.5753,4.4875,4.4281,4.4155,4.4184,4.4196,4.4056,4.4027,4.4068,4.4253,4.4384,4.4429,4.4412,4.4514,4.4615,4.4615,4.4615,4.4615,4.4615,4.4412,4.4231,4.4231,4.4073,4.3707,4.3166,4.3081,4.2878,4.2354,4.2286,4.2202,4.1982,4.1965,4.1863,4.167,4.1153,4.0865,4.0865,4.0383,4.0096,4.0096,4.0096,4.0096,4.0096,4.0096,4.0096,4.0096,4.0096,4.0096,4.0096,4.0096,4.0096,4.0096,4.0096,4.0096,4.0096,4.0096,4.0096,4.0096,4.0096,4.0096,4.0096,4.0096,4.0096,4.0096,4.9001,4.9001,4.9001,4.9001,4.9001,4.9001,4.9001,4.9001,4.9001,4.9001,4.9001,4.8832,4.8392,4.8359,4.8054,4.731,4.6295,4.5517,4.506,4.4767,4.4615,4.4615,4.501,4.5602,4.6346,4.709,4.7834,4.8578,4.8866,4.9001,4.9001,4.9001,4.9001,4.9001,4.9001,4.9001,4.9001,4.9001,4.9001,4.9001,4.9001,4.9001,4.9001,4.9001,4.9001,4.9001,4.9001,4.9001,4.9001,4.8956,4.8093,4.6834,4.5511,4.4654,4.4126,4.3952,4.3964,4.4023,4.3998,4.3969,4.4027,4.4184,4.4298,4.44,4.4412,4.4514,4.4615,4.4615,4.4615,4.4615,4.4615,4.4615,4.4615,4.4615,4.4615,4.4418,4.3944,4.3876,4.3707,4.325,4.3227,4.3064,4.2777,4.2743,4.2608,4.2303,4.188,4.1644,4.1644,4.1204,4.0976,4.0976,4.0705,4.0527,4.0527,4.0248,4.0096,4.0096,4.0096,4.0096,4.0096,4.0096,4.0096,4.0096,4.0096,4.0096,4.0096,4.0096,4.0096,4.0096,4.0096,4.0096,4.0096,4.0096,4.0096,4.0096,4.9001,4.9001,4.9001,4.9001,4.9001,4.9001,4.9001,4.9001,4.9001,4.9001,4.9001,4.9001,4.9001,4.9001,4.8731,4.8041,4.6718,4.5838,4.572,4.506,4.4682,4.4615,4.4615,4.4891,4.5602,4.6312,4.7107,4.7889,4.8578,4.8934,4.9001,4.9001,4.9001,4.9001,4.9001,4.9001,4.9001,4.9001,4.9001,4.9001,4.9001,4.9001,4.9001,4.9001,4.9001,4.9001,4.9001,4.9001,4.897,4.8832,4.7704,4.6226,4.528,4.4517,4.3951,4.3674,4.3628,4.3687,4.3981,4.4068,4.4068,4.4068,4.4097,4.4184,4.4485,4.457,4.4615,4.4615,4.4615,4.4615,4.4615,4.4615,4.4615,4.4615,4.4615,4.4615,4.4615,4.4615,4.4615,4.4615,4.4615,4.4299,4.3589,4.3521,4.3234,4.2557,4.2422,4.2388,4.2388,4.2337,4.2286,4.2286,4.1644,4.1305,4.1305,4.0587,4.018,4.0096,4.0096,4.0096,4.0096,4.0096,4.0096,4.0096,4.0096,4.0096,4.0096,4.0096,4.0096,4.0096,4.0096,4.0096,4.0096,4.0096,4.0096,4.0096,4.9001,4.9001,4.9001,4.9001,4.9001,4.9001,4.9001,4.9001,4.9001,4.9001,4.9001,4.9001,4.9001,4.9001,4.8934,4.8781,4.7953,4.6908,4.5788,4.5551,4.5196,4.4632,4.4615,4.4682,4.4852,4.5551,4.6583,4.7889,4.8041,4.8443,4.9001,4.9001,4.9001,4.9001,4.9001,4.9001,4.9001,4.9001,4.9001,4.9001,4.9001,4.9001,4.9001,4.9001,4.9001,4.9001,4.9001,4.9001,4.897,4.8642,4.7883,4.6843,4.5891,4.5175,4.4537,4.3823,4.3704,4.3839,4.3717,4.3717,4.3747,4.3881,4.4027,4.4126,4.4184,4.44,4.4615,4.4615,4.4615,4.4615,4.4615,4.4615,4.4615,4.4615,4.4615,4.4615,4.4615,4.4615,4.4615,4.4615,4.4615,4.4547,4.435,4.4333,4.4265,4.4124,4.3521,4.3139,4.3139,4.2608,4.2286,4.2286,4.2134,4.2049,4.2049,4.1322,4.0663,4.0096,4.0096,4.0096,4.0096,4.0096,4.0096,4.0096,4.0096,4.0096,4.0096,4.0096,4.0096,4.0096,4.0096,4.0096,4.0096,4.0096,4.0096,4.0096,4.9001,4.9001,4.9001,4.9001,4.9001,4.9001,4.9001,4.9001,4.9001,4.9001,4.9001,4.9001,4.9001,4.9001,4.9001,4.9001,4.8342,4.7567,4.6819,4.6092,4.5534,4.5128,4.4801,4.4615,4.4615,4.4976,4.5889,4.7394,4.775,4.8261,4.9001,4.9001,4.9001,4.9001,4.9001,4.9001,4.9001,4.9001,4.9001,4.9001,4.9001,4.9001,4.9001,4.9001,4.9001,4.9001,4.9001,4.8909,4.8736,4.8547,4.7857,4.6919,4.6061,4.5346,4.4646,4.3843,4.3658,4.3763,4.3734,4.3734,4.3793,4.3939,4.4097,4.4212,4.4212,4.4429,4.4615,4.4615,4.4615,4.4615,4.4615,4.4615,4.4615,4.4615,4.4615,4.4615,4.4615,4.4615,4.4615,4.4615,4.4615,4.4615,4.4615,4.4615,4.4615,4.4615,4.4198,4.3978,4.3978,4.3606,4.3413,4.3413,4.3014,4.2828,4.2828,4.2083,4.1356,4.0612,4.0282,4.0096,4.0096,4.0096,4.0096,4.0096,4.0096,4.0096,4.0096,4.0096,4.0096,4.0096,4.0096,4.0096,4.0096,4.0096,4.0096,4.0096,4.9001,4.9001,4.9001,4.9001,4.9001,4.9001,4.9001,4.9001,4.9001,4.9001,4.9001,4.9001,4.9001,4.9001,4.9001,4.9001,4.846,4.8024,4.7889,4.6769,4.5974,4.572,4.5111,4.4733,4.4615,4.4615,4.5275,4.6599,4.7361,4.8105,4.8815,4.8951,4.9001,4.9001,4.9001,4.9001,4.9001,4.9001,4.9001,4.9001,4.9001,4.9001,4.9001,4.9001,4.9001,4.9001,4.9001,4.8815,4.8547,4.8483,4.786,4.6956,4.6063,4.5367,4.4705,4.383,4.3598,4.3628,4.3793,4.3868,4.3881,4.4027,4.4184,4.4281,4.4293,4.4468,4.4615,4.4615,4.4615,4.4615,4.4615,4.4615,4.4615,4.4615,4.4615,4.4615,4.4615,4.4615,4.4615,4.4615,4.4615,4.4615,4.4615,4.4615,4.4615,4.4615,4.4615,4.4615,4.4615,4.4615,4.4615,4.4615,4.3944,4.3623,4.3623,4.2861,4.2185,4.1576,4.0696,4.0231,4.0096,4.0096,4.0096,4.0096,4.0096,4.0096,4.0096,4.0096,4.0096,4.0096,4.0096,4.0096,4.0096,4.0096,4.0096,4.0096,4.9001,4.9001,4.9001,4.9001,4.9001,4.9001,4.9001,4.9001,4.9001,4.9001,4.9001,4.9001,4.9001,4.9001,4.9001,4.9001,4.8917,4.8595,4.7922,4.7703,4.701,4.5771,4.5602,4.5246,4.4615,4.4615,4.4993,4.5855,4.6583,4.7327,4.8041,4.8714,4.9001,4.9001,4.9001,4.9001,4.9001,4.9001,4.9001,4.9001,4.9001,4.9001,4.9001,4.9001,4.9001,4.9001,4.9001,4.8894,4.8707,4.8373,4.8129,4.7748,4.6275,4.5715,4.5384,4.3995,4.3598,4.3598,4.3628,4.3628,4.3687,4.3881,4.4027,4.4155,4.4281,4.4468,4.4615,4.4615,4.4615,4.4615,4.4615,4.4615,4.4615,4.4615,4.4615,4.4615,4.4615,4.4615,4.4615,4.4615,4.4615,4.4615,4.4615,4.4615,4.4615,4.4615,4.4615,4.4615,4.4615,4.4615,4.4615,4.4615,4.4496,4.4445,4.4445,4.3656,4.3189,4.3071,4.1711,4.0713,4.0096,4.0096,4.0096,4.0096,4.0096,4.0096,4.0096,4.0096,4.0096,4.0096,4.0096,4.0096,4.0096,4.0096,4.0096,4.0096,4.9001,4.9001,4.9001,4.9001,4.9001,4.9001,4.9001,4.9001,4.9001,4.9001,4.9001,4.9001,4.9001,4.9001,4.9001,4.9001,4.9001,4.8866,4.8545,4.8139,4.7601,4.6972,4.6143,4.5551,4.5213,4.4818,4.4767,4.5077,4.5821,4.6786,4.7889,4.824,4.8612,4.9001,4.9001,4.9001,4.9001,4.9001,4.9001,4.9001,4.9001,4.9001,4.9001,4.9001,4.9001,4.9001,4.8925,4.8769,4.8595,4.8292,4.8195,4.798,4.6806,4.6254,4.586,4.4673,4.4062,4.3763,4.3763,4.3763,4.3822,4.3969,4.4126,4.427,4.444,4.4542,4.4615,4.4615,4.4615,4.4615,4.4615,4.4615,4.4615,4.4615,4.4615,4.4615,4.4615,4.4615,4.4615,4.4615,4.4615,4.4615,4.4615,4.4615,4.4615,4.4615,4.4615,4.4615,4.4615,4.4615,4.4615,4.4615,4.4615,4.4615,4.4615,4.4231,4.3842,4.3375,4.2733,4.183,4.0696,4.0299,4.0096,4.0096,4.0096,4.0096,4.0096,4.0096,4.0096,4.0096,4.0096,4.0096,4.0096,4.0096,4.0096,4.0096]}]]